GFSSGP_prec_cthk_000.txt.gz
RH
5 4 5 11 14 15 23 21 20 20 26 32 36 36 36 40 41 54 47 40 40 45 46 45 41 43 42 43 41 44 55 55 57 72 73 67 75 83 96 84 81 75 75 74 58 57 59 55 43
5 5 6 11 15 20 27 21 23 23 23 28 34 41 41 43 47 45 47 43 44 47 49 49 43 43 44 41 39 41 43 49 56 57 71 78 79 74 78 96 83 87 81 76 63 59 62 61 46
4 5 8 13 16 24 34 24 22 23 25 29 38 44 45 49 48 49 44 44 48 50 50 47 48 46 45 44 42 40 38 38 39 42 55 68 74 82 81 83 82 88 81 78 74 76 68 54 47
6 6 7 13 14 15 19 23 25 26 31 36 43 47 50 52 52 53 50 50 51 55 54 49 48 46 47 46 44 45 45 41 39 36 41 52 70 76 84 93 84 84 76 71 77 72 65 61 49
7 7 9 12 12 13 15 18 25 32 41 44 46 52 56 57 58 57 55 52 54 54 54 52 45 44 42 39 39 43 43 42 41 41 38 35 38 43 52 84 85 81 78 73 72 60 60 56 59
9 9 13 13 14 15 16 20 26 35 40 44 53 54 57 57 56 56 49 48 49 49 48 46 42 39 34 34 35 35 36 40 40 44 42 42 43 44 50 45 53 56 53 54 54 59 62 45 51
11 11 12 13 13 14 14 14 18 23 29 35 42 55 59 55 51 46 46 46 40 34 35 35 35 34 33 32 33 32 32 32 31 39 45 49 47 50 48 43 43 42 44 52 54 52 58 53 54
10 10 11 11 13 13 13 15 17 19 22 28 31 44 49 49 48 46 42 37 36 35 34 30 29 30 31 31 32 31 30 31 29 27 29 39 52 60 59 68 66 59 58 60 63 60 59 62 62
10 12 13 13 13 13 13 14 18 19 21 23 26 31 35 41 38 34 34 33 30 27 28 29 30 30 32 34 33 31 29 28 30 31 32 35 39 55 73 75 80 80 79 75 70 66 66 65 62
14 15 16 15 14 14 13 13 14 16 17 19 21 25 28 31 31 30 29 27 21 22 24 27 29 32 34 34 31 32 35 37 37 39 40 40 47 53 66 85 95 97 92 91 92 86 78 72 70
19 20 17 18 18 17 15 16 17 20 20 19 19 20 22 24 24 27 31 28 29 29 28 26 30 36 41 36 39 41 39 40 44 44 44 47 50 56 68 77 87 92 93 96 91 99 97 88 83
25 22 22 23 22 22 24 27 27 29 31 33 31 29 31 34 35 35 36 36 36 36 38 37 36 37 37 36 36 37 36 35 36 40 44 48 52 55 54 57 69 86 93 94 92 94 93 95 90
23 23 23 23 23 24 24 23 22 23 24 28 30 31 29 30 28 29 30 31 32 32 30 27 26 24 24 24 23 23 24 24 24 23 22 20 19 19 21 25 32 49 69 87 84 80 87 90 86
21 23 25 24 22 22 20 18 18 18 19 19 20 21 21 21 22 24 24 25 24 21 19 20 20 21 21 20 18 17 16 16 17 17 14 13 13 14 16 18 22 28 35 44 56 67 73 76 83
21 20 21 20 20 20 16 18 15 13 14 16 19 20 20 21 22 23 22 21 19 16 17 18 18 17 16 16 16 16 15 16 17 16 17 17 17 16 15 15 16 19 21 26 34 40 54 55 65
19 18 17 16 16 17 15 14 15 15 15 16 17 17 17 18 20 21 20 19 17 19 19 19 19 19 19 18 18 18 19 20 21 21 22 22 21 19 20 20 18 17 17 18 23 28 32 42 60
17 16 16 16 16 17 17 14 15 15 14 13 14 17 17 18 18 19 20 20 21 21 22 21 21 21 21 21 21 22 22 24 24 25 26 26 25 25 26 26 24 22 19 17 19 24 30 30 31
22 22 21 21 18 19 19 18 17 17 17 14 15 16 18 19 20 22 24 23 25 26 27 27 27 27 27 27 28 29 30 32 33 34 33 31 32 31 32 32 29 29 28 25 21 20 22 28 31
26 27 27 23 23 25 23 22 21 20 18 19 20 19 20 21 24 26 28 29 31 33 33 33 34 34 35 37 39 39 38 38 40 40 38 39 39 39 39 38 38 34 32 31 30 27 25 23 24
29 29 27 26 27 27 25 23 22 22 23 24 24 24 24 26 28 29 31 33 33 34 34 35 36 37 39 41 43 43 42 44 44 44 46 47 47 49 47 46 45 42 36 34 33 32 31 31 29
30 32 30 29 27 25 26 24 25 24 27 27 28 30 31 31 31 31 32 32 34 35 36 38 39 41 42 43 46 47 48 47 48 50 52 55 56 57 56 53 50 47 47 45 39 37 36 34 33
33 32 33 33 32 28 29 27 24 25 26 26 30 32 33 34 35 35 35 36 39 40 41 42 44 46 49 51 52 51 51 52 55 57 59 64 64 60 56 54 54 53 52 50 50 47 41 39 38
34 34 33 33 33 32 31 32 29 26 27 27 28 30 31 32 33 35 38 39 41 41 42 42 46 49 50 50 51 54 58 63 66 67 67 67 66 59 57 57 60 60 57 57 55 53 49 47 45
37 36 34 33 33 38 32 33 29 27 27 28 29 30 31 31 32 34 35 36 38 41 44 46 48 50 51 52 55 58 63 71 73 71 69 68 68 64 62 61 60 60 59 59 58 54 54 52 50
41 40 45 43 41 39 34 35 30 27 28 31 32 33 35 36 36 36 37 39 41 44 46 49 51 55 57 59 60 62 70 74 74 72 69 68 70 64 66 66 62 58 55 51 49 48 46 43 41
43 43 52 67 48 37 34 34 30 28 29 32 35 37 39 42 43 42 43 45 47 49 53 55 58 60 63 66 67 73 75 76 72 72 72 72 65 64 62 58 54 48 42 38 35 32 31 33 33
46 50 47 50 53 50 34 31 32 32 34 36 39 42 45 47 48 48 49 51 52 57 60 61 63 67 73 75 77 77 77 77 78 75 72 70 68 67 63 56 48 40 36 35 35 33 35 35 33
49 48 55 56 72 64 37 34 33 38 39 41 42 46 49 53 53 54 56 58 59 62 65 68 70 74 76 77 81 80 81 81 79 76 75 75 70 67 60 49 43 40 37 35 33 34 34 35 33
52 53 51 53 57 66 63 41 37 40 42 43 45 48 53 56 59 60 62 64 66 68 70 72 74 77 78 78 81 81 80 79 78 80 77 75 69 59 50 44 41 39 37 35 36 34 32 34 34
50 54 53 62 62 65 73 48 40 42 46 47 48 52 56 60 60 62 66 67 68 69 71 75 78 79 78 79 77 80 82 83 81 78 77 71 61 51 46 44 41 37 34 32 30 28 27 30 31

GFSSGP_prec_cthk_003.txt.gz
RH
4 5 6 11 13 14 21 25 27 25 30 39 35 45 51 54 54 70 62 45 46 47 48 45 41 40 40 46 42 44 45 46 57 64 62 79 81 90 94 87 85 84 93 84 88 83 77 68 51
5 5 7 12 15 23 20 29 24 28 21 27 37 42 47 44 47 49 56 49 46 48 51 50 42 41 39 40 38 40 40 45 48 51 59 68 72 70 80 86 74 73 87 93 96 86 80 77 74
4 6 9 14 18 24 33 33 27 19 21 30 42 53 58 51 49 49 47 48 50 51 50 44 43 43 43 41 39 39 41 42 42 47 55 60 64 75 68 78 79 69 76 92 96 85 82 77 74
7 6 8 15 22 25 34 22 18 22 27 30 45 45 44 51 52 51 47 49 52 47 47 43 43 43 42 42 40 39 40 39 40 41 42 46 56 64 66 63 67 68 85 97 98 98 91 79 78
7 9 15 20 17 14 17 17 23 29 45 45 45 62 49 51 51 51 46 46 46 44 43 42 41 39 40 39 38 38 38 37 38 40 39 40 39 44 47 48 57 80 90 93 94 88 93 80 62
11 12 18 20 15 14 14 18 30 38 41 46 60 56 52 51 53 50 48 47 47 46 42 43 36 34 33 33 35 36 36 38 37 39 40 41 43 40 40 41 42 45 58 73 76 73 69 63 62
15 20 19 18 15 14 14 15 20 27 38 33 46 62 58 48 44 41 45 42 40 41 41 39 32 26 25 29 28 30 33 35 36 37 38 41 41 44 38 34 41 49 42 57 64 53 56 57 61
14 14 17 18 21 14 11 15 17 17 17 19 23 51 49 37 33 34 36 37 41 39 35 30 31 34 32 33 30 31 33 35 38 36 33 33 34 31 34 36 39 47 58 58 61 70 66 55 58
14 18 19 15 20 15 12 16 15 14 18 18 19 26 43 28 31 32 36 36 32 27 25 24 28 29 31 33 35 36 36 34 33 31 32 32 37 31 34 36 39 49 60 66 68 70 75 68 61
22 22 19 15 14 18 14 13 13 13 18 19 18 17 21 25 30 32 33 32 28 24 25 27 25 28 30 37 36 38 39 41 42 40 38 42 40 44 47 48 51 53 60 70 75 82 80 80 82
23 21 17 20 18 17 18 18 18 21 27 29 30 28 21 23 25 27 30 30 32 34 32 33 34 36 39 44 43 47 38 40 39 35 35 33 33 34 37 39 48 43 44 60 62 78 91 91 92
22 18 18 19 16 17 18 19 18 18 23 26 30 33 35 37 38 39 36 34 36 38 35 34 30 28 30 37 37 35 33 30 30 28 25 19 16 12 11 12 15 20 26 29 42 78 92 93 93
18 18 19 16 17 17 17 18 17 17 18 18 22 24 25 27 27 26 25 25 25 26 26 23 20 22 24 28 28 28 26 25 22 23 19 23 20 13 14 13 14 16 17 19 25 52 69 90 89
17 20 21 18 19 17 15 15 16 17 13 14 16 18 20 20 20 21 21 22 24 24 21 19 20 21 22 23 22 20 20 19 20 20 18 17 18 16 24 21 19 20 21 23 25 29 46 61 61
17 22 21 18 15 16 12 19 20 16 14 12 14 16 18 20 19 19 20 22 23 20 18 17 18 18 18 18 18 20 19 20 22 22 19 19 21 20 19 23 26 24 20 20 20 21 23 28 47
22 27 21 19 16 19 16 16 19 19 17 16 16 18 18 18 19 19 20 21 20 18 18 21 21 22 22 23 22 23 22 23 25 26 23 22 22 23 23 28 27 25 26 25 23 24 23 26 29
25 24 23 20 19 18 18 17 18 18 19 19 17 18 20 22 21 20 22 22 23 23 25 27 28 29 30 30 31 32 30 30 31 33 34 30 30 29 29 32 32 30 34 32 29 29 26 27 33
23 26 26 26 22 21 21 21 22 23 22 21 21 22 21 23 24 24 24 25 27 29 29 29 32 32 34 35 35 36 38 41 41 43 42 41 41 40 40 40 40 42 43 41 39 37 34 31 29
26 28 29 27 24 25 23 23 22 22 21 22 23 24 23 22 25 27 27 26 27 28 29 31 32 33 35 35 37 40 44 45 47 45 45 46 46 45 46 49 50 50 51 51 50 47 44 40 37
25 30 30 27 26 26 25 24 23 20 20 21 22 23 24 25 26 28 28 29 29 29 30 31 32 34 36 37 39 41 44 47 51 52 50 51 53 56 57 57 58 58 57 58 56 53 51 48 45
24 28 27 28 27 27 25 29 26 20 21 19 22 24 25 26 27 28 29 30 31 32 33 35 36 38 38 40 41 44 46 47 48 49 51 55 59 64 67 70 70 68 67 66 64 62 59 52 51
27 29 30 29 28 27 25 24 23 20 21 22 23 25 27 28 28 28 29 31 33 34 36 37 39 39 41 44 47 49 52 54 57 58 59 63 68 72 76 77 77 76 76 75 72 68 64 62 58
28 30 31 31 30 29 26 25 31 25 24 26 27 29 31 31 32 33 34 34 35 36 38 40 42 44 46 48 51 54 55 61 64 65 71 77 80 81 79 81 81 79 77 76 73 72 70 69 65
31 32 31 33 34 40 34 30 26 33 25 26 29 31 33 35 37 39 41 42 42 43 44 47 48 49 51 55 57 60 61 66 71 72 77 83 80 82 81 81 82 81 77 76 74 72 69 67 64
37 36 41 42 43 42 35 33 27 29 29 30 32 34 37 39 43 45 46 47 48 48 51 53 55 57 58 59 62 65 68 72 74 73 76 80 76 74 77 77 71 70 69 68 64 62 57 52 51
40 40 51 61 46 40 34 34 33 32 34 36 38 41 43 46 49 49 50 52 53 54 55 58 59 60 64 65 67 71 74 76 75 74 79 83 79 79 75 72 71 72 70 66 61 53 47 42 40
46 51 46 50 52 56 41 36 36 38 42 45 46 49 51 51 53 57 58 59 60 61 61 64 65 66 68 71 73 74 77 79 79 82 83 82 82 79 78 77 75 71 68 63 54 46 44 42 40
49 48 55 61 78 66 48 46 41 44 51 54 54 56 54 58 60 60 62 64 65 66 67 67 68 70 73 73 73 78 79 81 83 86 87 85 82 83 82 77 75 69 61 52 46 45 44 41 39
52 54 53 54 58 69 64 52 40 45 51 55 59 58 63 62 63 63 67 69 72 73 68 67 69 70 72 73 76 79 81 83 86 86 86 85 87 83 80 75 69 61 53 48 46 43 42 42 40
47 50 56 63 65 64 70 56 45 49 54 57 62 65 65 67 67 70 73 74 74 75 70 69 69 70 73 75 76 77 80 83 88 90 90 89 87 81 77 72 66 58 53 48 44 40 37 37 36

GFSSGP_prec_cthk_006.txt.gz
RH
3 5 5 10 12 14 19 21 22 26 28 31 38 56 46 46 53 66 60 49 44 49 50 42 40 39 38 40 41 44 48 45 52 55 55 61 70 73 75 75 73 82 83 84 83 86 89 75 49
3 5 7 11 18 26 25 24 26 26 23 23 31 55 53 58 54 64 60 53 46 46 49 44 40 39 37 36 35 36 40 45 51 46 45 59 64 65 70 68 65 55 64 73 76 81 98 89 78
3 7 8 14 22 29 35 30 29 24 22 20 35 46 57 56 48 43 44 45 42 42 40 39 39 39 38 37 36 36 36 38 42 45 56 65 63 69 74 68 66 60 58 62 79 86 98 97 90
7 8 10 21 23 27 31 32 28 21 18 20 49 50 49 53 47 44 43 39 38 38 35 36 35 32 33 34 35 36 36 37 36 39 44 44 49 54 56 57 57 55 53 61 75 82 78 98 96
10 12 16 20 24 24 24 26 25 21 40 33 42 59 76 49 43 38 38 40 39 35 35 35 33 34 33 32 31 34 38 38 38 36 34 32 33 38 42 46 49 51 57 65 67 62 60 83 81
14 19 19 20 18 15 15 18 26 31 34 33 55 76 56 50 45 46 42 41 42 39 37 37 38 35 31 25 23 26 31 33 32 31 33 36 35 34 35 36 36 35 36 41 40 46 62 74 69
19 22 20 21 18 15 13 14 20 26 33 28 41 53 65 35 36 38 37 35 37 42 43 44 34 31 27 25 26 24 25 26 29 32 33 37 35 31 30 31 29 24 21 23 33 39 49 60 68
19 18 18 19 21 17 10 14 14 16 16 14 17 45 54 59 29 28 29 35 36 32 35 34 34 31 23 23 25 25 29 32 32 30 30 32 32 31 29 30 33 35 34 33 36 43 50 55 55
19 19 18 17 22 18 15 16 19 13 16 15 14 23 43 43 30 26 30 33 39 31 26 23 26 29 27 35 29 30 33 31 31 33 33 38 40 40 40 38 45 49 52 55 58 57 53 53 57
26 23 20 16 16 19 18 15 15 12 22 25 26 22 25 27 27 27 35 43 39 27 26 28 28 31 34 44 45 47 42 41 42 44 38 40 40 39 37 33 35 38 40 41 46 59 63 62 63
22 18 17 18 16 15 17 18 19 19 24 28 26 29 31 27 29 37 37 44 38 31 34 35 33 31 35 45 46 52 38 35 35 31 32 31 26 21 19 17 18 18 15 19 21 35 47 46 54
18 13 14 14 12 13 16 15 15 17 17 17 20 21 24 26 30 31 30 29 26 28 27 24 21 17 17 22 27 30 26 24 25 22 18 18 17 14 12 12 12 11 12 13 13 14 18 27 42
15 15 16 14 14 13 11 13 16 13 14 11 11 16 19 21 23 23 22 21 20 20 20 19 14 13 15 18 20 22 22 19 19 16 16 19 20 16 16 15 15 15 16 17 17 17 18 20 31
14 16 18 16 17 14 14 16 16 15 16 13 13 15 17 20 22 22 18 18 19 19 20 19 15 14 16 21 18 18 18 17 17 19 18 18 21 21 26 25 23 21 20 21 25 27 27 25 25
20 21 24 25 19 14 15 16 18 19 18 16 15 14 16 19 20 19 19 20 20 21 21 19 18 20 22 23 24 24 24 25 26 25 22 22 22 23 24 25 28 28 23 23 22 23 26 29 30
24 27 27 22 19 18 16 16 21 19 19 19 20 19 19 19 20 22 21 21 23 24 23 22 22 24 26 28 30 31 32 33 34 34 32 30 30 31 31 34 33 30 33 34 32 30 29 30 31
31 24 25 26 25 20 19 18 18 20 21 21 21 22 22 22 25 25 24 22 23 25 26 26 27 28 30 32 34 34 35 36 36 39 39 39 39 41 42 43 42 40 41 41 41 40 40 40 36
21 26 28 32 27 23 22 22 21 21 21 21 22 22 22 23 22 23 26 26 25 25 26 27 28 28 30 31 32 34 35 37 39 39 41 41 43 43 44 46 47 47 48 47 48 48 48 47 46
20 26 26 27 24 23 22 22 22 21 19 18 18 19 21 22 22 23 26 26 26 26 27 28 29 30 30 33 35 36 37 39 42 45 47 48 48 48 49 52 53 54 55 56 55 54 56 54 53
19 24 27 24 24 23 23 22 23 21 18 17 18 20 21 22 24 25 27 26 26 28 29 31 33 34 35 36 38 39 41 43 46 49 52 52 52 52 57 58 59 63 64 64 64 65 63 61 59
19 28 27 27 25 24 25 25 26 23 19 18 20 21 23 24 25 26 28 31 32 33 35 37 38 38 39 39 42 43 44 49 52 53 56 55 56 62 66 69 72 72 71 72 72 70 68 67 67
21 25 26 29 30 30 25 27 29 26 23 22 24 26 28 30 31 32 34 35 37 38 40 42 43 44 46 47 47 51 51 52 56 59 61 64 66 70 73 76 77 80 78 80 82 80 77 74 69
24 26 29 28 31 30 29 25 30 30 30 30 27 29 31 33 33 36 38 39 40 42 44 46 48 50 53 55 54 54 59 59 63 67 69 71 73 75 75 79 85 88 88 83 82 74 69 71 72
28 29 28 32 33 42 37 36 26 34 37 33 32 33 35 36 38 41 43 44 45 47 47 51 53 54 56 58 60 59 58 63 66 68 69 71 73 76 81 83 86 83 80 81 72 70 69 68 68
33 34 42 45 50 50 43 38 33 31 38 36 37 40 41 42 44 45 47 49 51 51 54 56 57 57 59 61 64 65 64 64 67 70 71 73 74 78 79 79 84 83 82 74 73 73 70 67 64
38 41 54 60 50 46 34 37 33 38 42 43 45 48 50 52 55 54 56 60 60 58 60 64 66 66 65 67 68 69 68 68 69 73 78 78 80 81 83 87 86 81 82 85 79 74 69 65 60
41 48 47 52 53 63 49 46 40 45 48 51 56 57 60 59 60 60 62 65 65 65 67 71 69 68 67 70 73 74 72 71 72 77 80 83 82 85 89 92 88 92 83 79 75 70 64 60 55
46 48 55 64 79 69 50 52 45 50 51 51 56 62 59 62 62 66 66 68 70 71 70 69 68 68 70 72 72 72 72 74 77 81 84 85 90 95 95 94 92 85 80 77 73 68 60 54 49
50 51 58 60 68 77 76 57 48 48 48 54 57 62 64 68 69 70 71 74 71 70 69 68 67 67 67 67 70 70 70 75 79 84 87 95 96 96 97 94 84 82 80 74 67 59 54 48 41
50 55 59 79 76 74 73 60 49 55 59 62 64 65 65 67 69 70 72 73 70 71 70 70 70 68 65 68 67 65 70 76 79 81 91 94 96 96 91 86 86 82 76 67 58 49 44 41 38

GFSSGP_prec_cthk_012.txt.gz
RH
3 4 4 9 11 18 20 25 29 27 40 46 43 41 46 47 50 56 57 62 54 51 47 45 45 44 45 45 46 46 45 46 47 48 46 50 53 54 60 65 64 63 59 59 58 60 57 76 79
3 4 7 16 26 28 26 24 27 34 43 43 44 47 44 55 50 46 48 55 53 53 48 43 41 40 42 41 40 38 38 41 41 36 39 45 50 58 63 65 66 61 58 56 60 56 54 61 61
4 8 12 24 30 31 28 26 29 36 35 37 44 46 48 54 46 40 47 46 46 44 45 41 39 37 34 33 34 34 33 33 33 29 32 36 44 55 57 57 59 59 53 56 55 52 53 56 56
11 16 18 22 28 26 28 28 30 32 39 42 44 47 47 46 40 38 38 40 41 39 37 32 31 31 32 33 34 34 30 27 23 21 20 30 39 47 51 55 52 50 49 47 52 52 53 54 49
15 19 23 21 23 24 30 32 37 40 42 42 45 49 42 42 38 36 42 37 34 32 34 34 33 32 31 31 31 30 26 23 21 22 20 21 24 30 36 38 36 36 35 34 37 41 40 46 44
20 19 21 20 19 21 24 19 23 30 33 34 34 35 38 39 39 42 41 39 37 36 33 33 35 33 30 28 24 21 18 17 19 21 21 24 26 27 29 28 28 28 28 25 24 25 24 25 27
19 20 21 19 19 21 14 16 18 18 20 25 21 23 32 44 45 44 39 36 32 29 29 30 30 29 26 20 19 19 20 20 20 20 21 21 22 22 23 23 25 27 29 30 32 33 35 36 39
17 17 16 17 17 15 12 11 14 16 15 17 18 21 23 31 38 42 35 31 31 28 29 31 27 24 25 24 26 29 29 30 33 28 22 25 26 29 30 30 28 28 29 31 35 39 45 53 55
15 16 18 18 16 15 13 14 14 12 12 14 18 20 24 28 34 37 37 36 37 34 38 32 29 31 33 31 28 28 30 33 37 27 22 21 22 24 23 21 18 17 21 23 23 23 21 27 36
17 17 18 17 14 11 10 11 9 11 12 18 19 20 22 24 25 23 28 31 36 40 37 32 23 20 19 19 19 18 17 19 20 18 16 15 17 17 15 14 11 11 14 16 17 17 17 19 29
15 18 17 14 11 9 9 10 11 11 14 18 19 19 19 18 18 19 26 32 34 34 30 26 20 16 15 16 17 18 17 17 17 17 17 17 16 16 17 15 13 14 16 17 15 19 18 18 22
9 9 8 7 6 6 8 8 10 12 11 13 14 15 18 18 20 22 23 30 31 27 24 23 18 17 18 17 19 20 22 23 23 25 26 27 25 24 20 19 19 19 19 18 19 21 20 20 21
11 14 16 17 16 14 12 14 14 16 15 14 14 18 17 16 19 24 25 25 23 22 22 20 20 21 19 21 22 26 27 29 29 29 29 29 28 29 29 28 27 27 26 26 27 27 28 28 28
19 18 18 18 18 18 17 16 19 18 18 18 19 21 22 21 20 20 21 22 22 22 20 19 19 22 22 23 27 31 32 32 33 34 35 33 32 33 34 34 34 34 33 32 32 30 31 31 31
22 23 21 21 21 19 19 18 18 18 19 20 20 21 22 22 23 24 23 24 24 25 24 24 24 24 24 24 26 30 32 32 32 32 33 33 33 34 35 36 38 39 40 41 40 40 39 39 39
24 22 22 23 21 21 19 20 19 18 17 17 19 19 22 22 21 22 23 25 26 26 27 27 27 27 27 28 30 32 34 35 36 37 37 38 38 38 38 39 42 42 42 43 43 44 45 45 46
20 20 21 22 22 23 21 21 19 18 18 18 18 18 19 19 19 19 21 23 24 26 28 31 32 32 33 34 35 36 38 40 41 42 43 43 43 45 44 44 46 48 48 48 48 50 50 51 52
19 19 20 23 23 22 20 20 19 19 19 17 17 17 18 19 20 22 24 26 28 30 32 33 34 35 37 39 40 41 42 44 45 46 47 48 49 52 53 52 52 54 54 55 55 56 56 57 57
18 19 23 24 23 22 23 23 21 20 21 20 18 16 19 21 22 24 26 28 31 33 35 37 40 42 43 44 45 46 48 48 48 50 50 51 53 56 57 58 58 58 58 58 59 60 61 62 63
21 21 24 22 23 25 24 23 21 20 22 23 24 24 27 29 29 28 30 36 38 39 41 44 48 49 51 50 50 51 51 51 51 53 54 55 57 59 61 63 63 63 62 62 62 63 63 64 67
23 22 24 26 26 28 27 24 22 23 25 27 28 29 30 32 35 35 35 37 40 42 44 47 49 53 55 53 51 50 51 51 51 53 54 57 58 60 62 64 65 66 65 65 67 67 67 66 68
24 23 25 28 31 37 31 39 29 28 28 30 31 31 34 37 37 38 38 40 42 43 44 47 51 55 56 54 53 53 52 53 53 54 57 60 62 62 63 65 66 67 69 73 74 73 70 67 68
26 25 27 28 35 36 37 39 38 36 36 38 40 42 41 39 39 41 45 48 49 50 51 54 57 59 59 57 56 54 52 53 55 57 60 62 65 66 66 66 68 69 72 74 74 75 76 75 76
28 28 30 34 39 49 40 39 43 41 41 42 44 44 46 48 52 54 56 57 55 56 57 59 60 64 65 65 63 61 58 57 58 61 63 65 66 66 68 69 70 72 73 78 82 84 84 85 88
32 36 48 46 55 54 45 43 41 42 45 49 53 55 57 57 60 62 64 62 64 64 66 67 70 75 77 78 75 69 65 63 63 66 67 70 74 75 77 74 74 78 79 79 88 89 92 96 93
41 43 56 58 63 56 43 46 43 43 46 52 55 60 61 61 62 67 63 64 68 71 71 74 78 78 76 74 72 68 64 63 65 65 65 65 74 77 76 78 83 78 84 93 95 94 98 98 96
45 49 47 53 59 67 54 46 40 45 49 56 58 63 59 59 61 62 63 69 73 72 75 76 74 71 71 66 61 60 61 62 63 62 62 65 69 71 76 82 84 90 98 99 98 95 91 91 89
48 47 59 68 74 78 66 59 54 50 54 53 57 58 55 58 63 66 67 71 72 71 71 71 75 70 64 62 62 59 58 61 64 63 61 62 67 73 78 85 94 98 97 96 94 91 88 86 82
53 57 61 66 76 86 88 69 52 52 60 65 62 61 60 63 66 67 69 71 71 71 71 69 65 63 60 59 59 58 59 58 57 58 62 67 72 76 86 92 93 92 89 89 88 87 85 81 75
55 57 62 80 77 79 84 64 51 60 64 66 66 68 71 70 71 69 71 70 70 66 63 61 59 60 59 56 55 54 54 56 59 64 68 73 77 84 86 87 88 83 80 81 78 74 69 61 54

GFSSGP_prec_cthk_015.txt.gz
RH
3 4 5 10 13 14 17 23 26 35 49 50 49 48 48 50 50 52 50 53 53 46 42 45 48 49 48 47 51 51 50 52 54 51 53 51 48 47 47 50 55 60 59 63 59 58 52 56 56
3 4 10 14 18 19 18 22 31 43 48 49 50 51 50 52 45 45 49 54 51 44 39 41 41 44 43 39 42 42 43 45 44 43 47 50 52 50 49 59 61 63 60 61 61 56 54 54 60
5 11 14 20 23 21 22 24 37 39 42 45 51 51 48 49 47 44 47 49 47 44 44 41 39 39 37 34 35 34 33 34 35 32 32 33 37 44 55 60 61 64 62 61 62 57 52 51 51
12 13 18 22 23 25 31 30 37 41 45 47 49 51 50 46 40 36 37 38 37 38 39 35 33 31 30 32 30 30 29 28 28 25 22 23 27 33 42 52 58 61 56 55 50 49 49 49 53
13 14 17 22 23 28 33 35 35 37 41 40 38 41 48 45 28 29 35 38 41 36 32 32 31 30 28 28 28 28 25 22 20 17 16 18 21 22 27 36 41 41 40 40 39 37 40 41 42
14 16 20 20 20 19 19 21 25 28 30 30 28 27 31 32 32 39 39 36 36 34 32 31 28 26 24 21 18 17 18 19 21 20 20 19 20 22 25 27 27 27 28 28 26 24 22 20 21
15 17 20 20 18 18 17 15 15 17 19 20 21 25 27 32 37 40 40 30 24 25 24 21 21 21 19 17 20 24 24 25 27 28 27 24 25 27 28 28 28 29 30 30 31 31 34 33 35
16 16 17 17 14 14 13 13 14 15 18 17 18 21 31 27 29 33 35 36 30 26 27 25 22 21 24 28 27 26 25 28 34 34 25 23 21 23 29 31 28 27 26 25 26 29 29 29 28
15 17 16 15 15 15 13 12 11 11 12 12 15 16 18 24 26 28 29 28 28 28 30 29 26 24 20 18 18 20 20 23 25 22 19 18 18 20 20 19 17 14 14 17 18 20 18 17 21
13 15 15 13 12 10 10 10 10 11 15 16 15 16 19 23 22 22 21 21 22 26 28 29 24 19 16 18 16 19 19 20 20 19 18 18 18 20 18 16 14 12 14 16 16 17 17 16 16
14 15 15 13 10 10 11 11 10 10 13 14 13 15 17 19 22 23 22 22 23 27 31 30 25 20 17 18 18 19 21 21 22 22 23 23 23 22 21 20 19 18 17 18 19 18 19 19 18
10 11 11 12 12 9 11 10 10 12 10 9 14 15 17 19 16 18 22 24 28 29 32 26 26 22 20 20 22 24 27 28 30 28 28 29 29 28 26 26 26 26 25 25 24 24 25 26 26
12 13 16 18 18 17 16 16 15 16 15 15 18 20 21 21 20 23 24 24 26 28 27 25 22 21 21 22 22 23 28 31 33 33 33 33 33 31 31 32 31 31 31 31 31 30 30 31 30
16 16 19 21 21 19 18 17 18 16 17 17 19 20 21 22 23 26 27 26 27 29 29 30 28 28 27 27 26 27 31 36 37 39 40 40 40 37 35 35 34 35 35 36 36 36 35 35 34
21 20 21 22 21 20 18 18 18 19 18 16 17 20 22 22 23 24 24 25 27 30 31 31 30 30 29 31 33 34 36 38 39 41 42 42 41 40 40 41 41 41 42 42 41 41 40 40 40
21 21 21 20 21 21 19 20 19 19 18 17 16 19 21 21 21 22 23 25 27 30 32 33 35 37 38 38 38 39 39 40 41 43 43 43 43 43 43 42 43 44 45 45 45 45 45 45 45
19 20 21 22 22 23 21 19 17 18 18 18 17 18 19 22 22 24 26 29 31 34 36 38 39 41 41 40 41 42 43 43 44 45 46 47 47 46 46 47 48 48 49 50 50 50 50 51 51
20 18 19 23 23 23 21 20 20 20 19 19 19 19 20 24 27 27 28 30 34 38 41 43 45 47 47 46 46 47 47 46 46 47 47 47 48 49 50 52 52 52 52 54 54 54 55 56 56
19 21 22 23 21 23 24 24 21 20 21 23 22 22 23 27 30 29 30 32 35 41 44 46 46 49 51 52 52 51 48 48 48 48 48 49 50 51 52 53 55 56 56 56 58 59 59 59 59
22 23 22 21 24 26 26 25 22 22 23 24 24 26 27 28 31 32 33 36 40 44 47 47 48 53 57 58 55 54 55 53 52 51 50 51 52 54 56 58 60 61 60 59 59 59 59 61 62
23 23 24 27 28 29 28 27 26 25 26 27 29 30 32 35 36 38 40 41 45 47 50 53 57 57 58 59 60 61 60 56 54 52 51 52 53 54 56 58 60 61 62 61 61 61 58 59 61
26 24 26 28 32 35 30 38 31 28 31 32 33 34 36 37 37 38 41 45 48 51 56 60 61 59 60 61 62 61 60 58 59 57 56 55 57 58 59 60 62 63 65 67 68 66 66 67 67
28 26 29 30 36 36 36 39 37 35 35 37 39 42 41 41 42 44 45 46 50 57 63 62 64 65 63 60 61 62 60 59 57 53 52 53 55 59 62 64 65 64 71 73 76 74 72 76 76
29 30 33 36 39 46 39 40 41 40 40 42 46 48 48 48 51 56 58 61 62 63 65 65 67 67 64 63 65 64 60 57 52 53 52 53 55 58 62 68 70 72 71 73 83 79 79 84 80
34 36 46 44 55 51 42 42 43 42 48 50 53 56 58 59 60 61 61 64 66 67 69 67 66 64 64 61 62 65 65 62 61 59 59 58 57 57 58 63 67 70 75 79 82 81 92 87 90
39 40 53 49 61 55 43 46 45 46 52 56 60 60 56 56 58 61 65 65 66 68 66 66 65 65 64 63 62 61 63 62 59 58 57 57 55 55 54 56 63 70 79 79 90 94 92 96 99
42 47 46 55 60 67 54 48 45 47 53 56 54 53 54 57 62 64 66 66 66 66 65 64 62 61 59 56 56 56 56 56 54 53 52 50 49 50 54 61 65 71 75 82 91 94 91 94 94
44 47 57 64 71 70 62 54 49 47 52 48 47 50 53 56 60 64 65 68 68 66 64 64 64 63 62 62 61 57 51 47 46 47 47 48 52 56 61 67 75 81 87 90 93 92 90 90 90
52 56 58 60 70 78 81 61 49 50 53 53 56 60 61 63 66 68 70 71 70 69 69 66 65 64 64 62 58 56 47 44 42 45 49 55 59 65 69 73 79 83 81 82 85 84 81 77 76
50 56 58 72 72 74 76 59 50 56 57 61 64 64 63 63 68 72 73 75 76 73 74 70 67 64 61 59 57 55 51 43 42 44 50 58 65 73 81 79 74 77 79 83 81 77 76 71 64

GFSSGP_prec_cthk_018.txt.gz
RH
3 4 6 9 11 14 20 27 33 42 46 46 44 44 47 52 50 48 51 56 52 47 47 48 51 55 55 53 54 55 54 48 53 55 55 54 49 50 51 46 46 51 58 61 64 59 60 63 59
3 7 11 12 15 18 22 28 31 38 43 43 44 46 47 47 47 45 47 54 52 46 42 43 46 45 45 44 43 43 44 45 43 44 48 49 48 50 50 46 47 61 64 69 63 60 59 63 67
8 11 13 16 19 19 20 28 39 43 44 46 47 47 48 49 46 46 48 48 44 42 41 42 41 40 37 36 35 34 33 37 37 35 33 39 44 44 48 52 60 76 69 64 67 63 61 60 56
13 13 15 20 22 22 24 34 41 42 43 46 49 48 48 46 42 45 44 35 37 40 38 37 35 33 33 32 31 31 29 27 27 26 24 26 29 31 37 42 50 52 59 61 56 55 54 53 51
12 15 19 25 25 27 32 35 36 37 37 38 37 38 34 29 30 31 31 33 37 37 35 35 34 32 31 32 26 21 18 17 18 19 19 18 18 20 23 26 31 34 32 33 35 35 37 39 41
14 16 20 20 20 23 27 28 26 28 28 30 31 28 29 25 29 30 34 35 32 32 32 31 31 25 21 17 16 20 22 26 27 27 27 24 23 23 23 23 24 26 27 26 26 26 26 26 27
15 16 17 18 19 19 15 15 18 19 21 23 21 26 26 29 35 34 34 35 31 25 20 21 22 20 19 22 24 24 21 22 28 33 32 27 26 27 27 28 29 29 29 28 28 28 30 32 33
16 17 18 18 18 16 13 13 13 14 16 18 17 24 26 25 28 28 31 29 28 24 25 26 24 24 24 20 14 13 14 17 22 24 19 18 18 19 20 21 22 22 21 20 19 20 23 27 25
18 19 18 16 15 13 12 11 10 11 14 12 16 16 17 20 22 25 26 25 21 22 26 25 23 19 14 12 12 12 13 14 17 19 18 17 17 18 20 19 18 13 11 11 15 15 18 16 14
16 16 14 12 10 10 9 9 9 11 12 13 13 13 15 17 20 21 21 20 17 23 25 23 19 19 16 15 15 14 15 16 18 19 22 23 23 24 26 23 19 17 15 15 16 16 15 15 16
12 14 12 9 9 10 11 11 10 12 12 12 12 13 17 19 20 20 20 20 20 20 21 23 22 20 18 18 18 17 18 22 25 27 27 28 28 28 27 26 26 25 24 23 22 21 19 19 19
12 13 13 13 11 11 13 13 13 14 11 11 14 15 17 19 21 20 18 17 20 22 27 30 25 23 22 22 23 22 22 25 29 32 32 33 33 34 34 32 31 30 29 28 28 27 27 26 25
13 15 17 19 17 17 16 16 16 17 16 15 18 20 20 21 21 24 25 26 29 29 31 31 28 27 25 25 26 27 28 31 35 37 38 39 40 41 41 39 38 37 36 35 35 33 32 31 30
14 15 19 21 21 20 17 17 17 17 19 18 18 20 21 22 22 23 26 26 28 30 32 32 31 30 32 34 34 35 35 37 38 40 42 44 45 45 45 43 41 41 41 41 41 41 40 38 36
19 18 17 19 21 21 19 19 19 18 20 18 16 19 21 21 21 21 23 25 27 30 36 36 36 37 39 41 39 38 38 38 39 40 42 43 44 44 44 44 44 43 42 43 44 44 44 43 42
19 19 20 20 22 22 20 21 19 17 18 19 18 19 21 22 23 24 27 30 34 36 40 42 42 43 45 45 44 44 43 42 42 42 43 44 44 45 45 45 45 46 47 47 48 47 48 48 47
18 18 18 21 23 23 23 22 18 20 20 20 19 19 22 26 26 27 28 31 34 37 42 46 45 46 46 47 47 47 47 45 46 45 45 46 46 46 47 47 47 48 49 49 49 50 51 51 51
19 19 19 20 21 22 22 23 22 19 22 22 22 21 23 28 32 31 30 32 35 39 42 46 48 49 50 51 52 52 51 51 51 51 50 49 48 48 48 48 49 50 51 51 51 51 52 54 55
19 22 22 20 20 22 25 26 22 21 23 24 24 25 26 26 29 30 30 31 34 38 44 49 51 52 52 58 60 59 57 57 57 55 52 51 52 52 51 50 50 52 55 56 56 56 56 56 57
21 22 22 22 23 25 27 27 23 23 25 25 27 27 28 29 29 30 30 33 37 43 49 54 56 60 64 65 65 62 62 62 59 58 58 57 54 53 53 54 54 55 56 58 58 58 58 59 60
24 23 24 26 25 28 29 28 26 25 26 28 29 30 30 30 32 34 37 41 46 50 55 59 62 65 65 63 62 63 63 61 61 64 62 58 56 55 55 55 57 59 59 57 59 61 60 60 61
27 24 25 27 29 34 31 35 32 31 31 33 33 33 34 35 36 41 45 47 51 54 56 59 60 61 61 60 62 61 59 59 60 60 61 60 58 55 54 53 55 58 60 60 62 63 65 66 65
28 27 28 29 32 35 36 36 35 34 34 36 37 38 39 40 42 47 50 53 55 59 61 61 60 59 62 62 60 60 59 60 58 57 55 53 52 53 52 52 54 56 59 60 64 65 68 69 72
29 30 31 36 39 44 41 41 40 38 40 42 43 44 47 48 49 53 58 61 61 62 63 63 62 62 63 64 64 66 67 63 58 57 54 53 50 49 50 50 51 53 56 59 64 67 69 72 74
34 35 40 43 51 50 42 41 42 41 45 48 48 49 51 54 57 58 60 62 64 65 67 68 68 71 73 72 72 70 66 63 60 58 53 51 48 43 41 38 37 40 45 52 58 64 70 73 79
41 42 51 43 59 56 44 44 45 46 51 52 51 52 54 56 57 59 62 63 67 70 71 72 72 74 72 67 63 61 61 61 59 53 47 45 46 44 39 35 33 38 45 53 62 71 76 83 89
45 50 47 56 58 63 52 44 47 48 52 51 50 53 56 56 58 61 64 67 69 69 70 70 70 69 70 69 68 68 65 60 55 54 51 48 47 48 45 48 47 47 53 59 69 77 87 87 90
47 48 54 59 64 62 54 49 46 50 53 53 55 56 57 59 62 62 63 63 65 68 69 70 70 68 65 61 59 58 57 59 60 57 53 49 56 58 60 63 68 65 70 71 76 84 85 86 86
51 53 56 57 65 73 75 58 49 50 50 53 55 57 58 59 60 60 62 65 67 69 71 71 69 66 62 56 50 51 52 51 50 47 45 47 51 55 62 72 72 74 80 72 72 77 80 81 86
49 53 56 63 61 70 74 59 47 54 55 55 54 56 59 61 62 64 66 66 68 68 67 63 60 58 56 53 58 62 62 54 47 43 46 50 51 55 65 74 81 84 83 83 86 87 89 86 81

GFSSGP_prec_cthk_021.txt.gz
RH
4 5 6 9 11 21 23 30 34 46 46 46 46 42 43 48 46 46 53 55 49 48 48 48 50 52 55 53 56 56 54 51 52 48 45 46 47 46 50 52 58 55 53 56 63 69 70 66 61
4 6 9 9 15 23 30 29 31 40 42 44 44 44 43 45 48 51 53 52 46 44 40 40 43 44 46 47 44 43 41 43 45 45 44 44 44 43 44 46 51 53 57 70 69 67 63 62 61
9 10 10 14 18 21 30 30 39 42 42 43 44 45 44 43 42 45 48 48 44 38 34 38 40 41 39 35 33 33 31 34 33 31 26 26 31 36 42 49 58 63 66 66 68 70 65 57 55
11 11 14 18 22 23 28 37 38 41 44 43 42 41 41 35 33 35 44 41 38 35 35 35 36 33 32 30 29 28 25 24 22 19 18 19 23 24 30 34 38 43 48 48 47 50 47 44 46
12 14 20 24 27 30 34 36 38 35 35 36 33 32 29 25 26 29 30 31 34 29 30 33 31 32 29 26 23 20 18 19 21 22 22 23 23 22 23 26 27 27 27 27 28 29 29 29 33
16 18 22 26 26 26 30 32 32 29 28 26 24 23 27 24 28 30 31 31 30 29 25 23 23 24 23 18 19 22 23 20 21 25 29 30 28 27 28 27 27 26 27 26 26 26 27 26 26
15 16 18 19 19 20 19 19 24 24 24 25 22 24 26 29 30 27 28 29 28 27 26 22 21 20 21 22 21 15 12 13 18 23 24 18 19 18 20 23 25 26 28 28 26 25 25 27 28
17 18 18 18 18 17 13 14 14 14 17 17 18 21 25 23 24 23 27 26 25 25 23 21 21 21 20 14 12 10 10 14 19 20 17 15 16 16 17 19 20 20 18 14 12 15 19 22 27
20 18 16 16 16 13 12 10 10 12 15 13 15 15 15 19 20 22 23 24 23 22 23 23 20 18 15 13 13 12 12 13 14 17 17 19 19 20 23 23 21 18 14 13 14 15 16 18 16
18 17 16 13 10 10 11 10 10 12 13 14 13 13 13 15 18 20 23 22 19 23 25 22 19 17 16 17 18 17 17 19 21 23 24 25 25 25 26 27 26 25 24 22 21 20 19 18 17
15 15 11 9 9 10 11 11 11 11 11 12 12 13 16 17 18 22 21 20 22 24 23 23 23 22 22 24 24 24 21 22 25 27 28 30 30 31 32 33 32 32 31 31 30 30 28 25 24
11 11 12 11 10 11 13 12 13 13 11 13 15 16 19 21 23 20 20 20 21 22 24 28 30 28 27 26 28 30 31 30 32 34 37 37 38 38 39 39 39 38 38 37 36 35 35 34 33
13 16 16 16 15 15 15 15 16 16 17 16 18 20 22 22 23 25 25 25 27 27 30 33 32 29 31 33 33 33 34 36 37 38 39 40 41 42 43 43 43 42 41 41 41 41 41 40 40
13 15 17 19 19 18 16 16 17 17 19 19 18 21 22 22 21 24 25 24 25 28 30 35 37 34 35 36 35 37 38 40 40 40 41 41 42 42 42 42 43 43 43 43 43 43 43 44 44
17 17 17 19 20 21 19 19 19 18 18 21 19 21 22 23 23 22 24 26 28 32 36 40 44 40 39 40 41 42 43 43 42 41 42 42 42 42 42 42 43 43 43 43 44 44 45 45 45
18 18 18 20 22 22 21 21 20 20 19 18 20 20 22 23 25 26 27 29 32 35 38 43 46 45 46 46 46 48 49 48 46 45 46 46 46 46 44 44 44 45 45 45 46 47 47 47 48
17 16 17 19 22 22 22 21 21 19 20 21 20 20 20 25 27 28 29 32 36 40 42 45 50 49 48 50 50 51 55 54 54 53 54 52 50 50 49 49 48 48 48 48 49 49 49 49 50
19 19 20 20 19 21 22 23 21 20 21 22 21 20 22 23 28 33 34 34 36 40 42 46 49 48 49 50 52 57 57 57 58 58 59 57 55 55 51 50 49 49 49 50 50 51 51 51 51
19 21 22 20 21 22 24 24 22 23 24 24 25 23 24 25 28 32 33 33 34 36 40 46 51 52 52 55 58 60 60 60 60 60 58 61 61 60 59 54 50 48 49 52 52 52 53 53 56
21 22 21 23 23 24 27 24 24 24 27 28 29 29 28 28 30 31 33 35 38 43 48 53 54 56 61 61 60 61 60 59 60 60 59 59 58 56 53 52 50 49 49 49 50 54 53 55 58
24 22 23 24 25 26 27 27 27 27 28 30 31 31 32 33 35 36 39 41 46 49 54 58 61 64 63 60 58 59 60 59 59 60 62 61 58 59 58 57 56 55 54 52 53 54 57 57 59
26 24 26 27 28 28 30 29 30 31 31 33 34 34 35 37 39 41 44 48 52 54 57 58 59 59 61 61 61 62 62 62 62 62 62 59 60 58 58 57 54 51 51 49 52 55 54 59 61
28 29 29 29 30 31 34 30 34 34 36 37 37 39 41 44 45 47 50 52 54 56 58 59 61 64 66 66 67 66 66 67 67 66 60 57 56 55 52 50 48 44 43 43 45 48 48 52 57
32 32 32 34 36 37 37 36 39 38 40 42 42 45 47 48 52 53 54 57 58 59 61 64 66 68 67 68 69 71 76 76 69 68 64 61 58 52 50 48 44 42 42 41 41 43 47 49 56
35 34 36 38 42 41 40 38 43 44 44 46 49 51 52 53 56 61 61 62 62 65 67 68 68 71 77 76 79 80 74 70 65 61 55 52 48 45 43 42 41 40 36 36 38 45 49 54 59
41 40 45 41 46 45 44 45 45 47 48 51 52 53 55 56 59 62 62 63 64 65 65 65 69 69 72 72 68 66 65 62 58 56 56 54 51 47 45 46 44 43 45 47 46 51 59 60 67
44 48 46 52 56 54 44 47 48 50 49 51 53 54 56 58 58 59 58 60 63 65 66 68 69 67 65 61 60 57 54 55 57 59 57 51 45 41 41 44 45 49 54 57 58 62 68 75 77
44 46 49 52 57 54 43 45 43 48 52 54 56 56 55 55 55 56 59 62 66 68 68 66 65 63 60 58 57 59 62 64 63 58 51 46 43 44 46 53 56 57 64 69 73 72 71 76 82
47 50 54 54 61 66 67 43 44 48 51 53 56 56 55 56 60 62 62 63 64 66 65 61 60 59 60 62 63 64 63 57 45 35 34 33 39 45 50 59 65 70 78 85 88 85 89 91 94
46 50 51 54 56 61 63 48 41 48 52 54 56 55 56 58 57 57 58 57 58 59 58 57 57 58 63 61 59 57 51 46 37 39 36 43 53 56 63 71 81 86 91 95 97 96 95 94 91

GFSSGP_prec_cthk_024.txt.gz
RH
6 6 8 9 13 20 27 32 36 38 37 39 37 35 37 39 41 52 53 51 53 59 59 53 51 52 52 52 55 51 50 47 46 49 52 51 48 51 52 52 54 51 50 50 56 63 70 69 68
5 6 8 9 20 28 30 30 39 36 36 37 36 36 37 42 45 51 53 48 51 50 48 43 42 42 41 42 42 40 39 42 43 46 46 45 43 41 46 43 44 47 52 54 61 67 65 68 65
6 8 9 14 22 27 29 29 34 36 36 39 37 38 38 40 44 46 45 41 40 40 38 35 38 38 36 33 30 30 30 29 28 30 29 28 28 32 38 39 48 49 51 54 58 56 58 66 61
9 11 13 18 21 24 28 35 37 36 38 37 36 35 36 38 35 39 38 39 37 33 35 30 29 28 27 29 26 25 23 21 20 18 19 19 20 23 25 29 33 36 41 45 50 57 44 40 39
11 14 18 22 25 26 35 36 38 36 35 33 30 29 28 31 33 34 36 35 33 31 29 27 26 27 26 24 22 20 19 21 21 21 24 26 28 27 27 26 24 23 25 26 28 29 29 30 32
15 19 26 28 28 29 32 32 29 29 27 24 25 24 29 28 32 34 34 33 31 29 27 26 24 21 18 18 18 19 17 13 14 17 21 24 22 18 18 20 22 24 25 26 27 27 28 27 26
20 23 26 26 25 24 23 21 25 25 25 24 21 23 27 31 33 32 30 28 28 28 28 24 18 16 16 17 15 10 10 11 15 19 22 17 16 16 17 20 23 25 26 27 27 26 25 26 27
18 18 19 19 19 18 14 15 17 16 17 17 19 22 23 30 29 27 29 29 27 25 26 22 20 18 16 13 12 10 10 13 16 19 18 17 17 18 20 22 22 22 21 16 13 15 17 19 22
18 17 17 16 16 12 11 11 10 12 16 14 16 20 21 23 24 24 25 25 25 26 21 22 23 19 16 15 15 14 14 16 18 19 21 23 30 29 30 29 29 28 25 23 20 17 16 15 15
17 18 17 13 12 10 10 11 10 13 13 15 17 15 16 19 21 26 26 26 23 24 23 21 18 18 17 17 20 21 20 25 25 27 26 33 30 31 32 31 31 31 30 29 30 29 29 27 26
16 16 12 9 9 10 9 9 9 12 13 14 15 16 19 21 26 26 27 27 24 29 27 24 23 21 22 30 30 31 31 32 34 31 34 36 36 40 42 43 42 43 38 39 37 35 36 33 32
14 11 7 7 9 11 11 11 11 11 12 12 15 18 22 23 22 25 28 28 29 27 26 28 28 27 28 32 35 38 39 40 41 43 39 44 48 50 49 52 51 49 48 45 45 45 40 39 39
12 12 14 14 14 15 15 15 16 16 16 16 18 21 25 25 30 30 32 30 30 31 32 34 35 33 34 36 36 37 40 45 46 47 46 42 47 48 47 48 47 47 47 48 49 49 48 47 43
13 16 18 19 19 18 17 16 17 18 18 19 19 21 24 25 26 28 29 31 30 32 37 39 41 42 39 40 40 41 43 48 48 50 50 45 44 49 48 48 48 47 47 47 48 49 47 47 46
16 16 18 19 19 21 19 17 17 18 17 17 20 22 26 25 25 25 27 30 37 39 41 44 46 47 43 44 44 46 49 49 54 54 48 48 48 47 46 50 49 49 48 46 46 46 45 45 47
18 18 18 19 20 21 20 23 20 20 20 19 19 20 24 25 26 29 32 36 38 39 41 44 47 50 47 47 49 50 53 51 53 51 52 53 55 53 52 54 52 50 49 49 49 49 48 47 46
15 15 15 17 19 20 20 21 21 20 20 21 21 21 22 25 29 34 34 37 39 41 44 46 48 52 49 47 50 51 53 55 58 57 59 58 57 58 57 56 56 55 52 49 48 48 48 48 49
16 17 17 17 17 19 21 21 20 21 21 22 23 22 22 25 33 38 38 38 39 42 44 46 51 54 52 53 54 55 60 60 59 60 60 59 54 54 53 52 51 53 54 54 53 52 51 51 49
15 17 19 19 19 21 22 21 22 24 25 25 24 24 26 29 31 35 37 38 38 38 40 47 54 55 56 60 61 65 65 62 60 60 59 56 56 56 56 55 54 55 58 59 59 59 60 58 58
19 20 21 21 22 23 24 23 23 25 26 27 28 30 31 32 34 34 37 37 38 41 44 49 54 58 60 62 65 65 64 64 63 63 65 65 62 62 62 61 59 60 59 59 60 59 57 59 61
22 22 24 24 23 23 24 26 25 26 28 30 31 32 33 35 36 37 39 41 44 46 51 55 59 61 63 63 64 65 67 67 67 68 68 69 70 69 65 60 57 55 54 54 54 54 56 57 56
23 23 26 25 25 24 25 32 28 29 31 33 36 37 38 38 39 42 44 47 50 52 55 58 60 60 59 62 64 65 66 68 68 68 72 77 75 68 65 59 55 50 50 51 48 49 49 53 50
30 29 28 27 28 26 27 28 35 32 36 38 39 40 41 43 46 48 50 53 55 55 57 58 60 60 62 62 64 64 72 82 78 73 72 72 69 64 60 56 47 45 46 45 46 47 49 49 49
31 30 30 32 33 35 34 33 35 35 39 41 41 43 44 47 51 53 54 56 59 62 64 62 64 65 64 63 63 68 67 66 63 62 60 55 52 49 50 51 48 46 44 43 42 41 41 43 44
32 33 35 41 43 39 37 36 39 40 42 43 43 46 50 53 55 59 61 62 63 63 64 64 66 67 66 68 69 63 61 59 57 55 52 50 49 50 49 44 41 40 36 35 33 35 39 44 48
38 37 42 43 39 40 38 37 40 43 43 44 45 50 53 57 59 58 57 58 60 60 61 66 67 67 70 69 64 59 54 54 54 54 54 51 45 42 40 37 36 37 39 42 44 46 50 54 57
43 44 43 47 48 47 36 40 44 44 46 48 51 55 58 59 59 56 56 59 60 61 61 59 57 56 56 55 54 52 54 56 58 55 50 44 40 40 42 44 49 52 53 53 55 58 62 65 70
39 40 47 46 59 44 33 40 40 43 47 50 54 58 60 59 56 56 57 56 55 55 55 55 55 57 59 60 60 58 60 58 54 47 42 38 34 36 41 49 52 55 58 66 70 75 81 82 82
39 43 44 44 49 55 49 34 42 43 47 51 54 57 59 61 60 58 57 57 58 59 60 58 59 62 63 65 60 52 47 45 44 41 38 40 43 45 50 56 61 67 73 78 84 88 90 96 97
44 47 46 51 53 53 52 40 38 44 51 52 56 59 61 61 60 62 62 63 63 64 63 65 65 61 55 49 49 41 45 44 42 42 47 49 50 52 55 64 71 78 83 87 91 94 93 92 91

GFSSGP_prec_cthk_027.txt.gz
RH
9 9 11 10 14 19 40 48 44 42 39 40 33 42 45 53 55 70 68 49 54 57 53 52 49 47 48 48 50 50 45 42 42 44 47 51 52 57 50 51 50 52 52 51 52 59 60 61 63
10 8 9 11 18 31 43 41 46 47 35 29 30 32 38 39 42 48 49 48 51 56 56 45 40 43 40 44 41 38 36 37 40 41 41 40 36 35 34 37 39 41 47 48 51 53 56 61 60
6 8 10 15 30 33 45 45 47 34 29 35 32 39 41 42 47 53 42 41 43 49 43 35 35 34 30 29 29 28 28 27 26 23 23 23 25 26 29 30 34 37 42 47 48 49 59 60 53
8 8 10 17 33 35 37 43 44 34 34 34 37 39 37 43 47 45 36 37 37 39 33 29 27 26 26 26 24 22 20 17 16 17 19 23 26 26 27 28 31 34 33 33 37 40 43 40 32
9 15 22 29 34 35 42 42 37 50 46 42 34 45 36 34 37 37 35 33 33 34 26 25 24 23 22 22 21 17 16 17 15 17 18 21 23 25 24 20 20 21 22 22 24 24 26 28 29
16 24 29 39 37 38 40 37 35 43 43 31 33 37 36 34 36 34 35 32 32 30 28 23 22 21 18 16 16 16 13 11 14 17 20 22 21 16 17 19 20 22 24 24 25 26 26 26 26
22 34 35 40 35 37 35 31 32 35 31 29 24 32 31 33 33 31 31 28 28 28 28 28 22 16 15 16 14 10 10 13 16 20 22 20 16 16 17 18 20 22 23 23 21 19 18 19 20
23 32 34 31 30 28 19 23 25 23 28 20 27 26 29 32 29 29 28 27 28 28 33 30 24 26 23 15 12 11 11 13 16 20 21 19 21 22 23 24 26 26 25 23 19 17 16 15 14
16 22 25 23 21 16 12 12 11 14 15 18 21 33 30 29 27 25 26 29 32 34 30 27 34 28 25 26 19 17 15 16 19 21 21 25 40 39 39 32 29 28 28 28 27 27 27 27 25
23 21 22 16 16 12 11 11 11 16 14 17 17 17 29 26 26 27 27 28 31 32 32 33 29 25 21 26 26 29 29 34 34 38 38 48 43 43 38 40 40 39 39 36 35 34 33 33 40
22 23 14 11 12 10 10 10 10 15 17 17 20 18 28 24 24 26 30 32 34 35 38 34 23 23 27 31 35 43 45 43 47 42 42 49 49 55 56 58 56 58 52 52 52 49 47 48 44
17 13 10 8 9 11 13 12 11 16 17 15 18 21 24 22 24 31 36 40 32 38 38 33 31 27 28 34 42 43 45 50 50 56 47 53 53 55 55 56 55 53 58 55 53 53 52 48 48
13 10 8 9 10 14 12 13 14 15 14 14 19 23 28 31 33 34 38 41 40 40 39 43 37 33 35 36 44 44 46 53 56 58 59 51 53 57 55 52 50 53 52 52 52 52 51 53 52
15 15 16 16 16 14 16 15 16 18 16 17 19 25 31 32 36 35 35 42 38 38 43 45 46 43 41 43 45 47 52 56 58 60 59 54 53 54 53 54 53 54 53 53 51 49 49 48 49
14 16 17 18 19 20 17 19 17 18 17 19 20 23 35 35 35 38 40 40 39 41 46 53 49 47 46 45 48 51 55 52 58 59 55 55 55 58 58 58 57 59 58 54 54 52 50 50 50
20 25 28 20 19 20 22 37 21 19 18 19 22 24 27 36 36 40 40 39 42 48 53 55 53 51 50 50 52 54 55 56 61 64 63 61 59 57 56 57 57 58 54 56 56 55 54 53 52
21 29 23 21 17 20 19 34 25 21 18 18 21 23 24 31 39 46 43 43 45 49 53 57 57 57 57 56 54 54 58 62 66 68 66 65 61 57 57 57 56 56 54 53 54 54 57 58 58
23 20 17 19 20 17 21 23 20 19 20 20 22 24 27 28 40 50 50 43 46 47 48 50 55 61 60 59 58 61 65 67 70 69 66 63 63 62 62 61 62 62 62 60 61 61 61 60 59
16 16 19 20 20 18 21 23 21 22 23 24 24 25 26 31 38 41 42 40 41 43 49 53 56 58 59 65 68 68 70 72 71 69 68 68 69 68 67 65 67 67 66 63 59 60 61 59 61
18 21 23 21 20 18 27 25 24 25 26 28 28 29 31 31 35 37 38 39 41 43 46 49 54 58 62 65 66 66 67 69 69 71 69 71 70 71 76 74 78 74 68 61 56 55 54 53 55
22 22 24 23 22 21 24 29 26 26 26 29 30 32 35 37 38 39 41 42 45 48 51 55 59 61 64 65 68 67 68 70 70 69 68 73 80 79 75 68 63 62 56 50 50 51 52 52 50
27 24 23 24 25 35 29 36 39 33 29 32 36 39 40 40 40 42 46 49 52 55 57 60 61 63 62 62 62 64 67 70 70 70 70 67 62 60 59 57 55 53 51 48 52 54 53 55 48
30 26 27 26 27 27 30 23 45 38 36 37 39 43 43 44 46 47 51 55 57 57 57 57 61 63 61 61 63 66 69 68 66 68 64 58 55 54 52 51 48 46 46 45 45 44 45 45 44
26 29 30 30 32 35 33 33 47 46 42 40 43 47 47 46 47 49 53 56 57 58 58 57 59 61 62 62 64 65 64 65 66 63 55 54 54 53 49 46 44 43 45 48 47 45 45 42 43
32 34 42 47 47 49 44 32 45 45 44 43 45 48 46 48 51 54 55 59 58 55 55 57 59 61 63 62 61 61 59 56 55 56 57 57 50 45 42 40 40 43 42 42 42 42 43 45 46
36 35 46 45 46 44 40 33 49 42 42 44 45 46 47 50 54 57 58 58 57 56 59 56 55 54 54 56 55 56 56 57 59 60 58 52 44 41 43 46 45 44 42 48 50 52 52 53 56
40 46 36 41 48 43 32 44 46 42 43 43 43 46 50 52 55 57 58 57 56 53 53 54 55 56 57 58 59 59 59 57 56 56 54 51 47 46 48 44 47 48 53 50 55 59 65 70 68
30 31 43 48 57 43 35 41 43 55 49 43 46 47 52 53 57 60 58 57 58 56 59 62 62 62 63 64 61 59 57 54 53 53 52 52 51 48 45 47 47 50 52 57 61 67 76 81 87
38 46 44 42 47 54 47 37 46 50 48 52 54 54 56 59 61 62 61 62 64 64 64 62 64 64 61 59 56 53 53 55 58 55 58 55 52 46 46 43 45 51 56 64 70 78 83 86 92
36 41 41 50 50 55 56 44 43 44 50 51 52 59 63 64 64 65 68 70 68 67 63 64 64 60 57 53 51 52 53 57 59 53 48 50 50 50 49 53 60 67 73 78 83 85 87 87 89

GFSSGP_prec_cthk_030.txt.gz
RH
9 9 8 12 14 22 30 47 53 51 56 46 38 39 47 53 54 71 75 66 61 47 44 49 48 44 45 45 46 44 39 35 35 37 39 40 40 38 39 38 38 40 40 43 48 50 55 59 59
5 8 9 11 20 27 46 46 53 44 40 29 30 37 42 43 50 52 50 53 51 46 46 43 40 40 37 37 36 33 30 30 31 31 31 29 28 29 29 30 31 35 37 39 41 45 48 48 54
10 13 11 22 30 32 47 51 48 49 40 34 33 42 42 46 47 42 44 48 47 43 40 35 34 31 26 24 24 23 23 22 19 18 18 20 24 25 27 27 30 35 40 38 41 40 40 42 49
8 10 13 26 34 43 47 56 47 45 30 38 43 42 35 47 41 39 35 37 40 37 31 29 25 22 21 20 20 19 17 15 15 16 16 18 20 23 25 24 22 21 21 23 23 23 24 24 25
11 15 22 33 43 46 50 50 38 41 51 39 40 53 49 37 30 32 33 35 34 28 24 22 20 20 19 19 17 14 14 15 11 13 16 18 20 20 17 16 17 19 21 22 22 22 22 22 22
20 22 30 38 43 49 50 42 42 52 53 33 42 45 45 32 32 35 32 34 29 22 20 20 20 19 17 14 13 13 10 9 12 15 19 22 21 17 17 17 19 21 22 23 22 21 19 18 18
25 28 34 39 42 39 41 29 33 38 36 29 30 38 35 35 32 33 30 27 27 22 19 19 19 17 14 13 12 8 8 11 13 16 20 19 18 18 18 20 22 24 24 22 20 18 15 14 13
24 33 41 42 43 43 26 26 30 32 35 28 31 35 32 31 28 27 26 25 25 26 28 28 23 18 19 18 11 10 10 12 14 16 17 21 28 28 29 28 27 27 27 26 26 25 25 25 25
25 34 35 32 36 30 16 17 16 18 19 21 29 28 28 27 25 24 22 24 27 31 33 33 34 28 23 20 18 19 17 23 22 25 26 36 36 43 40 38 40 40 39 37 34 33 32 31 32
23 23 24 23 22 18 13 13 10 17 13 16 21 30 27 23 24 23 25 29 31 34 32 31 29 24 21 28 25 30 31 31 32 36 37 49 45 44 45 48 49 48 46 45 46 44 42 41 41
25 24 22 19 18 13 12 11 13 16 17 17 19 25 25 25 26 25 27 32 36 38 40 35 26 21 31 34 34 44 46 46 47 50 47 47 48 56 53 52 51 50 47 51 50 47 50 49 46
25 23 20 13 12 12 11 9 11 17 18 16 18 18 28 25 27 28 33 40 40 41 40 38 27 22 26 35 41 43 47 51 54 57 56 54 54 54 50 51 51 48 50 49 49 50 50 49 49
18 14 10 8 9 12 12 11 13 15 14 13 21 24 30 29 32 34 42 51 42 47 43 39 34 30 30 33 37 40 45 54 55 54 57 53 50 52 50 51 52 52 52 53 52 49 47 46 47
12 13 11 10 11 9 10 14 13 16 16 15 20 26 32 38 41 42 42 43 42 44 41 46 44 39 36 39 42 44 50 51 54 56 53 53 52 56 55 55 54 53 52 50 48 47 45 44 44
16 15 14 14 15 17 14 18 16 20 17 17 20 22 35 40 46 45 41 43 39 43 45 47 54 47 46 46 46 48 52 51 51 54 55 55 56 57 54 54 52 52 50 48 45 44 45 44 44
15 21 27 24 19 18 19 34 27 23 20 18 21 24 31 40 42 46 47 43 44 44 50 57 60 59 53 53 52 50 50 49 52 58 63 61 62 59 55 54 54 53 51 49 49 48 46 46 47
21 34 34 31 20 22 23 37 35 28 22 19 21 27 29 35 44 48 49 46 49 56 57 62 65 62 60 60 57 57 55 55 61 66 68 68 65 62 60 59 59 61 61 61 60 57 59 60 57
33 24 25 22 21 15 19 27 28 25 22 22 24 30 32 33 44 49 49 49 48 48 53 55 61 64 68 66 62 63 64 65 68 68 69 66 66 62 61 61 66 69 68 68 67 66 63 62 59
25 20 22 25 20 17 18 24 24 24 26 25 24 26 30 35 38 44 47 48 45 46 48 49 54 57 59 61 65 66 68 70 70 68 67 65 66 63 62 61 63 65 63 59 58 57 54 51 51
22 21 27 26 21 17 30 30 26 26 29 27 28 29 31 33 37 41 46 49 50 47 49 51 53 56 58 61 67 67 67 68 67 66 66 69 67 64 64 63 59 54 52 49 48 46 43 40 44
24 22 30 26 24 20 20 31 29 29 29 30 30 31 32 34 37 40 42 43 45 48 50 54 56 58 61 61 61 62 63 64 64 65 69 69 70 69 65 62 54 49 47 44 42 40 41 44 46
26 26 24 20 23 28 34 33 40 36 39 40 40 35 36 39 41 43 45 47 50 54 56 57 58 60 59 55 56 58 60 62 65 67 68 65 63 58 56 53 48 46 44 41 40 42 45 46 44
27 27 23 24 24 26 30 36 39 42 44 47 47 47 43 46 47 49 51 53 55 55 56 58 57 56 54 52 55 57 58 59 59 57 54 53 50 50 51 50 49 47 46 44 46 46 46 48 49
22 25 27 30 31 39 31 36 49 51 52 52 51 50 47 49 51 53 53 55 55 56 55 55 54 54 56 55 51 49 49 50 51 51 52 53 54 54 53 52 45 42 42 44 47 52 49 48 47
31 33 46 59 61 58 52 45 51 49 57 58 55 53 50 51 50 50 52 56 59 59 58 54 51 50 49 49 52 53 55 56 56 57 58 58 56 53 49 47 46 45 45 43 43 43 48 47 46
34 33 51 51 58 55 44 40 51 44 53 60 51 48 45 48 49 52 54 55 57 57 56 52 52 52 54 54 55 57 59 60 62 62 59 57 55 52 49 48 47 46 43 45 50 50 48 48 52
34 46 32 32 42 49 29 42 55 58 60 57 54 52 51 49 51 54 57 59 57 56 56 56 56 57 56 56 57 57 58 59 58 58 58 55 53 49 45 43 41 42 45 45 46 48 49 53 60
32 32 41 56 63 55 36 45 64 64 61 61 61 61 58 55 56 60 60 60 60 61 61 60 58 57 58 60 58 56 53 53 54 56 56 53 49 47 45 44 44 40 40 45 50 54 62 67 70
34 40 39 41 46 57 58 46 49 52 63 63 67 66 62 60 61 61 61 60 64 62 62 64 62 62 61 58 57 51 52 54 55 56 57 52 49 44 48 51 48 51 58 63 67 68 72 79 80
28 34 37 51 46 54 62 51 43 48 55 59 62 66 67 69 72 68 67 68 66 67 66 67 65 62 61 58 54 58 58 59 60 59 54 49 48 49 51 54 58 66 70 71 74 76 77 69 68

GFSSGP_prec_cthk_033.txt.gz
RH
20 17 12 13 14 24 41 45 61 61 58 59 52 54 62 62 64 75 79 72 61 52 45 46 44 42 39 39 39 39 35 31 31 33 34 33 33 31 29 26 25 25 28 30 34 37 42 48 51
18 13 10 12 22 35 53 56 61 57 59 54 50 52 43 56 56 63 69 63 53 44 42 43 39 35 35 33 32 29 26 25 23 21 18 19 20 20 21 22 23 23 27 35 39 39 38 40 42
12 11 11 19 33 43 56 59 59 53 46 42 42 36 36 42 47 56 60 51 48 41 40 34 33 31 27 23 21 20 19 17 15 14 14 14 17 21 21 22 23 23 22 21 22 23 24 25 24
11 13 28 37 38 42 51 58 56 52 51 46 37 38 44 45 45 48 46 44 41 38 32 29 27 23 19 19 19 18 15 12 13 11 12 14 16 16 18 16 14 15 16 17 18 19 19 19 19
14 20 37 39 51 60 58 53 53 50 48 46 37 46 48 52 38 37 33 35 29 27 26 23 20 19 19 19 14 11 11 10 8 11 13 16 18 17 15 15 15 17 18 20 20 20 18 17 17
20 32 37 42 57 55 52 53 54 52 50 47 44 41 43 28 28 31 30 29 24 21 19 18 19 19 18 14 11 9 7 8 10 13 16 20 17 17 17 19 20 22 23 23 21 19 17 15 13
34 38 40 43 53 51 51 49 42 43 42 37 39 36 41 31 28 29 27 26 19 18 18 18 19 17 14 12 10 7 7 9 12 15 16 17 19 21 23 25 25 26 26 26 25 24 23 23 23
37 36 41 45 49 46 41 35 30 32 32 32 28 34 41 30 28 26 23 23 21 20 22 22 19 17 16 14 10 8 10 11 13 15 21 26 27 31 31 33 36 38 38 36 33 32 31 29 28
33 35 39 42 45 44 38 22 22 21 24 26 26 26 26 26 25 24 23 22 23 26 28 28 25 19 15 14 16 16 17 20 22 27 32 35 35 39 41 42 43 42 40 40 40 40 37 37 37
29 31 34 34 38 33 25 13 9 18 14 21 25 28 31 24 21 21 22 24 30 32 29 28 26 20 20 22 24 30 31 33 35 39 39 42 42 44 47 46 47 46 45 44 42 41 39 39 38
25 25 26 29 25 19 13 12 15 16 17 18 21 25 26 23 23 22 23 27 27 29 30 31 29 18 26 28 32 35 39 42 41 46 47 46 47 52 50 49 48 47 45 45 45 44 43 42 41
24 24 23 23 22 13 10 11 14 15 18 17 19 21 20 21 22 22 25 29 33 35 34 34 29 21 30 34 37 38 42 44 45 49 49 48 48 50 52 52 52 49 48 47 47 46 44 43 42
21 20 23 22 18 9 10 11 14 16 17 18 19 22 26 25 26 27 31 39 42 39 39 38 34 23 27 32 37 41 47 49 48 49 47 48 46 50 53 54 52 49 48 48 47 46 44 40 38
13 11 8 7 8 9 11 12 12 13 14 17 19 22 27 30 32 35 38 44 45 44 42 39 37 39 31 35 38 40 44 47 47 47 48 49 49 52 55 53 50 48 49 50 49 46 44 42 40
12 13 13 12 12 13 14 16 16 17 15 15 18 23 29 33 38 41 44 44 46 43 40 38 41 41 42 36 39 42 45 49 51 49 48 51 51 54 55 53 53 54 52 52 52 51 50 50 48
18 23 26 27 25 18 23 26 23 21 24 22 19 21 28 35 42 44 46 47 46 41 43 48 47 55 88 73 57 54 56 57 56 54 55 55 56 58 58 58 55 53 52 53 54 57 54 54 53
35 38 35 31 23 19 25 23 25 24 24 26 19 23 27 38 48 55 49 51 48 50 51 59 59 57 66 78 73 62 65 65 59 62 62 63 63 61 58 59 57 55 54 54 53 51 51 50 49
34 35 37 31 23 17 22 30 30 29 28 27 25 25 31 35 44 47 50 49 50 51 55 62 63 62 62 61 58 61 60 63 66 67 67 68 66 64 61 63 63 60 58 55 53 48 47 48 48
29 29 29 23 20 19 18 29 29 25 25 28 28 29 33 37 40 48 52 52 54 60 65 65 67 62 60 57 59 62 66 70 72 71 70 68 65 62 63 64 62 59 55 51 48 44 41 38 37
30 28 30 25 22 20 20 26 27 27 28 29 28 31 34 38 42 45 51 57 61 63 59 57 54 55 56 57 60 64 68 69 67 65 66 66 66 65 65 64 61 55 48 46 44 43 40 38 38
24 29 29 25 23 19 27 31 32 32 32 38 39 41 38 38 40 45 47 48 50 50 51 49 52 54 55 57 58 58 57 55 57 61 63 65 65 66 65 59 52 49 49 48 46 45 41 39 41
26 26 26 24 22 25 28 36 37 35 38 39 38 40 42 44 42 44 47 50 50 51 53 53 52 53 56 56 54 54 54 55 57 58 57 55 53 51 52 52 52 53 51 49 42 42 43 46 48
24 25 24 23 25 27 31 37 39 44 49 44 49 51 52 52 49 44 46 48 50 52 51 53 56 57 54 50 49 47 47 49 51 52 53 54 55 56 56 58 58 52 45 45 44 47 48 48 47
25 26 28 32 38 43 41 42 47 49 47 56 56 56 64 59 52 49 49 49 48 50 54 57 56 55 54 54 53 54 54 54 54 54 54 54 55 56 56 52 47 45 45 45 44 43 42 41 42
31 32 46 49 64 59 55 60 70 60 60 55 54 58 61 59 54 51 51 52 52 51 53 54 54 54 55 54 55 55 56 58 58 58 58 56 55 52 49 45 41 42 46 44 42 42 42 43 41
32 34 53 49 62 54 43 59 60 58 60 66 70 71 68 60 60 58 57 51 53 57 57 56 56 57 57 55 54 55 58 58 57 56 53 52 55 50 47 50 50 49 45 42 42 42 38 37 39
28 43 35 36 49 54 46 51 57 61 68 72 74 74 73 68 66 64 60 59 58 57 58 59 59 57 55 56 56 55 57 56 54 52 54 55 57 59 57 51 46 42 41 40 40 41 44 46 50
32 30 39 49 54 51 45 56 65 59 59 63 68 71 73 79 70 66 68 66 66 66 65 61 60 61 58 59 60 58 56 53 53 57 57 61 64 62 54 47 43 45 46 46 51 55 56 58 61
31 36 35 37 47 59 65 50 50 61 65 66 68 71 68 68 70 72 70 73 73 68 65 63 63 64 64 64 62 62 55 55 60 57 54 54 51 47 47 50 51 50 54 56 61 67 68 70 74
26 32 33 48 44 56 66 57 51 59 58 66 74 73 76 79 79 76 75 72 69 69 71 70 69 66 65 66 67 61 56 53 51 51 52 52 46 48 51 54 55 58 60 64 67 72 75 69 53

GFSSGP_prec_cthk_036.txt.gz
RH
23 23 23 26 22 35 45 57 58 61 63 62 64 64 64 68 62 73 69 67 61 55 49 45 43 41 37 38 37 36 34 29 27 27 25 24 24 23 22 21 20 20 22 24 29 32 34 37 42
16 15 24 28 23 43 58 58 57 71 70 64 62 61 62 68 62 63 65 63 58 55 44 43 41 38 37 34 32 27 23 21 19 17 14 14 15 17 18 18 18 19 21 23 24 24 28 28 28
23 32 24 15 21 41 58 58 56 60 64 64 63 68 63 58 51 51 58 59 57 51 42 41 36 33 30 23 20 18 18 16 13 12 12 13 15 15 17 18 16 13 12 14 15 16 16 17 16
20 24 15 25 39 41 52 52 55 64 62 58 52 53 54 44 38 38 48 49 48 42 39 34 31 26 20 18 18 16 13 12 12 10 11 13 15 15 12 11 10 12 14 15 16 17 17 17 17
20 19 34 42 52 55 58 57 52 58 60 58 51 55 45 46 46 44 48 47 44 34 31 27 23 19 18 18 14 11 10 9 8 10 12 16 16 13 14 15 17 18 20 21 20 19 18 16 14
29 40 46 56 58 62 54 57 53 56 57 56 50 44 35 33 32 38 37 32 33 26 22 19 18 18 17 14 11 8 7 8 10 13 16 15 14 15 17 19 21 23 25 25 24 24 24 23 23
19 39 42 46 62 61 57 59 55 52 48 47 45 34 37 33 27 31 31 24 21 19 18 17 17 17 14 12 9 6 7 9 12 14 14 16 20 23 24 26 29 31 31 31 30 29 30 30 29
36 38 39 49 73 59 57 50 45 46 44 35 30 33 32 27 27 29 26 18 18 17 17 17 18 17 14 11 8 8 9 11 14 18 23 26 28 30 35 36 38 38 37 37 38 37 33 33 34
39 41 43 42 56 56 45 46 43 42 35 30 30 26 23 24 25 25 23 22 23 23 24 24 22 16 13 15 16 17 19 20 23 27 30 30 34 37 40 40 42 40 39 38 38 36 35 35 35
35 35 39 42 46 45 43 37 32 26 24 28 26 28 24 22 22 21 22 22 23 24 25 23 23 16 16 20 25 29 30 33 35 35 35 38 38 40 42 44 45 45 43 43 42 40 39 38 37
29 30 32 38 37 37 32 23 20 15 18 18 20 24 26 23 22 21 19 20 21 24 25 24 26 20 19 25 31 35 39 40 39 39 39 40 39 41 43 45 46 46 44 43 40 39 37 37 37
26 25 24 27 30 27 21 10 9 11 16 17 18 21 22 22 21 20 22 24 26 29 29 32 31 24 22 30 35 41 43 43 44 45 43 43 40 41 45 47 47 46 43 42 40 41 41 40 39
27 25 25 25 24 22 10 10 10 13 16 21 24 24 24 21 20 21 25 30 33 33 34 36 35 29 24 30 35 37 39 43 44 42 45 47 45 46 50 49 49 47 47 47 47 46 44 43 42
22 23 22 23 23 11 10 12 13 16 18 22 23 21 24 27 28 28 30 32 34 35 38 41 40 39 38 32 35 42 46 50 54 53 52 53 52 50 49 51 53 54 52 50 48 47 47 46 47
16 8 9 11 10 9 12 14 14 19 21 25 24 22 25 28 32 33 34 36 36 39 41 39 42 49 56 54 64 63 60 59 61 60 56 55 55 53 53 57 58 57 55 51 50 48 47 46 45
17 19 27 25 21 16 22 24 21 21 25 25 25 24 27 37 38 40 40 43 43 49 49 48 52 63 69 67 61 62 64 62 61 60 57 61 62 62 62 62 60 56 52 53 55 52 50 48 46
28 28 28 29 24 25 23 27 22 23 24 26 27 28 29 32 38 40 41 42 45 50 54 57 63 71 78 77 70 65 58 60 63 63 67 70 68 62 60 58 58 55 54 56 56 56 52 47 42
38 31 29 32 28 24 27 26 25 26 25 29 30 31 32 33 41 45 47 46 48 56 63 77 80 82 81 81 73 67 65 67 70 72 74 72 69 68 65 63 63 61 61 60 60 54 45 41 38
34 31 29 32 27 26 26 29 28 30 33 34 35 33 33 35 41 48 51 53 65 69 73 78 83 79 77 74 64 65 69 68 72 72 69 66 68 68 70 72 68 67 64 60 53 45 42 40 37
36 36 33 27 26 24 25 26 29 30 30 31 34 37 40 46 48 51 55 63 66 67 70 70 63 65 64 60 61 64 68 71 71 71 70 70 72 73 74 69 65 63 60 53 48 48 46 42 36
39 35 33 32 29 27 27 31 32 36 38 36 39 44 47 52 53 57 58 56 57 56 54 55 56 54 55 57 58 61 64 63 61 62 63 66 65 61 60 58 57 56 54 54 53 48 41 38 40
29 27 34 31 28 24 22 36 37 37 40 40 40 45 52 55 53 52 53 53 51 49 50 51 55 59 57 54 53 51 49 50 53 56 58 56 55 55 56 56 56 55 52 45 40 40 42 46 46
23 23 23 24 26 26 30 35 38 41 42 43 43 52 58 60 58 59 57 51 49 52 55 52 49 47 45 44 47 49 51 52 54 54 53 53 55 55 55 54 52 46 43 42 42 42 44 45 48
23 23 26 29 34 41 40 41 41 48 48 51 52 60 62 63 64 59 53 51 46 45 44 46 46 47 49 51 53 54 56 53 51 51 54 57 57 54 51 51 50 49 48 47 46 48 50 47 48
26 32 46 50 59 62 52 60 63 59 57 57 58 61 62 65 68 61 59 58 57 56 53 53 54 54 54 57 60 58 57 56 57 56 57 55 53 52 52 52 51 52 52 49 50 52 55 52 50
30 34 48 45 56 47 44 54 55 57 59 61 69 72 71 76 79 73 66 63 60 62 65 66 65 64 63 60 59 60 58 60 59 54 53 49 49 51 54 55 54 52 48 48 45 45 47 49 49
30 40 31 39 46 50 49 51 52 58 62 71 78 79 76 76 74 67 65 67 73 73 74 74 69 64 65 65 67 63 59 59 59 55 52 53 54 51 46 43 43 45 46 46 52 53 55 56 56
28 28 36 40 45 47 50 54 59 56 61 64 64 65 68 68 74 72 75 79 76 75 71 69 68 68 71 70 67 65 59 61 60 57 53 47 46 46 44 43 44 44 48 53 54 57 60 62 65
29 32 32 36 45 53 59 52 50 55 59 64 67 69 69 72 75 78 84 80 79 77 73 71 72 70 67 68 65 64 63 54 46 44 40 40 42 43 40 35 37 39 42 48 54 55 60 63 67
25 29 32 42 36 50 57 49 47 51 55 62 69 74 76 84 84 87 81 80 77 72 70 68 67 65 63 59 57 51 43 39 39 42 36 32 38 45 43 32 36 41 47 49 54 53 50 50 49

GFSSGP_prec_cthk_039.txt.gz
RH
22 29 36 37 30 30 36 39 55 57 62 62 67 67 71 74 72 73 72 65 58 54 46 47 47 41 38 36 35 34 32 27 26 25 23 20 18 17 18 18 18 17 19 22 26 29 31 32 31
20 29 26 27 38 38 49 50 62 62 65 65 73 76 75 82 79 77 72 63 54 53 50 47 43 38 37 35 31 28 23 22 20 16 13 12 13 14 15 17 17 18 15 14 15 16 17 17 17
26 22 28 32 37 39 55 57 64 66 72 72 74 77 73 77 76 70 64 57 54 48 47 47 37 36 33 27 22 19 17 16 13 12 10 11 13 14 14 12 10 10 11 13 14 15 16 17 17
26 26 21 31 33 37 50 56 62 69 71 70 80 73 70 68 61 58 55 51 49 46 43 37 32 30 23 18 17 16 14 12 11 9 10 12 15 14 13 14 16 17 18 19 20 19 19 17 15
29 32 35 31 41 41 49 57 60 63 65 68 66 68 68 67 61 49 45 47 45 43 38 31 26 22 18 17 16 13 11 8 8 9 12 16 14 15 16 19 21 23 24 25 24 23 23 23 22
37 35 36 52 53 55 57 63 58 61 62 66 66 62 58 50 51 49 49 48 41 36 30 24 20 18 17 15 13 9 6 7 8 12 15 15 17 20 23 25 28 29 29 29 28 27 27 27 28
38 34 39 60 61 60 60 67 63 63 63 63 57 52 49 44 42 39 35 36 31 25 21 18 17 17 16 13 9 6 7 9 12 14 17 22 26 28 32 34 35 35 34 34 34 34 32 33 32
33 37 41 55 67 63 61 68 66 61 56 48 42 36 38 33 32 32 26 25 21 19 18 17 18 17 15 10 7 7 9 12 15 20 26 29 31 33 35 37 38 38 37 37 35 34 33 33 33
34 38 45 63 65 59 62 59 57 52 46 43 35 25 22 24 27 24 20 18 17 18 17 19 20 17 14 11 11 13 16 19 24 29 31 32 34 36 38 39 41 42 42 41 40 39 37 36 34
37 43 41 55 60 66 50 50 43 45 41 32 25 22 22 22 23 22 16 16 18 20 24 25 25 16 15 18 21 23 25 29 32 32 35 36 36 37 38 40 41 44 44 42 41 40 37 37 37
37 40 43 46 51 48 46 41 31 30 28 16 17 20 21 21 22 21 19 18 21 27 28 25 24 15 16 20 26 29 32 34 35 35 37 38 38 38 42 43 45 45 44 42 41 41 42 43 44
30 36 38 39 41 37 34 26 16 15 16 16 16 16 18 18 19 19 18 22 26 30 30 32 30 21 19 23 27 30 34 35 37 40 42 46 47 47 47 47 47 47 46 47 48 47 46 46 45
29 27 27 26 29 28 27 15 11 14 17 20 21 22 22 21 20 19 19 28 30 32 33 35 30 26 26 23 28 33 37 43 50 51 51 52 51 49 48 50 50 48 49 51 51 50 47 45 44
26 26 25 25 24 23 17 11 12 16 21 25 24 25 26 26 28 29 32 33 36 37 39 41 35 32 35 37 38 47 54 56 53 53 53 52 51 52 54 54 52 51 51 52 51 50 49 49 48
21 23 23 20 21 14 10 12 14 17 25 26 27 26 29 31 35 36 37 38 40 41 45 46 43 42 48 60 62 63 59 59 58 55 55 58 59 60 61 61 60 57 56 55 54 52 52 52 51
16 18 23 17 14 12 14 16 17 22 27 27 29 31 33 35 36 37 38 41 41 44 48 53 60 61 67 77 81 80 77 68 62 62 63 65 65 65 64 63 63 63 61 60 58 55 56 55 52
19 29 28 25 24 23 22 26 22 26 29 28 31 33 35 36 39 41 43 44 46 50 56 66 75 82 88 92 85 81 72 69 65 65 67 67 66 66 64 61 60 61 64 63 64 60 57 54 48
23 26 28 30 27 25 23 23 22 21 26 30 32 36 37 36 40 41 43 43 47 54 68 75 87 91 92 85 83 77 72 66 66 68 69 69 71 69 68 69 74 74 69 65 60 56 53 49 41
28 25 30 29 28 26 27 26 27 27 28 32 35 36 37 41 46 48 51 54 59 69 80 83 85 87 82 79 80 74 66 69 69 69 72 71 70 73 74 76 71 66 63 58 53 52 50 46 42
33 30 28 30 31 27 30 29 30 31 34 37 39 43 45 50 56 54 56 67 75 80 72 67 66 65 66 69 66 64 66 64 63 64 64 63 65 66 67 63 60 58 59 59 56 50 47 44 40
41 34 32 32 33 31 30 31 33 36 39 43 45 45 54 58 58 62 65 70 69 65 63 63 61 58 56 58 60 60 56 54 52 52 53 54 57 58 57 57 58 58 55 52 46 42 39 37 37
38 37 36 35 36 35 35 40 35 37 42 47 50 49 54 59 64 66 64 62 60 60 59 57 56 55 54 52 51 50 50 52 56 58 60 62 59 58 58 59 59 54 51 47 43 40 37 36 38
26 28 28 30 34 34 33 33 34 40 44 47 53 55 57 62 65 67 64 64 64 61 57 54 52 50 50 52 53 54 56 59 62 62 61 58 56 55 55 52 49 47 46 46 45 42 41 47 51
27 28 32 34 35 40 37 43 41 43 47 59 62 66 67 68 70 71 64 63 61 59 61 61 61 61 63 62 62 63 65 65 63 60 57 56 53 50 46 44 45 48 48 46 44 44 44 45 46
28 32 42 46 52 54 47 51 51 48 51 54 58 59 60 62 66 68 70 72 71 72 67 70 67 67 65 66 66 65 62 61 60 59 56 53 49 45 45 48 49 47 42 39 38 39 42 43 44
30 33 45 44 54 46 44 52 48 45 48 51 56 59 65 68 77 79 75 71 71 74 72 69 67 67 65 60 60 60 58 57 57 55 53 49 45 45 44 43 40 37 39 38 37 40 44 46 50
30 37 31 42 45 46 46 43 46 48 52 57 59 63 71 66 62 61 63 65 70 71 70 71 68 62 60 60 61 59 55 56 55 52 42 38 37 37 39 40 37 35 35 38 39 38 44 47 51
27 29 35 38 41 41 43 45 48 47 50 53 56 58 59 62 62 65 70 73 73 79 75 72 69 64 63 63 60 58 53 48 44 39 35 37 39 41 44 42 38 39 37 40 43 47 52 57 58
30 30 31 35 41 48 53 42 37 41 48 52 54 56 58 62 74 73 77 80 83 76 79 73 70 68 65 60 56 53 48 41 39 38 38 35 35 42 48 52 48 52 53 50 54 63 63 61 54
26 27 30 36 33 48 50 40 38 42 45 47 52 58 61 65 69 75 79 77 76 75 73 71 66 64 58 54 49 44 40 37 39 42 45 43 46 50 57 56 55 72 69 75 72 76 73 64 55

GFSSGP_prec_cthk_042.txt.gz
RH
16 20 27 30 35 32 35 44 54 61 62 63 64 66 75 80 76 76 73 73 67 59 55 52 54 46 40 37 37 36 35 31 28 26 22 17 14 14 15 17 18 18 19 18 18 20 22 22 22
11 14 24 33 37 38 47 43 61 68 71 69 73 79 84 88 85 84 81 77 73 57 52 52 47 43 37 37 35 33 28 25 21 16 11 11 12 14 15 14 13 11 11 12 14 15 16 16 17
16 17 27 30 34 46 49 48 72 71 67 64 71 73 78 84 86 84 85 73 67 58 52 48 48 40 36 34 29 23 19 16 12 12 9 11 14 14 13 13 15 17 19 19 20 20 20 19 19
33 25 28 29 34 40 53 59 67 76 74 71 70 73 75 78 77 79 74 66 59 52 49 49 41 35 31 23 18 18 15 12 11 8 10 14 15 15 17 19 21 23 24 23 23 22 22 22 22
39 31 33 29 34 41 46 63 74 71 71 69 68 71 76 73 66 64 63 60 57 51 50 42 34 27 20 18 17 15 11 8 7 9 14 16 16 18 20 23 25 26 27 27 27 26 26 27 26
40 34 35 46 46 45 51 65 76 71 68 68 63 63 64 61 58 56 58 58 57 53 44 33 25 21 18 17 14 9 6 7 10 14 16 18 20 24 28 30 31 32 33 32 32 32 32 32 31
44 36 43 58 53 48 56 69 75 71 67 67 61 64 53 47 47 51 51 51 50 43 32 26 20 17 16 14 9 6 8 10 14 17 19 24 27 30 31 32 33 34 35 36 37 36 35 35 34
47 43 49 60 62 59 59 74 68 70 62 57 53 54 44 41 44 45 44 44 36 27 23 19 17 17 15 10 7 8 10 15 17 22 28 30 32 32 33 35 35 36 38 40 40 39 38 36 36
44 43 46 60 67 69 67 71 65 62 59 53 49 38 30 34 36 32 35 31 24 20 18 18 18 17 13 8 8 11 14 17 24 31 33 34 34 33 34 36 37 38 40 40 42 41 38 38 39
36 40 45 54 59 66 64 58 63 65 52 43 29 26 26 27 26 25 24 21 18 17 17 21 21 16 13 13 15 17 21 29 32 35 36 37 35 36 38 40 43 44 44 43 42 42 43 43 44
39 39 42 57 57 55 53 52 53 42 35 21 17 21 24 24 24 20 18 16 16 23 25 23 19 14 16 19 23 26 30 35 36 38 42 45 48 48 49 48 48 48 46 44 45 47 47 48 47
42 44 48 49 53 47 40 37 29 24 16 17 17 15 19 21 19 17 16 17 24 28 30 29 24 17 21 25 29 34 36 39 40 46 52 52 54 51 49 47 47 47 48 47 47 49 50 50 49
40 36 40 45 47 42 32 30 23 19 19 20 22 23 21 21 20 20 19 24 32 35 36 36 32 30 30 30 34 39 43 48 55 58 57 56 53 53 51 50 52 49 49 50 50 51 50 50 49
30 30 28 31 32 31 28 18 18 20 24 24 25 27 28 29 28 28 30 34 37 40 42 46 45 41 43 45 45 47 54 62 65 68 65 59 57 56 58 56 55 52 54 58 57 57 55 53 52
28 28 29 28 25 25 21 13 15 21 26 26 28 33 36 34 32 31 33 38 42 45 50 51 54 48 51 55 60 64 77 76 76 72 64 59 59 59 60 59 57 59 60 60 60 61 59 57 57
25 25 24 20 19 17 13 15 16 25 26 30 32 33 36 35 34 35 37 38 41 44 47 53 63 73 75 81 81 86 83 82 84 82 66 64 63 63 63 64 63 61 60 62 64 67 63 58 56
22 25 23 20 16 16 17 24 26 30 32 33 34 37 38 38 39 40 40 42 44 45 50 61 75 82 83 87 88 86 89 87 85 74 69 69 69 65 67 64 62 70 70 78 70 62 57 54 52
29 30 28 27 25 27 24 26 29 31 33 33 35 37 39 42 47 48 48 50 53 55 61 67 81 88 93 95 95 93 83 75 72 73 72 69 70 67 64 68 70 64 62 61 58 56 54 49 46
26 28 28 27 26 27 29 31 32 31 35 37 39 42 47 47 50 51 53 55 59 65 72 83 90 90 94 88 77 73 69 69 65 63 60 59 57 59 61 61 62 60 55 53 53 52 48 44 39
28 29 34 31 29 29 33 34 32 31 35 36 40 43 45 50 55 58 60 63 70 81 84 85 76 71 69 68 64 60 60 59 54 52 52 53 54 55 56 57 54 52 53 52 50 45 40 37 35
39 35 34 33 33 33 34 36 38 35 35 35 40 45 49 54 59 63 65 72 72 70 65 63 64 64 62 59 53 49 49 51 55 57 58 59 58 58 56 55 55 55 51 47 42 39 37 34 32
40 37 34 36 34 37 36 39 38 39 41 43 46 49 53 55 59 60 54 59 62 61 59 58 59 59 54 55 58 61 63 64 66 66 65 64 62 60 57 53 49 44 40 37 36 34 33 33 34
33 30 32 34 36 36 39 38 32 38 41 44 47 52 55 57 58 63 63 64 67 65 63 65 68 67 69 69 69 68 66 70 68 69 64 60 56 53 49 44 37 35 35 34 33 35 35 36 37
26 28 32 36 37 42 37 40 36 40 41 49 55 58 60 61 62 62 65 70 73 71 72 73 74 79 76 72 71 71 68 68 66 60 57 53 48 43 38 34 33 33 32 29 30 30 31 32 34
28 31 41 43 47 48 41 45 42 41 46 48 51 53 55 58 62 67 69 75 81 78 77 80 80 80 78 76 74 70 68 64 58 54 50 44 39 32 29 30 31 34 34 33 32 30 29 32 37
32 33 46 46 56 47 45 48 41 39 37 41 46 49 53 58 63 69 74 71 69 73 76 78 81 81 79 74 68 65 63 57 52 48 42 36 32 30 32 33 35 35 38 38 39 39 39 41 43
33 37 33 45 46 45 42 38 38 39 39 42 46 52 55 59 60 60 62 65 69 74 77 80 77 75 75 69 65 64 61 54 47 42 36 33 35 37 41 38 38 39 43 47 52 55 58 58 55
32 36 39 39 38 33 39 38 41 40 41 43 46 49 51 52 55 57 62 69 70 72 74 75 73 75 71 68 66 59 53 48 43 37 36 39 40 39 42 46 46 48 48 51 55 64 64 69 69
34 33 34 36 39 44 48 36 31 37 39 43 48 51 53 55 57 60 63 66 70 73 74 74 72 71 72 67 61 54 48 45 42 42 42 42 41 43 47 49 51 48 50 53 60 69 73 79 77
28 30 30 35 33 46 47 37 32 34 39 43 47 51 53 54 59 62 66 69 73 73 73 71 77 74 65 58 52 49 48 47 46 44 45 45 40 42 47 50 53 51 56 53 67 78 82 81 73

GFSSGP_prec_cthk_045.txt.gz
RH
17 13 20 27 36 37 40 48 56 68 71 69 69 65 64 68 71 74 78 72 72 72 72 64 61 56 51 47 44 41 37 33 31 28 23 19 15 16 16 16 15 15 14 16 18 18 18 17 17
22 14 18 24 28 30 36 39 62 70 77 82 77 75 76 82 81 86 80 76 74 69 64 62 56 51 49 43 42 38 33 28 26 19 13 11 13 15 15 14 14 17 18 20 20 20 21 21 20
27 25 18 20 27 33 43 50 62 70 77 82 81 78 82 83 88 87 86 80 70 64 61 55 52 52 44 41 38 30 25 22 15 12 9 12 15 16 16 17 19 21 22 22 22 21 20 19 19
32 34 21 21 27 32 47 64 64 69 72 76 76 75 75 77 88 83 89 82 65 59 55 52 51 44 42 37 26 21 18 14 11 8 11 15 16 18 19 21 24 24 24 23 23 24 23 23 24
34 37 32 27 33 37 45 68 70 76 76 75 72 71 80 80 78 83 86 76 60 54 54 49 46 40 34 23 20 17 13 8 7 10 16 17 19 21 23 26 27 27 28 28 28 28 29 28 27
34 38 39 40 44 41 53 69 74 73 70 71 67 65 71 65 63 79 80 67 55 55 54 47 36 30 23 20 18 12 6 6 11 17 18 20 23 27 30 31 31 31 31 32 32 32 32 32 32
37 38 46 49 51 41 54 68 73 69 66 69 61 65 64 57 62 66 73 61 56 55 49 35 28 23 20 18 12 6 7 11 16 18 22 26 29 33 32 32 33 32 33 34 32 35 34 34 32
40 43 56 59 57 55 62 67 72 70 67 65 62 61 58 48 50 49 54 55 51 46 33 28 21 20 18 13 8 8 12 16 19 24 29 32 33 34 34 34 35 36 37 38 37 37 35 34 36
45 47 51 62 62 64 68 65 63 65 66 64 55 48 38 35 44 48 47 45 39 29 26 21 20 20 16 10 8 11 15 19 27 31 34 36 36 36 36 42 46 46 45 45 43 41 39 40 40
41 47 48 52 58 74 70 68 62 65 64 55 38 33 31 35 38 36 39 34 28 22 19 19 22 20 14 10 12 16 20 26 34 37 37 38 41 43 48 49 49 48 47 47 45 43 44 44 45
35 39 41 59 61 59 64 61 59 57 41 27 27 27 29 31 30 31 30 22 17 18 22 25 23 17 18 21 22 26 32 35 38 40 42 46 49 53 52 50 49 49 47 48 46 46 46 46 46
40 44 43 56 59 53 44 42 50 34 24 22 20 19 23 25 24 23 18 17 22 26 27 30 20 20 25 29 34 37 40 42 44 47 52 57 61 59 57 53 52 52 50 49 49 49 49 49 49
45 46 54 55 60 49 34 32 30 28 25 21 20 20 20 22 22 19 19 23 30 38 37 39 31 28 30 34 38 41 44 46 52 59 66 70 70 65 61 57 55 55 53 53 53 55 55 55 54
40 41 37 40 54 44 30 25 28 28 29 28 28 30 31 28 28 26 29 36 41 48 50 49 45 42 41 40 41 46 54 62 63 71 76 81 77 72 68 63 62 58 59 61 58 57 56 58 58
35 31 35 38 42 34 27 22 28 33 33 32 37 36 35 35 35 36 38 43 49 51 53 54 58 51 55 58 63 59 66 69 68 75 83 83 82 77 73 64 60 60 60 58 58 63 62 65 64
30 34 29 28 28 29 20 20 22 37 33 33 36 39 40 39 37 38 41 43 48 50 54 59 64 70 71 80 82 84 88 83 76 84 85 79 79 72 69 66 68 66 59 63 69 72 63 63 55
26 30 26 24 22 21 19 23 27 38 40 38 38 38 39 43 46 46 47 49 52 53 57 61 67 79 90 90 89 90 86 83 82 78 71 71 70 67 68 65 65 62 68 65 63 60 56 51 49
27 28 28 23 23 23 24 35 33 40 41 40 40 41 43 44 49 49 50 51 52 55 60 67 72 84 92 93 94 85 85 77 71 68 68 65 61 58 57 58 60 61 61 60 57 54 53 49 44
28 30 32 32 30 33 36 34 33 36 39 40 42 46 46 49 52 54 53 54 65 60 68 74 84 92 84 92 81 68 68 62 57 54 53 54 55 57 57 57 56 54 52 50 48 45 40 36 32
31 32 32 32 30 30 34 35 35 32 38 39 42 44 48 51 56 56 55 58 61 66 77 84 79 75 67 62 59 56 58 56 57 61 63 63 61 61 59 57 55 54 50 46 42 37 32 28 26
34 35 39 36 36 33 33 32 35 36 35 37 39 43 46 50 53 57 61 56 52 54 58 60 60 58 55 55 61 65 66 68 69 68 67 65 63 60 56 52 49 46 40 35 31 29 27 27 27
40 35 31 31 31 32 33 30 33 37 39 40 41 45 48 53 58 61 55 53 60 62 61 62 65 65 65 67 71 69 72 69 69 69 67 64 62 57 51 45 38 31 28 26 26 24 23 24 28
40 41 38 36 33 32 34 30 30 38 41 42 45 50 54 59 55 53 54 57 56 60 66 69 74 77 80 79 77 78 76 76 74 73 65 61 57 50 42 33 27 27 28 28 27 26 26 25 27
36 34 34 33 33 37 35 36 31 35 37 45 50 54 56 54 54 55 56 58 63 65 70 77 79 76 78 80 77 77 78 74 70 65 60 55 48 38 33 31 32 33 33 31 32 32 33 35 36
31 29 34 35 40 35 37 41 35 38 40 45 47 49 49 50 52 55 60 67 72 68 67 68 69 72 75 79 81 79 75 69 66 61 55 49 41 34 34 36 38 38 37 38 39 39 39 40 44
31 30 38 39 43 42 43 42 35 35 35 37 42 44 46 50 53 58 61 60 60 61 65 68 70 75 78 75 74 73 70 67 61 55 49 41 37 37 38 39 38 41 43 43 40 37 40 42 50
35 36 33 42 47 43 33 32 29 32 34 35 39 43 46 50 55 52 54 54 58 64 68 69 71 73 75 70 70 71 68 61 54 50 44 41 40 40 42 40 42 43 43 39 39 44 51 51 54
31 34 38 38 40 31 29 31 26 30 32 34 37 42 46 49 48 48 52 57 61 65 68 70 72 75 74 74 76 72 63 57 52 47 45 45 45 43 43 40 39 41 45 48 48 52 51 58 66
32 34 37 34 33 30 31 22 26 27 31 32 36 42 46 48 49 50 54 59 64 66 69 70 69 71 77 80 72 61 58 54 51 48 45 43 40 39 35 36 42 44 45 49 55 56 61 70 74
32 33 32 33 32 41 37 25 26 27 30 35 40 44 47 50 53 56 59 64 67 70 69 70 71 79 82 67 63 61 51 47 45 39 33 31 30 29 30 32 38 43 50 58 59 63 69 77 78

GFSSGP_prec_cthk_048.txt.gz
RH
19 15 13 17 28 34 39 41 53 65 68 69 69 66 77 71 68 72 78 81 80 78 79 75 69 60 55 52 47 42 40 35 31 29 24 20 18 17 17 17 17 17 17 18 19 18 18 19 19
21 16 15 22 26 30 29 34 53 62 70 75 76 75 78 79 75 75 81 83 80 80 80 72 62 56 55 51 45 42 38 32 29 23 17 14 15 17 17 16 16 18 20 21 21 21 20 19 18
19 20 24 19 21 25 32 39 56 67 68 71 76 78 81 85 87 84 83 81 84 83 76 64 58 55 54 46 42 40 33 28 21 15 12 14 16 17 17 19 21 22 22 22 21 20 21 21 21
30 28 29 24 19 28 45 59 61 64 70 68 80 86 90 87 88 84 87 87 84 82 71 61 57 55 47 41 39 31 27 20 15 10 13 16 17 19 21 23 24 24 24 23 24 25 25 25 25
32 35 35 33 23 27 49 61 62 68 67 73 71 75 79 85 76 78 80 88 83 77 72 59 57 53 44 36 29 25 20 13 9 12 16 18 20 22 25 26 26 25 26 27 28 28 28 28 28
31 36 36 35 37 35 47 69 69 72 68 68 77 69 68 74 75 85 80 85 80 75 67 59 55 43 34 25 23 20 12 9 11 16 18 21 24 27 29 30 29 29 29 29 29 30 29 29 27
36 34 36 44 53 46 62 65 70 72 75 70 69 68 68 58 75 94 92 86 80 73 65 60 48 31 25 21 20 12 9 12 16 19 22 26 30 32 32 32 32 33 34 34 35 34 32 30 31
35 36 49 52 57 59 59 66 65 74 76 66 65 62 64 60 66 81 83 74 70 69 63 51 37 27 21 18 12 9 12 16 19 24 29 33 35 35 35 37 39 44 46 43 42 41 38 36 35
34 39 56 62 59 66 64 70 65 69 68 66 62 65 55 58 56 65 75 68 66 62 45 33 31 23 19 18 11 12 15 20 26 31 33 37 41 40 43 44 47 48 46 44 43 41 40 39 39
37 43 47 55 62 67 66 73 65 68 64 57 54 51 44 46 57 66 66 62 56 41 30 24 22 20 18 16 11 14 18 27 33 36 38 43 43 49 51 50 51 49 47 45 46 45 44 45 48
42 44 45 52 66 61 59 68 67 62 49 42 41 39 36 48 55 55 54 50 38 28 25 22 24 21 17 15 16 21 26 34 38 42 45 46 52 57 60 61 62 58 54 52 50 50 50 46 46
37 38 43 52 63 56 56 55 58 53 39 25 30 33 36 46 41 42 37 28 25 26 26 28 23 19 22 24 26 33 40 40 43 48 50 55 66 68 68 73 72 64 62 56 53 55 53 51 49
41 47 54 55 51 48 46 42 46 36 25 22 26 35 38 37 35 35 28 29 28 31 33 29 23 27 31 34 38 42 44 47 49 53 60 66 70 76 77 80 80 72 68 63 62 61 56 54 52
46 52 52 51 54 47 41 37 39 34 30 29 32 34 33 31 28 28 28 31 37 39 42 44 38 36 37 40 43 44 46 50 58 64 71 75 79 83 87 86 86 72 65 62 64 58 56 60 59
45 44 42 46 50 45 32 34 33 36 41 40 37 36 34 34 32 34 37 41 45 50 54 57 57 56 57 52 49 50 56 68 71 74 77 78 82 83 84 84 75 74 71 68 65 61 63 67 62
39 35 39 38 42 34 25 29 29 37 39 44 43 42 40 40 39 39 42 43 46 52 58 63 71 74 75 82 83 81 85 86 85 79 80 80 89 80 76 75 72 67 63 64 63 63 64 62 60
35 37 34 34 34 28 21 22 26 37 39 43 45 45 45 46 46 46 48 50 53 58 61 64 66 72 84 87 96 93 89 91 88 84 80 77 71 69 66 59 56 57 58 60 60 60 55 53 49
31 28 26 25 23 23 22 30 30 38 41 43 45 45 46 49 49 50 51 53 56 57 61 67 71 78 83 98 89 89 84 82 73 74 67 61 57 56 55 56 56 58 58 54 47 46 45 41 38
33 32 31 27 26 26 28 34 33 39 46 47 44 44 46 48 48 50 51 52 55 61 64 69 74 83 87 85 79 75 65 62 58 59 61 64 65 63 61 57 55 54 52 46 44 40 35 31 32
37 39 33 30 29 32 36 37 37 36 40 42 41 44 47 49 52 56 58 56 58 63 66 70 72 68 64 60 60 63 64 66 70 70 69 68 69 68 66 62 59 54 50 45 39 33 29 29 33
37 41 33 37 34 32 33 32 35 35 36 36 39 41 46 49 50 51 54 58 62 65 66 68 67 63 60 61 63 69 71 71 75 78 77 74 71 67 62 56 51 46 39 34 31 30 30 31 31
36 31 26 36 36 37 30 33 30 34 35 34 39 42 43 45 48 53 55 59 59 58 57 57 61 63 61 64 68 71 74 80 81 80 75 76 70 61 55 49 41 36 33 33 33 34 33 33 33
39 39 40 37 35 30 31 28 38 33 34 37 37 41 45 50 55 54 55 55 57 57 58 60 63 62 64 66 69 70 75 78 81 79 78 72 66 56 46 39 36 37 37 38 37 37 38 37 40
41 41 36 38 35 33 30 28 28 31 29 36 43 45 49 53 53 54 53 53 56 58 61 62 62 63 64 67 69 73 77 78 77 76 72 67 60 51 44 40 40 40 41 41 43 43 42 45 51
39 37 35 33 31 27 32 28 25 30 33 38 44 45 49 48 51 51 53 56 61 62 60 60 63 66 67 69 70 74 72 70 72 73 68 59 53 48 50 50 52 51 48 46 51 56 53 51 57
33 30 29 26 30 30 33 32 32 30 29 34 40 46 45 46 49 52 57 59 57 57 57 60 65 67 67 66 66 72 73 75 75 68 58 54 51 48 49 47 48 50 48 55 53 51 54 60 64
32 29 31 34 37 37 28 27 27 26 28 30 36 39 42 45 49 54 55 53 55 57 59 63 66 66 64 66 67 70 73 74 64 58 52 52 50 51 49 48 48 46 50 53 51 53 61 57 61
30 31 32 32 38 29 21 22 22 25 28 29 33 35 42 47 50 54 52 52 56 60 64 65 66 65 65 64 69 75 76 62 54 52 50 48 44 41 42 41 40 46 46 51 54 59 62 62 58
34 31 32 33 31 22 19 18 21 22 24 27 30 35 40 44 48 51 51 54 58 62 66 66 67 65 64 71 81 72 61 52 52 50 46 42 39 39 37 37 37 38 39 49 54 61 60 48 61
30 30 30 31 30 31 29 20 18 20 22 26 29 33 39 41 46 49 52 55 57 60 65 67 69 70 73 82 64 55 52 52 49 46 44 41 38 36 34 32 32 38 39 45 37 39 43 56 71

GFSSGP_prec_cthk_051.txt.gz
RH
20 19 16 17 23 23 25 31 39 64 71 64 61 65 70 71 77 86 87 82 76 77 77 72 69 65 57 50 47 44 39 36 33 29 23 18 18 17 16 16 16 17 17 18 19 19 19 18 18
25 18 16 20 21 25 29 31 42 51 80 64 65 69 72 76 83 85 84 85 82 83 83 78 74 66 55 52 51 45 40 36 31 23 17 14 15 16 17 17 17 19 20 21 21 20 18 17 17
27 20 23 23 24 22 25 39 56 61 57 58 59 67 74 82 86 87 89 92 88 89 85 79 74 58 55 54 51 42 39 34 25 18 12 15 16 17 17 19 21 22 23 22 22 22 22 22 22
31 24 28 32 25 21 28 57 72 54 59 58 60 68 76 87 88 98 96 94 94 89 90 78 68 55 55 54 45 39 34 27 18 12 14 16 17 19 21 23 24 24 23 24 24 25 25 25 25
33 34 34 31 29 24 34 70 71 66 62 57 61 70 75 82 82 92 96 92 91 91 86 75 61 56 54 47 40 33 28 18 13 13 16 17 21 23 25 26 26 25 25 27 28 28 28 26 25
28 34 34 32 29 31 44 55 48 72 60 68 67 70 73 64 77 80 85 85 88 92 86 74 62 57 53 41 31 27 19 13 11 15 17 20 25 27 28 30 29 29 30 30 33 35 33 32 29
28 33 35 33 39 50 46 59 68 74 69 81 69 72 72 70 80 83 80 88 83 86 81 72 67 62 42 30 26 20 12 10 14 17 19 25 29 30 31 33 32 34 37 38 40 40 38 37 35
27 36 34 38 46 52 66 71 72 70 69 66 82 72 65 65 73 81 82 85 87 83 81 73 65 47 31 25 21 13 9 12 15 19 26 32 33 34 33 35 38 41 41 41 41 41 40 40 38
29 35 34 61 55 59 74 60 65 73 64 73 71 76 68 54 60 92 96 92 88 91 80 70 56 42 37 26 14 11 11 15 19 27 32 37 41 40 42 40 43 43 41 42 43 44 44 43 47
28 36 45 51 63 73 73 61 59 67 68 74 69 63 52 53 55 73 90 86 87 82 60 51 41 32 31 29 15 16 15 18 31 38 38 51 47 50 51 47 50 49 49 48 50 49 48 52 58
28 36 45 46 65 67 64 65 60 61 59 58 60 54 43 50 69 80 96 75 73 60 47 34 31 28 27 26 22 19 20 31 41 43 50 49 48 57 63 70 71 72 66 68 64 61 61 57 56
38 42 37 46 55 60 52 53 51 67 67 48 56 39 45 56 64 64 68 62 53 40 31 29 26 23 25 23 26 27 33 42 51 53 49 54 57 68 72 82 79 83 82 77 77 72 65 59 55
40 43 53 66 50 56 46 60 79 65 40 37 39 41 54 56 60 63 54 41 33 31 35 35 30 23 26 31 34 41 44 52 57 63 65 71 81 89 93 89 84 82 79 80 69 68 66 60 56
46 50 57 55 52 61 58 46 61 33 38 38 35 49 50 49 50 45 37 34 34 37 38 34 30 34 38 41 42 49 54 55 58 62 69 75 74 74 77 80 84 86 77 75 70 67 64 62 58
45 55 50 43 49 44 53 44 46 39 38 38 43 46 45 44 41 37 35 35 38 42 47 48 47 50 55 58 61 60 64 63 62 62 66 70 76 79 81 82 85 83 76 67 63 61 59 60 61
50 49 47 42 43 46 51 44 33 38 42 43 42 41 39 38 38 38 37 39 44 51 55 60 63 63 60 66 70 75 76 75 73 77 74 77 80 82 84 77 71 62 57 54 55 57 57 55 52
39 43 43 38 40 29 47 41 28 41 48 48 45 44 43 41 42 43 43 45 48 54 62 66 68 67 73 76 90 85 84 88 86 85 85 82 78 74 63 62 58 57 59 57 56 54 50 47 41
34 36 37 38 34 28 33 38 27 37 52 55 54 49 52 48 49 49 51 53 58 61 65 68 68 74 77 79 88 88 83 82 82 80 76 66 66 65 67 65 62 62 58 57 55 49 43 38 35
32 27 28 29 24 29 31 32 31 37 41 49 50 49 51 53 52 53 53 54 58 65 68 64 68 71 74 77 72 67 66 70 68 65 63 70 71 69 70 68 66 60 57 54 49 43 38 36 35
37 38 33 31 24 30 31 37 34 34 38 44 46 45 49 51 51 55 58 60 60 65 67 67 71 77 79 71 65 62 62 64 67 71 70 70 72 73 72 69 69 63 55 47 43 38 35 34 35
36 39 44 34 33 27 39 39 28 32 37 38 42 44 50 52 55 56 56 58 59 63 68 72 70 67 63 62 59 63 65 65 64 71 75 76 74 73 72 67 61 53 47 46 45 44 42 39 36
39 31 30 34 30 36 28 37 45 33 32 37 40 45 48 51 52 53 53 56 60 63 62 66 65 62 60 61 62 64 65 69 74 78 78 76 74 73 66 61 59 56 50 49 51 49 44 45 45
55 33 36 37 34 49 38 27 44 47 40 34 35 40 48 46 46 46 50 56 57 57 58 58 59 59 61 59 62 64 69 71 74 75 73 71 71 69 67 62 57 53 53 56 54 53 52 51 50
34 39 42 37 38 40 31 40 37 48 43 38 36 40 45 46 45 45 50 52 52 52 53 56 58 57 54 56 60 64 67 70 72 69 69 72 70 66 62 60 58 57 56 59 58 51 56 56 56
36 42 48 50 40 39 39 33 29 39 36 33 38 42 46 47 43 45 48 52 51 52 52 52 54 56 58 59 62 63 64 65 68 72 74 69 60 57 54 53 54 53 55 55 56 57 59 60 63
39 44 45 42 35 33 41 25 34 31 25 27 36 42 47 44 44 46 49 50 52 52 52 53 57 59 62 63 62 62 65 66 69 75 71 62 56 54 54 55 52 56 54 53 57 51 61 66 67
45 36 35 37 33 33 22 38 31 23 23 26 33 38 42 40 40 44 47 51 52 52 53 56 61 63 63 64 63 62 66 72 79 70 63 57 54 54 52 50 50 46 45 49 53 51 57 67 67
31 39 34 30 39 33 27 29 34 28 23 24 30 35 35 37 41 47 50 53 53 54 56 61 63 62 64 65 65 67 70 73 69 63 58 55 54 52 50 47 42 40 41 46 47 49 60 66 64
38 28 27 33 37 38 26 24 28 21 22 23 27 31 33 36 40 46 51 54 54 55 57 60 61 62 64 62 74 72 70 64 58 57 56 57 55 52 48 43 42 42 41 45 47 46 53 50 47
30 32 32 35 35 33 34 25 24 20 21 22 25 30 32 36 40 45 47 50 51 54 58 59 60 63 62 75 81 68 64 59 56 55 56 56 55 51 47 43 43 41 44 44 45 45 45 41 46

GFSSGP_prec_cthk_054.txt.gz
RH
17 18 17 16 21 21 20 23 28 35 49 57 63 63 64 70 72 81 86 95 80 75 65 66 66 66 65 59 51 47 38 34 30 24 22 18 17 16 16 16 16 16 16 17 18 17 17 17 16
19 25 21 16 19 21 20 30 50 61 66 56 56 79 69 73 77 83 85 90 84 83 73 70 70 69 66 59 54 44 38 34 29 22 17 15 16 17 17 16 18 19 20 20 18 18 19 20 20
22 25 20 18 18 21 20 49 49 64 66 64 59 56 64 75 78 84 86 89 89 81 76 76 76 73 70 60 52 44 36 32 26 17 12 14 16 16 17 20 21 21 21 20 20 21 22 23 22
24 27 19 23 26 23 20 47 54 70 76 66 61 57 60 67 76 84 88 93 90 90 85 83 83 76 68 59 50 39 33 29 19 11 13 16 16 17 20 22 22 22 23 23 24 24 26 26 25
29 30 22 25 26 26 27 39 45 52 59 64 65 60 61 69 72 80 87 91 98 92 94 89 87 83 65 54 45 35 31 22 14 10 15 16 18 21 23 23 24 25 26 26 27 30 33 33 32
29 33 33 32 30 31 28 42 52 74 64 52 53 65 68 63 73 82 86 88 97 95 88 92 85 73 62 52 41 32 23 15 11 12 16 18 22 25 27 27 27 29 29 31 33 33 36 36 37
24 32 33 35 37 38 48 56 59 69 62 62 59 74 69 66 71 78 82 85 98 90 91 86 80 70 60 49 34 24 17 11 11 15 17 23 29 31 31 30 31 33 36 35 34 34 36 39 39
22 30 32 35 33 63 67 64 72 60 57 60 61 66 75 65 74 80 85 95 91 89 87 85 78 71 57 38 27 21 11 11 14 15 24 30 31 33 33 34 36 40 38 38 39 38 39 39 43
24 28 31 34 46 63 61 69 71 74 68 69 66 65 69 76 62 71 81 94 95 87 82 77 69 53 39 29 21 17 14 13 13 21 30 36 38 40 43 38 40 43 42 44 46 45 45 49 53
24 29 36 48 50 61 66 60 74 80 81 83 70 61 67 61 62 66 78 87 95 94 77 66 52 39 31 24 18 15 13 13 19 27 39 46 51 52 44 49 54 59 58 61 64 61 61 63 61
25 28 41 54 65 64 65 71 73 64 61 51 82 75 52 51 61 75 88 90 83 78 71 57 42 34 36 29 22 17 20 23 28 32 44 56 45 57 64 74 85 74 77 76 71 72 74 68 62
29 34 40 57 54 53 62 66 67 62 60 70 65 63 46 54 79 98 84 86 68 56 45 37 32 30 31 26 29 26 26 29 36 43 52 57 60 65 71 78 77 80 79 81 81 76 72 67 63
34 42 48 49 47 55 58 59 65 62 56 71 52 42 43 58 71 66 92 58 48 39 32 30 26 25 23 30 30 32 36 37 51 56 55 56 65 74 87 79 74 78 75 77 77 70 70 65 59
39 42 54 52 62 56 63 69 57 53 63 45 39 41 46 63 64 91 40 37 32 31 32 32 24 26 33 34 35 42 43 47 54 60 60 62 71 70 76 79 77 81 81 80 73 63 56 54 53
49 49 52 49 57 57 57 62 54 45 39 35 42 45 39 48 59 40 32 29 31 32 33 30 35 42 51 52 51 55 62 65 68 68 67 63 70 73 74 79 79 82 72 64 57 52 51 50 50
48 49 51 42 47 57 55 60 37 39 40 46 48 42 43 41 39 35 35 33 36 44 46 50 50 52 55 59 64 74 74 75 77 73 68 69 73 70 73 73 70 66 61 56 54 52 49 46 44
48 53 46 43 39 54 49 47 40 38 43 46 41 38 36 35 34 35 37 38 42 47 54 55 59 67 72 74 75 76 81 70 65 63 66 66 65 66 64 62 62 57 56 56 54 50 44 41 37
46 46 42 41 37 43 41 41 41 41 40 37 40 43 42 37 37 40 40 44 47 50 56 59 63 75 71 70 72 75 71 66 65 62 62 61 62 59 59 55 58 59 58 56 53 48 42 37 34
41 39 39 38 31 30 35 43 32 31 46 72 40 48 47 46 46 47 49 52 57 59 55 58 68 64 70 75 76 65 51 53 53 55 58 56 54 58 58 59 62 61 61 56 51 49 45 41 39
36 33 31 31 19 23 33 36 29 28 28 41 51 53 54 47 48 49 48 51 55 56 52 62 65 68 71 70 60 52 53 53 53 54 52 57 57 61 65 65 63 59 57 54 51 46 42 41 41
40 45 36 33 20 19 39 28 29 28 33 35 36 41 45 45 48 51 53 53 56 58 65 66 63 66 62 66 59 55 54 54 54 54 55 60 65 66 63 61 60 55 51 48 47 46 47 44 40
54 54 40 45 39 29 36 50 56 36 33 36 39 40 45 44 48 51 55 53 55 56 58 62 61 59 63 61 56 57 56 56 60 64 69 67 67 65 65 62 55 52 50 48 48 48 47 45 44
37 39 38 34 34 42 46 50 46 44 44 41 46 46 48 49 49 52 52 50 51 54 58 61 58 61 58 58 57 56 61 64 65 68 67 70 68 67 61 58 55 51 50 50 51 56 55 51 48
30 33 37 36 35 53 51 53 52 50 55 55 48 44 44 45 47 48 49 52 54 52 53 55 58 56 55 52 55 59 61 63 63 63 62 65 69 71 63 58 58 54 53 51 50 53 49 45 44
33 39 48 78 69 41 33 47 46 49 54 54 46 44 43 44 45 44 44 48 49 50 52 53 53 52 50 52 55 58 60 63 62 63 66 70 76 65 63 58 55 54 52 48 47 50 54 52 40
43 36 58 61 67 51 43 36 39 35 29 36 36 34 39 44 45 43 44 47 50 50 50 51 51 50 52 55 56 57 60 61 64 67 66 71 63 59 57 56 54 52 49 47 46 46 50 50 51
49 44 46 45 39 40 31 26 39 35 36 21 29 33 37 42 41 41 43 46 47 50 50 50 51 52 51 54 57 60 62 63 74 72 66 63 60 57 52 49 48 49 46 44 43 42 49 51 48
26 34 40 34 38 37 25 32 39 49 33 22 29 32 36 39 36 37 41 43 48 49 50 49 53 53 52 56 60 61 64 72 80 74 57 57 56 52 50 52 52 49 46 46 42 42 46 47 45
37 38 29 26 45 56 43 42 42 37 32 20 26 31 35 35 34 37 41 44 48 50 49 50 54 56 58 60 63 65 66 79 76 55 57 56 54 54 55 55 51 48 48 47 47 48 47 45 42
33 41 40 47 35 40 42 33 37 34 31 23 23 32 34 33 35 38 43 44 47 49 53 55 60 59 58 63 67 67 64 61 57 60 56 56 56 57 57 54 51 51 51 47 44 41 40 38 34

GFSSGP_prec_cthk_057.txt.gz
RH
18 18 21 20 18 21 24 25 31 44 70 63 60 57 59 62 70 70 70 72 79 85 71 68 69 68 68 63 56 52 45 37 26 19 13 12 13 14 14 14 14 15 16 17 16 15 16 17 18
18 23 26 20 17 21 24 32 50 49 56 60 61 60 63 67 75 77 79 82 82 81 77 76 73 73 72 64 61 53 47 36 24 16 10 11 14 15 14 16 17 18 18 18 18 18 19 20 21
19 25 25 21 18 19 22 43 52 52 50 55 60 66 67 65 73 80 78 80 82 86 78 84 78 77 72 68 63 56 46 31 22 12 9 13 15 15 17 19 20 20 21 21 21 21 22 24 24
24 26 24 21 20 22 26 42 45 51 52 53 60 67 68 72 70 67 81 88 88 84 84 83 81 79 77 70 64 54 39 28 17 10 10 14 15 18 20 21 21 22 23 23 23 25 28 30 32
27 28 29 20 22 30 40 52 50 52 55 55 55 70 69 67 67 73 81 87 95 90 90 88 89 81 77 74 64 52 34 20 16 10 12 14 18 21 22 23 24 25 25 27 27 29 32 34 36
29 30 30 31 33 56 62 60 63 57 53 55 66 63 64 68 73 73 78 88 93 93 97 95 89 88 79 72 59 43 28 20 12 10 12 17 20 23 25 26 26 27 29 31 31 30 33 35 36
27 33 38 35 36 56 63 65 66 67 58 57 57 65 65 70 76 73 82 91 97 94 94 96 95 89 75 64 48 34 21 11 11 10 14 20 24 26 28 28 28 29 32 34 33 33 38 39 41
26 29 36 34 41 65 65 69 74 72 73 69 74 73 73 59 68 78 83 92 94 92 88 93 91 81 67 55 44 36 22 17 11 12 22 24 27 28 28 28 28 31 35 36 35 41 46 50 54
25 29 32 35 47 66 68 69 70 77 75 73 77 81 75 71 68 77 85 91 93 97 90 91 83 74 57 47 40 28 16 16 15 18 24 27 30 33 34 32 36 43 47 51 51 56 57 60 60
24 28 34 45 50 62 62 58 57 59 56 73 80 83 86 69 72 77 88 92 93 88 81 84 72 56 46 38 28 20 17 12 15 25 29 29 35 38 39 46 55 64 70 70 69 68 69 67 66
26 29 39 45 51 54 55 59 57 57 63 61 61 68 71 60 62 67 83 96 85 82 89 71 57 44 31 22 19 17 16 17 21 27 36 43 47 46 53 62 65 73 79 74 76 72 68 70 70
29 36 46 56 58 49 49 45 53 60 61 73 76 75 68 49 63 80 92 88 76 84 71 55 40 35 30 24 22 22 21 22 29 34 45 52 52 60 61 67 72 78 75 72 70 71 72 73 68
34 44 46 54 52 50 50 49 52 63 66 77 74 69 69 73 88 92 88 81 78 70 50 43 35 30 29 25 23 27 29 33 38 42 47 58 63 62 68 77 79 76 74 74 73 74 74 66 56
38 45 47 48 55 58 56 46 52 65 59 73 54 61 80 84 89 77 68 53 51 39 28 26 25 25 25 29 35 37 44 50 56 61 64 67 64 60 72 74 72 74 76 78 72 63 54 48 48
47 46 44 50 54 58 53 47 48 53 48 64 68 59 81 63 51 28 41 40 33 28 29 26 25 33 39 42 45 55 62 64 65 68 69 63 56 60 64 70 70 68 61 55 54 50 45 43 42
42 44 47 53 57 61 59 50 49 41 43 48 45 46 53 51 40 33 33 38 35 36 33 33 41 42 49 57 64 67 68 67 65 62 57 58 55 58 57 54 51 51 49 47 48 47 46 44 42
47 49 48 53 55 54 52 47 43 38 41 45 43 43 45 45 44 41 41 37 37 38 40 45 50 52 68 67 62 63 67 71 62 55 52 52 49 51 52 54 54 52 49 46 46 47 47 44 40
52 50 45 42 49 48 47 39 46 42 41 43 39 38 37 34 36 37 39 39 41 44 49 54 58 61 66 60 62 69 67 63 54 52 51 51 53 50 52 53 53 52 51 51 49 46 43 41 37
53 55 48 41 40 43 42 39 39 39 38 45 39 39 38 32 35 38 42 41 41 44 50 52 58 70 64 65 66 65 60 50 51 52 50 51 54 54 52 50 51 52 52 49 44 42 37 35 35
49 49 48 40 32 25 31 34 37 44 37 37 42 43 39 32 32 37 41 46 43 42 46 56 67 67 66 62 65 54 48 49 49 48 48 51 49 49 51 54 55 52 52 48 43 39 38 38 41
49 49 43 40 36 22 33 41 48 41 36 34 37 43 41 32 33 35 40 40 43 48 52 56 55 59 58 60 54 49 50 48 45 47 47 49 52 54 58 57 56 55 53 48 43 41 41 43 43
49 45 40 41 36 30 38 54 43 44 46 46 42 47 47 43 40 40 41 43 46 49 52 54 58 58 57 53 55 50 46 45 47 50 52 55 54 57 58 59 61 59 55 56 54 46 45 45 45
46 39 43 44 45 50 47 48 41 48 48 46 50 50 48 41 42 45 45 47 51 52 53 52 51 48 53 53 51 49 47 49 50 53 57 58 60 58 61 62 62 58 53 50 47 45 46 48 46
37 37 36 48 54 58 44 49 50 43 49 50 50 47 49 51 55 55 53 48 45 45 48 50 49 53 53 53 51 50 52 55 58 62 64 64 64 64 63 62 57 54 51 50 49 46 46 45 45
34 34 51 56 61 51 47 54 50 42 40 33 39 47 51 50 52 50 48 47 43 44 48 49 50 51 53 50 48 50 54 58 61 64 65 65 68 69 73 61 54 53 52 50 45 47 47 48 50
42 40 54 61 72 59 57 64 52 47 44 40 44 39 38 39 40 44 44 41 42 44 45 48 49 50 49 48 50 54 58 62 66 66 64 70 76 76 66 52 52 51 48 48 45 44 41 41 43
41 61 52 51 50 52 44 37 36 35 44 45 33 30 33 34 37 38 38 37 40 42 45 49 50 49 46 46 50 56 63 64 62 62 63 79 83 67 52 54 51 49 48 49 46 43 42 44 45
38 41 60 52 39 37 30 33 53 44 49 43 40 31 31 34 36 37 36 35 36 40 45 50 52 50 49 48 54 62 62 64 68 70 67 69 56 50 55 53 55 55 52 50 48 46 47 48 48
38 36 35 37 41 50 53 45 45 50 48 41 37 33 29 31 34 37 36 38 41 43 44 46 51 56 56 59 64 66 65 67 69 69 72 62 51 55 56 58 59 59 56 52 51 50 50 52 53
34 32 41 51 37 42 50 41 33 39 40 35 36 35 32 32 36 38 39 42 45 47 50 51 53 55 60 67 70 68 66 66 73 70 64 54 55 57 59 63 62 59 56 56 54 52 48 41 39

GFSSGP_prec_cthk_060.txt.gz
RH
21 19 20 21 21 23 26 30 32 37 48 60 64 64 64 67 67 64 72 76 66 63 67 69 71 72 70 66 60 62 59 47 37 23 15 10 10 10 11 12 13 14 14 15 16 17 17 17 20
20 21 22 22 24 23 21 25 42 50 52 57 60 66 67 71 68 67 68 70 71 67 70 69 68 74 72 66 66 67 60 47 36 20 11 10 11 12 14 15 15 15 16 17 18 18 18 19 27
20 22 24 23 23 25 23 42 51 48 50 56 61 64 69 76 75 71 73 74 75 73 73 74 71 75 72 73 69 70 59 47 32 19 10 10 12 15 16 16 17 18 18 19 19 19 22 25 29
23 23 23 23 27 27 31 33 44 50 49 56 56 63 69 74 76 75 76 78 75 72 78 80 78 80 76 76 74 71 56 44 28 15 9 11 14 17 17 18 18 19 19 20 22 26 27 28 31
28 26 26 34 31 41 58 55 48 57 64 64 59 58 62 71 76 75 74 73 73 81 88 90 87 87 85 80 78 70 53 33 26 16 10 13 17 18 19 20 20 21 22 23 26 28 29 30 32
32 28 33 36 35 50 56 60 67 67 67 59 53 56 68 71 75 77 83 80 82 91 90 96 95 94 88 84 79 62 40 29 19 15 12 17 18 20 20 22 23 24 25 27 30 30 31 34 38
30 30 36 35 37 46 55 61 66 70 71 65 61 58 68 72 77 80 86 88 84 89 89 94 96 95 85 84 73 44 36 32 27 19 15 17 20 21 23 26 26 25 27 31 33 35 37 44 48
29 29 38 38 35 50 60 64 66 61 65 65 69 73 72 71 74 72 82 92 93 97 97 90 94 88 90 80 47 36 28 17 12 14 20 19 22 25 27 26 27 28 33 45 52 53 50 55 56
29 28 36 40 43 54 55 59 61 59 60 56 64 75 71 75 72 75 85 94 96 97 97 92 91 88 78 56 47 45 40 30 20 15 21 25 29 29 31 37 42 48 51 59 63 64 63 67 63
28 28 32 41 50 51 54 53 54 59 61 62 69 75 74 79 80 78 82 92 99 98 93 92 87 74 62 56 45 35 25 22 21 20 23 29 32 38 44 47 53 57 64 69 71 69 66 67 68
29 30 35 42 46 51 51 48 50 58 60 65 66 77 80 78 81 79 87 90 97 91 84 84 77 68 52 40 32 24 20 19 22 24 27 33 41 43 51 55 61 63 70 72 72 71 69 66 69
32 34 37 46 52 51 48 47 55 59 60 68 72 75 83 83 82 80 83 87 85 80 74 71 62 48 31 22 19 18 18 22 26 28 34 40 45 56 60 60 63 72 73 72 75 73 69 70 64
40 43 46 44 42 45 47 50 53 59 66 66 71 84 87 79 87 93 88 81 74 76 67 56 42 32 24 20 18 19 25 27 32 40 48 56 57 60 65 64 67 71 68 67 70 69 67 65 57
43 45 49 47 45 43 49 51 56 60 54 63 81 81 86 82 78 78 73 79 78 66 54 45 34 31 26 27 33 36 37 41 49 56 59 59 63 61 60 61 63 62 64 69 69 57 49 47 43
52 50 48 47 47 51 56 49 54 59 61 67 82 86 77 64 52 56 54 55 56 49 41 38 33 38 40 42 45 49 55 63 66 58 58 57 54 54 56 57 60 61 61 55 50 47 44 41 38
44 49 51 51 47 60 48 53 46 62 66 64 69 66 55 46 34 34 45 48 40 35 33 38 42 41 43 51 58 62 60 59 57 59 54 50 52 51 54 52 50 48 49 47 47 48 43 40 40
47 48 51 49 51 50 45 43 45 55 59 65 53 47 46 38 33 34 34 35 38 39 36 37 40 47 55 66 64 60 61 63 57 52 47 49 49 48 47 47 49 48 47 49 49 47 42 42 41
56 54 54 53 47 44 40 43 50 46 52 55 55 49 40 34 32 33 36 37 39 46 45 44 49 52 66 66 60 63 62 60 59 53 52 46 46 46 47 49 50 48 49 49 47 45 42 39 37
58 50 49 42 41 44 44 41 46 46 47 55 57 52 43 38 34 34 36 36 43 45 47 49 50 60 70 69 61 58 60 62 57 51 46 45 47 47 48 49 49 48 49 49 45 43 41 39 40
54 56 48 40 38 44 47 44 44 45 49 45 47 46 40 39 40 38 39 40 40 41 46 51 63 63 60 59 58 62 65 58 52 50 46 47 48 48 47 49 50 52 52 51 52 50 45 43 41
51 52 48 42 39 41 46 43 43 44 46 52 47 43 45 41 46 43 45 43 43 45 47 51 54 57 59 61 63 64 55 49 50 46 45 43 44 45 48 50 51 53 55 57 53 46 43 42 43
51 45 46 44 39 35 38 45 46 43 51 55 52 47 44 45 45 46 46 46 47 49 51 54 62 65 61 62 63 52 46 47 42 42 43 46 49 50 50 52 55 57 59 55 48 47 46 47 46
47 50 46 45 46 41 36 40 40 43 45 46 49 47 45 41 44 49 51 52 54 53 54 65 67 61 60 60 54 54 48 42 42 44 47 51 52 52 52 55 58 62 64 54 47 46 51 50 43
42 47 49 47 49 48 47 46 43 49 42 39 44 44 41 41 46 52 52 55 56 55 60 60 56 56 57 53 53 48 42 42 45 49 53 55 58 62 63 64 71 71 63 53 47 51 50 42 40
41 45 53 54 61 53 45 51 43 42 37 34 37 40 41 43 44 47 50 63 55 54 54 49 52 55 50 50 48 47 46 48 53 56 58 64 65 63 58 71 87 73 58 47 48 47 44 41 43
47 48 52 53 58 50 55 46 46 39 40 36 38 40 37 42 45 48 51 53 53 52 47 46 49 50 48 48 50 51 53 55 60 60 72 73 71 72 71 79 69 59 47 47 49 49 46 47 48
49 50 48 54 53 53 51 41 38 35 34 33 40 31 34 38 43 45 44 46 48 46 45 45 48 48 49 51 53 55 59 63 64 66 64 69 90 82 68 67 63 51 46 52 53 52 52 53 53
43 43 48 54 51 47 40 38 44 36 41 45 39 37 35 36 38 38 38 41 39 38 40 42 47 51 53 55 57 60 67 67 74 72 64 70 73 79 62 60 55 49 57 61 58 53 56 57 54
47 37 40 42 48 47 49 38 35 38 47 44 42 36 36 36 32 32 33 34 35 38 41 44 45 48 50 53 58 67 77 75 94 87 80 67 64 63 64 60 55 62 66 68 60 61 61 56 56
50 37 42 54 48 53 50 39 30 34 35 43 43 40 41 38 36 33 31 36 38 38 41 42 46 51 55 61 73 78 80 80 96 77 70 77 60 60 60 61 62 68 72 66 61 63 63 60 57

GFSSGP_prec_cthk_063.txt.gz
RH
24 24 25 25 24 24 27 32 36 38 43 60 63 70 65 72 70 66 67 65 63 61 68 69 69 68 64 61 65 64 62 54 45 32 21 20 11 7 9 12 13 14 15 16 16 16 19 18 20
23 26 28 29 28 27 25 24 42 62 58 55 64 68 71 75 74 71 70 68 60 65 70 69 72 71 65 63 70 65 61 54 42 29 24 19 11 12 13 14 15 16 17 17 17 16 20 23 24
24 27 30 29 31 30 22 28 43 49 51 59 68 69 73 76 73 73 72 68 66 69 74 74 77 74 69 69 69 68 62 57 40 31 21 18 14 14 15 17 17 18 18 19 19 19 22 25 25
25 27 30 31 31 24 33 48 48 47 49 56 66 72 72 73 75 75 75 70 73 72 74 79 84 80 75 73 72 66 68 52 38 27 20 15 15 17 17 18 18 18 19 21 23 24 24 26 27
30 31 32 34 27 35 52 53 53 52 58 63 64 69 68 67 66 68 71 78 75 72 78 87 90 89 84 83 74 71 64 46 39 27 22 16 24 19 21 19 20 20 22 23 26 27 27 29 32
34 32 33 36 31 44 50 55 52 59 61 63 66 67 67 70 72 74 76 82 78 78 82 89 93 93 93 86 74 75 58 42 32 26 23 28 23 23 21 21 21 22 23 25 29 34 43 44 43
33 33 32 38 34 39 53 57 58 60 63 66 62 65 70 73 76 79 83 86 86 87 90 98 95 95 94 85 79 68 49 39 30 21 31 25 24 22 22 23 24 24 26 28 37 46 51 53 52
32 32 31 38 36 46 51 57 57 57 62 67 67 68 70 73 73 76 77 82 87 88 94 98 96 92 90 81 76 52 44 40 39 37 29 26 24 24 24 27 30 30 35 40 45 53 60 63 60
33 33 35 40 46 49 53 55 57 55 58 59 63 65 68 75 75 77 76 81 86 93 98 98 94 88 87 78 53 42 38 31 25 22 23 28 29 29 32 34 37 41 44 50 56 63 69 64 64
34 31 31 42 53 53 53 53 54 56 58 60 64 67 71 78 81 83 87 87 89 97 97 94 97 90 79 61 58 54 44 35 28 27 27 32 33 35 39 45 49 53 58 59 64 66 69 70 67
35 32 31 41 47 55 55 53 51 52 58 58 66 71 75 81 87 94 95 96 98 98 95 94 90 78 70 60 48 37 28 25 24 25 32 31 33 42 49 54 59 60 62 64 68 66 71 69 70
37 34 37 41 54 54 52 49 51 53 58 61 66 69 77 83 87 92 95 95 93 91 83 90 85 68 60 50 43 35 30 26 22 22 27 37 40 46 60 63 65 66 64 67 65 64 66 64 58
40 44 44 43 50 50 46 46 46 57 61 65 69 78 84 90 89 91 85 90 86 84 72 69 58 53 39 28 21 19 22 24 27 33 41 50 53 60 61 63 63 62 62 61 61 63 64 56 49
47 48 47 45 49 48 47 49 51 59 63 75 84 89 93 90 81 83 83 79 74 72 72 62 42 32 25 25 26 28 33 38 46 49 60 60 58 59 60 58 58 57 60 62 61 57 46 43 41
53 52 48 49 47 48 52 52 57 58 62 86 88 66 72 74 61 61 60 62 55 53 59 44 37 38 36 40 43 46 45 51 54 57 56 61 60 53 54 53 55 58 59 53 46 45 44 43 41
54 53 52 49 48 50 51 51 52 59 63 58 61 62 61 57 53 45 44 42 44 47 43 45 45 44 46 50 50 53 58 57 58 62 60 56 52 49 52 51 52 49 46 45 46 47 46 43 41
49 46 47 53 55 52 48 45 43 52 62 56 55 59 49 43 45 41 46 44 45 47 49 49 50 45 52 60 64 62 62 65 63 59 56 51 47 49 50 47 46 46 47 48 48 47 45 43 40
53 51 46 49 54 53 53 48 52 47 53 55 52 50 46 42 36 37 37 41 45 44 45 45 47 47 56 66 68 64 65 64 62 59 55 51 48 46 47 46 44 45 47 47 46 46 45 41 38
56 55 53 51 50 51 51 51 60 55 55 57 58 53 48 39 38 44 43 43 45 49 49 46 44 51 62 68 65 61 62 63 59 60 56 51 47 47 45 45 45 45 46 48 47 47 44 41 41
53 51 47 44 41 42 46 50 52 59 54 54 51 56 50 41 38 38 41 44 47 49 51 53 53 61 62 60 60 58 62 62 63 58 52 48 45 45 42 42 45 46 46 46 47 47 47 46 45
50 53 49 45 37 38 36 42 47 53 55 53 53 46 43 39 37 34 37 40 41 45 48 52 55 61 61 63 64 68 63 64 61 52 47 45 45 42 46 50 47 46 46 49 53 57 55 53 51
52 50 49 43 41 41 34 41 41 44 48 51 53 48 42 43 42 41 43 46 44 45 49 52 55 64 71 65 71 68 64 60 50 47 44 43 45 50 52 50 50 51 55 61 67 66 58 53 49
50 48 44 43 51 44 38 36 30 40 50 52 50 53 49 45 41 44 45 47 50 56 58 59 68 71 65 63 68 66 60 47 44 44 44 48 53 52 51 52 58 54 53 65 68 64 62 52 46
47 47 49 51 54 53 45 42 37 40 43 48 48 51 45 44 42 42 49 47 51 61 66 71 73 63 62 64 67 58 53 47 46 46 49 52 52 57 64 63 71 75 77 67 63 63 58 45 46
43 47 53 56 60 53 48 48 42 38 42 40 41 43 46 45 42 42 47 53 62 73 69 66 66 59 59 62 55 57 55 49 49 50 52 56 56 68 84 63 82 90 82 66 57 55 43 44 46
46 46 54 46 53 48 45 45 37 38 39 39 33 35 39 42 44 49 53 60 69 73 63 58 54 50 54 53 58 56 51 51 54 56 60 73 74 84 84 78 72 66 64 60 57 52 44 46 51
49 47 43 49 50 53 46 39 38 31 36 39 36 35 30 33 35 42 46 54 60 54 55 48 43 46 49 51 52 53 56 59 60 66 78 74 90 96 97 82 71 56 55 58 55 49 54 63 65
50 51 52 53 50 46 42 40 38 33 34 41 37 33 32 31 32 35 42 48 49 46 43 40 42 44 47 49 50 56 66 67 71 75 78 83 90 96 89 65 67 63 54 58 58 68 69 67 63
53 53 48 44 51 57 54 43 33 30 32 34 32 35 38 35 34 35 38 43 40 41 40 40 43 44 44 47 54 62 70 72 75 75 88 96 87 79 68 61 62 59 61 67 77 73 62 57 58
50 51 54 51 45 50 52 43 30 28 34 37 37 39 43 43 41 40 41 40 43 44 48 46 48 53 58 64 69 73 77 80 77 86 83 77 76 66 64 64 62 61 74 79 65 58 59 58 58

GFSSGP_prec_cthk_066.txt.gz
RH
20 23 24 26 29 32 36 33 36 43 40 58 58 71 68 69 63 66 68 68 63 68 69 69 70 68 66 59 57 57 56 59 50 40 32 26 24 15 10 11 13 15 15 16 18 18 20 22 24
20 24 28 30 31 35 31 30 45 63 66 56 61 64 68 74 71 74 73 72 71 70 70 72 72 72 67 60 60 59 59 55 46 35 29 26 22 17 14 15 17 17 16 17 20 21 23 24 26
21 26 29 31 32 32 30 24 42 54 54 59 64 69 75 73 77 75 78 77 76 70 73 73 75 76 72 67 65 61 64 54 44 36 31 28 25 18 17 18 18 17 17 18 21 24 25 25 24
26 27 28 30 29 30 30 40 50 54 54 57 63 73 72 71 72 76 78 80 79 76 78 78 80 80 75 73 72 70 63 48 47 38 30 31 28 26 24 22 19 19 20 21 23 25 26 27 31
28 29 31 28 29 32 45 51 54 56 56 60 61 68 68 66 64 70 72 74 76 79 84 83 82 88 83 84 80 74 57 56 48 35 31 29 26 22 24 21 23 21 22 23 24 26 29 39 41
33 31 32 34 33 37 52 56 58 62 61 61 62 62 63 64 65 67 70 70 76 78 86 90 92 92 90 92 88 74 63 63 50 40 37 34 27 26 26 25 22 24 25 25 26 32 38 47 48
33 35 33 35 36 43 53 58 60 62 59 61 62 65 66 68 70 71 75 79 81 87 94 95 92 93 94 88 84 76 70 51 39 34 36 30 32 33 28 22 24 27 27 30 34 40 47 51 55
33 35 31 36 40 46 53 60 60 55 56 59 62 67 70 69 73 73 77 84 89 92 96 94 97 99 94 89 83 73 56 45 43 40 34 46 37 27 26 29 28 33 36 37 44 46 53 57 57
35 36 33 36 45 49 60 61 57 57 55 62 65 68 69 73 73 77 79 76 80 84 92 95 98 96 91 86 76 62 49 43 43 40 45 33 33 31 29 31 37 38 43 49 51 56 59 60 59
37 36 33 33 42 51 59 61 58 56 57 62 65 68 70 73 75 76 80 78 84 87 90 94 99 95 90 79 62 51 46 43 42 39 35 35 33 34 34 37 43 51 56 61 60 61 65 60 58
38 36 35 35 45 55 58 59 57 55 54 56 61 68 75 80 84 83 86 90 91 94 98 98 92 95 87 69 60 57 49 39 33 34 36 39 36 33 42 50 59 62 63 63 60 61 62 59 58
39 37 36 38 43 52 55 54 55 55 59 60 63 70 73 76 79 83 93 99 99 93 87 93 87 82 79 67 52 44 41 36 33 28 30 32 35 42 51 62 62 63 61 58 58 58 58 60 57
39 45 44 43 46 47 49 51 50 53 56 59 67 71 77 78 82 92 94 93 94 89 92 88 81 70 62 53 43 37 32 28 27 30 34 39 48 56 60 61 60 59 59 58 57 60 62 57 45
43 49 49 48 49 48 49 48 50 59 61 76 79 87 87 88 85 88 91 88 83 75 70 71 70 63 55 38 32 28 30 39 44 48 57 60 62 61 57 57 56 55 56 58 60 60 50 43 38
52 52 53 52 53 52 51 54 62 63 60 55 73 84 82 85 84 86 77 70 71 66 54 48 48 43 43 34 37 43 49 51 56 61 58 59 62 58 55 53 51 54 55 54 50 45 43 43 40
53 51 55 55 54 51 54 55 55 62 56 48 59 66 62 73 72 65 59 55 58 53 47 46 48 47 40 41 47 51 53 58 60 59 61 56 53 51 49 48 53 54 51 44 45 45 43 42 42
47 47 48 51 51 48 54 54 53 57 55 51 50 55 55 60 64 60 51 49 47 47 51 54 55 52 50 56 58 60 61 67 67 66 59 54 51 52 51 52 49 44 46 46 45 44 46 46 44
54 55 53 51 48 52 47 51 63 58 59 58 51 49 49 47 48 48 49 48 48 52 56 58 59 56 55 60 67 68 66 66 65 63 59 54 52 52 50 47 45 45 47 47 47 49 48 44 42
51 58 57 48 47 47 46 49 60 64 61 65 57 51 46 43 40 43 45 48 49 48 47 48 50 54 59 64 66 66 63 63 64 59 59 56 56 50 48 47 45 45 47 47 48 46 44 43 42
52 57 58 53 49 47 50 44 50 56 61 58 59 54 47 44 40 41 40 41 43 45 45 47 49 54 56 59 62 62 63 66 64 63 61 58 53 48 49 45 46 48 46 46 48 49 50 50 51
53 55 53 52 47 46 47 45 41 46 52 55 54 52 51 46 41 40 40 40 43 47 48 50 51 51 55 57 63 72 76 71 67 64 59 55 49 47 44 46 47 46 48 51 49 51 56 59 55
52 49 48 45 39 41 38 43 39 40 46 50 53 54 54 54 50 43 42 43 42 42 45 49 51 54 62 69 69 78 83 79 67 59 55 49 45 43 46 50 49 51 56 59 65 64 69 67 58
47 46 47 46 46 41 43 42 32 33 40 46 48 49 48 53 52 50 50 51 55 52 56 56 57 61 68 75 72 78 82 79 60 51 48 45 44 47 51 54 59 63 63 70 76 71 59 56 52
48 49 49 50 48 49 47 45 39 41 41 42 43 47 50 51 50 52 49 54 57 52 63 62 62 75 72 71 73 82 82 66 51 49 46 46 47 58 65 70 76 79 77 83 80 72 55 47 45
49 49 55 55 59 51 46 49 39 38 38 40 39 39 43 44 49 52 49 51 50 56 65 69 69 71 77 67 64 73 68 56 59 52 48 49 57 70 74 77 83 85 92 88 71 62 55 47 46
50 48 56 52 54 49 46 47 36 37 38 39 38 33 32 34 38 41 43 45 53 58 72 69 62 57 54 55 65 65 55 62 70 58 57 61 68 74 80 85 97 96 86 74 63 59 51 49 54
50 50 49 58 56 57 44 36 29 31 34 38 43 38 34 28 26 31 34 38 49 53 71 55 48 49 48 52 58 53 61 68 55 58 61 73 74 81 81 92 94 88 76 64 59 53 52 59 69
49 50 53 55 53 49 42 43 36 31 31 34 42 40 32 27 26 27 28 34 40 47 56 47 51 45 45 50 48 54 54 55 61 71 72 71 74 83 92 87 88 68 60 57 57 61 71 74 64
51 52 53 55 57 54 53 47 38 36 32 34 32 31 29 31 31 29 31 35 39 47 51 55 46 43 45 47 50 53 58 68 76 82 77 82 80 81 82 74 60 61 66 65 67 77 72 66 64
41 47 49 59 52 57 55 47 33 36 30 32 34 33 32 36 40 42 42 42 46 53 62 59 54 52 54 56 62 66 83 84 86 81 88 97 94 88 61 64 67 70 66 73 81 73 69 60 55

GFSSGP_prec_cthk_069.txt.gz
RH
18 20 24 27 27 27 28 29 34 38 55 61 58 63 64 63 61 60 68 68 68 69 72 69 68 65 65 60 56 55 56 54 52 49 37 34 28 27 19 14 14 15 15 16 19 20 23 24 24
19 22 29 29 29 30 30 31 42 54 61 63 65 60 63 70 66 65 68 69 72 75 73 71 71 69 68 65 62 61 58 49 45 47 33 32 25 26 21 17 16 17 17 19 21 22 24 25 26
22 29 30 31 32 29 29 29 37 46 56 67 68 68 69 75 72 74 73 74 81 81 77 74 71 71 71 67 65 63 57 47 47 40 34 31 32 26 26 19 17 19 20 22 23 24 25 26 27
26 31 31 32 30 28 33 34 48 49 59 60 67 76 79 75 72 77 77 81 82 80 79 79 77 77 74 70 69 64 56 49 50 44 36 34 31 29 26 20 21 21 22 24 25 25 27 31 37
29 34 34 31 30 34 42 47 56 54 64 73 71 80 79 82 76 74 75 81 79 82 81 81 82 83 79 76 76 67 55 54 47 40 40 34 34 31 27 26 26 24 24 25 26 28 32 38 46
33 35 33 31 32 41 48 54 59 63 69 69 69 68 74 76 69 67 73 73 74 78 81 85 89 88 86 86 77 61 56 53 50 50 42 43 36 31 25 27 26 29 26 27 28 31 37 45 52
33 37 34 33 40 47 47 56 60 61 64 68 71 68 71 66 69 71 70 72 79 82 86 91 97 95 94 84 73 68 62 59 60 45 46 43 36 32 31 34 31 28 30 30 36 40 45 50 54
33 36 34 34 42 46 48 61 64 61 60 62 62 65 69 73 73 74 78 76 75 82 93 96 97 99 96 92 76 72 69 68 52 42 39 38 35 40 40 35 31 32 31 38 43 48 52 55 57
36 35 35 34 43 44 51 57 62 60 59 62 63 62 65 73 72 76 76 79 80 86 95 98 98 97 98 94 86 79 74 55 49 48 45 44 47 42 32 35 36 35 40 46 52 54 55 57 56
40 37 34 32 34 44 51 55 57 57 58 61 62 63 68 69 71 75 76 79 78 85 88 87 92 94 90 92 87 78 63 53 45 42 49 46 39 38 42 39 40 46 51 57 61 57 56 54 53
41 39 36 35 36 43 49 53 55 54 54 57 58 61 66 70 77 78 81 81 82 87 89 89 90 84 84 80 73 63 56 53 53 52 42 41 44 42 39 41 49 62 65 64 61 52 54 54 54
41 42 40 38 41 47 50 52 51 51 52 55 59 65 70 71 77 83 85 87 89 93 94 95 94 93 87 82 68 59 58 47 40 36 40 43 40 40 43 52 63 69 65 58 56 54 54 54 56
37 43 47 44 50 51 52 50 51 53 51 55 61 68 71 78 79 84 88 90 95 97 94 95 92 89 83 74 68 56 43 37 37 35 35 36 40 45 54 63 68 68 60 56 55 55 55 52 42
39 50 53 54 55 55 51 52 54 53 56 71 78 80 84 87 86 85 91 96 93 93 94 94 89 81 71 62 51 41 37 34 34 39 45 52 55 63 68 66 61 56 54 54 53 52 44 38 36
48 50 52 55 54 54 53 53 58 60 60 63 74 92 94 92 95 96 94 85 82 79 71 71 70 64 64 53 39 36 39 46 52 55 62 70 70 75 71 56 52 52 51 52 50 40 39 37 36
47 47 52 50 53 52 53 50 58 56 55 57 59 67 81 91 90 97 78 69 62 54 52 52 49 49 54 46 41 44 50 58 67 65 64 63 65 58 53 50 50 52 51 45 40 41 40 39 39
41 45 50 52 49 48 50 52 55 55 52 51 54 55 71 70 73 73 73 61 54 53 54 56 56 53 49 46 46 53 60 64 69 71 73 61 58 53 51 51 52 50 44 42 44 44 43 42 38
45 45 51 53 48 49 50 49 54 57 57 52 52 47 65 59 55 56 53 57 59 62 60 62 64 62 56 51 59 63 61 68 71 74 71 61 57 53 51 52 49 43 43 43 44 44 43 42 39
48 52 50 46 49 54 49 51 54 56 60 55 53 50 41 49 47 51 53 53 53 56 60 62 63 63 59 59 63 65 68 69 72 78 66 60 55 54 53 47 44 44 44 45 45 45 44 44 44
51 51 55 50 49 50 47 46 50 56 54 55 52 49 47 45 47 46 47 48 48 48 50 52 55 59 61 57 59 63 62 64 70 69 61 59 55 51 47 45 44 44 46 45 48 51 50 55 57
51 50 53 54 52 48 45 40 45 48 51 52 56 53 46 41 39 40 41 42 43 44 46 47 48 50 56 58 57 62 66 76 78 74 67 59 51 48 45 44 45 48 49 50 54 57 57 61 60
51 47 49 50 48 43 38 37 38 43 47 52 55 54 51 47 44 41 41 42 42 42 44 47 51 53 54 57 61 63 75 83 89 83 68 56 51 47 45 44 52 58 60 59 68 70 67 69 64
50 51 53 50 45 41 40 34 32 38 42 40 48 55 55 50 49 46 45 47 51 53 50 52 55 57 59 66 74 71 78 91 93 88 67 55 53 47 46 51 60 68 72 72 81 78 75 74 64
47 50 52 52 52 52 46 42 33 34 39 41 45 49 53 51 54 53 52 55 56 57 59 59 66 63 68 78 75 74 78 93 93 78 59 62 58 51 51 61 72 73 75 77 86 84 77 68 54
47 48 50 53 55 50 49 47 39 35 36 38 40 42 44 50 50 51 55 57 53 57 59 61 70 68 72 80 82 69 68 86 88 65 58 69 61 56 66 75 78 78 78 90 90 85 73 62 48
49 48 50 46 48 45 48 43 36 37 35 34 35 40 36 42 42 45 48 52 51 54 57 67 74 74 74 62 54 56 67 80 78 59 67 58 59 68 75 79 81 85 87 92 76 62 56 56 54
50 52 50 55 55 54 43 35 30 31 32 35 35 42 40 38 35 35 39 42 44 49 57 68 67 64 58 54 49 56 72 71 65 78 66 64 72 78 79 84 86 92 90 72 60 55 60 61 66
49 52 54 54 53 50 41 39 32 33 34 38 35 39 39 34 32 28 29 33 38 44 47 59 63 50 53 50 48 57 65 64 72 70 74 79 87 90 93 87 91 97 79 58 63 66 65 68 72
50 51 50 51 52 52 51 40 31 34 33 36 35 32 30 32 26 26 26 27 31 36 41 48 52 58 56 48 50 56 58 62 71 81 86 91 92 95 97 95 90 72 61 69 70 68 72 74 69
45 45 48 57 50 54 50 42 37 33 34 35 34 33 31 30 31 31 35 40 38 42 47 50 62 61 53 51 58 63 66 72 84 89 92 92 95 96 94 81 68 69 69 72 72 75 75 69 64

GFSSGP_prec_cthk_072.txt.gz
RH
17 17 19 23 28 25 28 31 28 30 39 49 50 65 72 69 61 62 66 66 67 68 69 64 63 63 64 64 64 66 67 60 50 51 46 39 31 26 23 20 18 16 16 19 20 22 23 24 24
19 20 23 28 28 30 26 31 36 45 45 53 57 66 68 72 68 65 66 67 69 70 70 68 66 65 67 65 66 63 58 54 51 47 45 33 30 23 23 24 21 19 19 20 22 24 25 25 26
22 23 28 28 27 29 28 31 38 49 55 56 54 62 68 72 69 70 68 68 75 74 75 72 68 67 66 65 59 56 57 55 45 43 40 32 29 27 26 25 23 21 22 23 24 26 27 28 31
25 29 27 27 34 30 31 35 49 58 53 64 71 64 76 72 76 76 72 70 79 76 77 75 72 72 69 65 64 63 58 49 41 44 39 33 33 34 28 27 25 23 25 25 26 27 28 31 38
27 29 31 31 30 29 34 46 58 63 58 66 60 73 80 84 77 76 75 77 79 85 86 78 76 77 73 72 71 64 54 46 43 46 45 38 35 32 29 29 26 29 29 27 28 29 32 37 43
32 31 34 31 31 37 42 64 61 67 63 65 73 73 72 91 82 75 75 76 84 87 87 81 81 82 80 80 75 64 55 48 49 47 44 39 40 36 32 28 29 32 32 31 30 33 39 44 47
31 35 35 31 37 46 48 61 61 59 65 70 71 74 77 85 77 75 74 83 92 96 91 85 87 92 92 91 76 67 55 51 51 53 44 50 44 38 37 35 33 34 32 34 37 39 47 50 51
31 34 34 32 43 48 47 57 60 57 55 58 63 70 69 69 70 69 68 72 80 87 94 90 93 98 99 87 74 62 56 57 57 59 54 46 38 39 38 36 36 36 36 37 40 50 53 54 56
33 35 35 35 40 43 50 54 55 58 58 58 59 61 65 68 72 74 71 74 76 88 93 94 98 99 95 88 76 69 64 62 65 62 51 47 43 41 45 42 42 38 39 41 53 57 60 60 57
36 37 35 34 33 37 44 52 56 56 57 55 56 58 61 64 67 77 78 78 80 84 90 94 96 96 95 92 82 74 71 76 64 47 47 45 45 51 47 36 41 41 46 56 61 63 62 58 56
37 39 36 36 36 36 44 52 54 52 53 53 58 62 62 67 69 76 78 82 83 84 90 99 93 87 83 87 88 87 78 67 55 53 55 54 53 49 48 43 47 51 58 62 68 62 56 57 54
36 39 41 39 44 47 49 51 51 49 50 49 54 63 69 71 74 76 78 80 84 86 89 94 95 96 88 93 92 86 82 67 60 54 55 51 46 45 49 49 50 57 64 68 62 59 59 56 55
31 40 46 45 50 50 50 48 51 48 47 48 59 64 67 72 77 77 80 83 87 88 89 91 95 91 92 86 80 73 69 64 62 61 51 45 48 45 44 49 55 64 72 63 58 56 55 47 38
37 41 51 51 50 50 49 52 52 53 51 53 73 78 78 76 80 81 81 82 88 87 92 94 95 94 91 88 86 78 68 61 58 53 47 43 41 45 56 66 71 69 63 57 55 51 44 37 36
45 49 47 47 49 51 50 56 54 53 54 55 70 86 87 88 88 87 89 88 91 93 95 94 96 97 86 76 65 52 46 46 47 40 37 46 57 67 76 80 65 58 53 52 49 40 37 38 37
47 46 54 49 46 47 48 56 53 52 52 55 59 78 94 97 95 97 97 95 98 96 93 89 88 83 77 59 53 47 43 41 40 50 61 66 76 78 78 65 54 49 50 48 41 39 40 39 38
43 48 47 45 43 42 45 51 53 50 45 51 58 69 79 94 92 84 82 74 67 59 60 60 60 71 55 43 40 47 53 57 65 71 73 75 76 61 55 52 50 50 47 43 39 39 41 39 38
48 46 43 45 46 44 46 47 50 54 50 48 52 62 67 67 72 70 70 67 64 56 57 59 68 76 64 60 52 51 57 65 72 75 76 78 74 58 54 50 51 47 43 40 40 40 41 41 42
44 48 49 49 44 46 48 46 49 56 59 49 47 43 58 58 57 60 65 61 63 65 66 69 70 67 63 55 57 61 61 67 71 76 84 88 70 58 51 53 47 42 41 40 41 42 45 47 49
49 52 51 48 42 46 47 46 47 52 53 54 49 46 43 48 53 52 55 58 61 62 62 64 67 71 66 65 62 64 65 69 75 79 85 74 61 58 55 48 42 41 40 42 45 50 54 54 54
48 51 49 46 45 43 43 41 43 46 51 49 52 47 44 42 45 47 48 48 48 49 53 59 65 69 71 67 61 66 68 68 68 80 82 76 68 59 50 44 42 41 43 49 57 58 62 63 68
51 48 45 44 44 48 40 42 35 38 43 46 51 49 45 44 41 40 41 43 44 46 50 51 56 58 58 64 64 62 68 73 78 85 88 83 74 61 49 46 44 45 51 60 64 67 72 74 72
49 48 47 47 41 38 36 34 39 34 37 39 47 52 52 48 43 41 41 43 45 47 49 51 53 55 57 57 61 66 72 75 82 92 95 92 75 61 57 54 51 51 62 70 73 76 76 80 79
48 50 51 49 47 47 43 37 37 37 37 39 42 46 51 53 50 48 47 49 51 53 56 61 60 64 66 64 67 75 81 81 81 86 91 91 69 58 63 63 57 60 72 75 80 83 86 84 67
48 51 56 55 50 50 44 41 40 34 35 36 39 43 50 51 52 57 56 54 51 53 56 61 66 65 72 71 80 89 85 82 77 75 89 88 70 59 66 62 67 74 77 78 80 88 90 79 69
46 50 55 52 51 48 42 37 36 32 32 31 33 39 42 44 44 53 57 58 57 57 55 58 60 67 74 75 80 82 69 64 61 71 84 76 67 75 68 72 76 77 81 87 85 88 86 77 63
48 50 49 50 50 47 40 37 28 28 27 31 31 36 42 43 41 44 51 55 56 58 54 55 63 67 72 74 72 64 60 58 61 75 82 72 76 76 74 79 82 89 91 93 89 76 75 66 64
46 50 51 50 53 50 40 35 34 30 32 33 31 30 40 41 39 39 41 43 45 49 53 52 61 63 62 65 53 53 54 59 65 74 77 77 83 83 87 92 95 97 97 95 79 70 66 64 66
46 47 48 49 49 50 47 40 34 30 32 32 32 31 31 33 35 36 33 32 35 39 44 48 50 58 66 57 59 63 66 68 73 80 85 88 86 93 97 97 97 97 91 77 71 70 68 69 72
46 47 51 49 53 50 48 40 37 34 34 32 32 33 31 31 31 28 31 31 32 38 42 44 50 58 64 69 66 64 66 72 78 85 90 94 98 99 97 97 95 94 86 75 77 75 72 74 73

GFSSGP_prec_cthk_075.txt.gz
RH
16 16 18 21 25 32 27 24 26 28 30 44 45 34 55 76 76 87 76 63 58 60 58 56 58 63 62 63 64 63 64 64 62 56 50 45 34 29 20 21 22 22 21 21 21 21 23 23 23
22 20 22 25 30 27 26 27 32 29 39 40 41 29 40 75 63 97 82 73 68 64 64 63 62 63 63 64 64 64 65 66 59 53 51 42 30 27 23 24 23 25 24 24 24 24 25 27 29
21 23 27 42 35 29 25 33 31 43 58 44 47 45 54 59 91 74 75 72 70 64 66 66 62 64 64 66 66 66 68 62 55 50 50 38 30 27 26 26 27 28 28 26 26 27 28 30 34
23 27 31 26 28 31 26 29 41 50 42 41 54 47 55 61 80 79 73 73 72 65 65 64 65 67 70 70 70 69 63 57 56 48 46 38 30 31 30 29 30 29 30 28 28 29 31 34 37
24 28 33 32 26 25 30 39 41 45 69 42 50 53 50 56 65 72 74 70 69 72 71 70 72 74 77 77 73 64 60 60 50 46 42 36 36 37 37 32 32 30 29 29 29 31 34 37 42
27 31 33 33 31 30 45 40 40 61 75 49 64 71 63 59 56 62 77 77 88 90 84 78 81 82 81 74 69 65 64 56 45 45 41 46 42 39 36 36 33 34 30 32 31 33 38 44 46
27 39 34 29 27 44 55 55 76 62 48 81 55 85 70 63 62 65 89 90 89 92 97 86 85 84 81 75 76 73 63 54 45 44 45 53 45 46 44 38 39 36 35 35 36 40 44 49 52
27 33 31 28 35 51 55 53 56 57 63 56 59 78 72 71 71 85 88 95 91 77 97 92 93 88 87 89 85 72 63 56 50 49 53 57 55 50 41 38 39 38 39 39 42 46 48 54 55
28 33 37 29 32 50 51 46 58 51 55 58 59 60 63 66 69 71 81 85 80 84 96 96 96 95 94 93 80 63 62 57 54 58 60 64 52 47 43 45 48 48 39 46 50 49 57 60 58
28 38 37 34 35 35 34 41 50 52 58 61 64 61 61 62 68 74 78 82 81 82 86 91 94 98 96 94 86 74 68 61 63 64 72 60 53 49 52 51 50 49 47 54 54 62 62 60 51
41 39 43 35 38 34 40 53 49 52 55 66 56 67 65 65 66 67 73 79 83 84 87 88 91 92 95 94 88 84 75 76 71 80 68 61 58 58 51 52 49 50 54 56 65 67 64 56 52
34 39 36 41 36 40 57 49 51 52 51 47 47 56 60 64 75 71 71 75 82 86 87 88 89 86 88 91 81 71 75 76 79 73 72 65 56 56 60 52 52 55 57 64 69 64 56 54 49
37 35 42 42 38 46 46 50 44 48 44 39 47 68 68 66 72 78 78 81 80 80 85 87 90 90 89 90 82 85 84 83 74 73 72 65 68 71 63 60 57 55 59 71 68 59 53 47 35
45 35 44 42 53 47 42 55 45 62 46 43 47 70 82 85 73 73 80 84 83 87 88 88 93 98 92 95 93 89 85 82 79 77 73 70 70 71 75 54 55 63 75 70 59 53 47 38 36
41 38 46 42 50 52 46 53 82 46 43 52 54 66 75 81 81 79 82 84 84 88 86 94 93 95 93 94 90 89 86 81 74 70 62 61 79 69 52 66 73 81 66 56 51 47 39 38 37
44 47 55 66 57 47 39 64 77 47 46 51 57 64 71 87 88 87 88 89 85 84 86 91 94 94 93 91 89 84 82 68 66 62 64 54 52 61 77 85 86 64 56 50 47 42 39 38 36
51 51 50 50 47 42 39 52 69 46 47 49 61 59 60 81 96 97 92 93 94 92 95 93 90 89 83 75 65 63 55 50 61 62 69 59 72 80 86 82 59 51 49 49 44 39 39 37 38
49 54 43 34 53 48 45 47 52 47 51 51 57 63 55 60 83 84 81 81 78 80 87 92 91 81 71 57 48 44 55 63 67 71 85 79 79 79 70 58 54 51 47 44 39 37 37 41 42
45 43 43 44 50 40 43 47 48 55 50 51 48 51 58 50 64 65 59 57 55 53 58 69 89 79 71 61 59 61 68 71 72 80 79 78 83 85 64 59 55 50 44 40 37 39 43 46 49
42 46 45 46 45 35 45 48 50 49 49 51 46 42 49 52 54 55 57 61 62 62 61 67 77 78 70 65 62 64 69 68 75 77 76 84 92 81 70 60 54 48 42 39 40 46 51 53 52
45 50 50 50 50 38 37 42 45 49 50 53 50 45 43 45 45 50 52 54 58 56 56 61 68 77 74 75 66 66 68 71 69 79 82 82 87 75 70 59 53 46 43 44 46 54 59 63 63
50 46 42 44 42 58 45 47 47 44 47 49 50 52 45 45 38 42 46 46 47 50 50 56 64 73 74 74 72 71 72 75 76 75 75 82 92 85 78 71 57 51 49 52 55 59 67 69 70
49 46 41 45 45 46 41 31 37 37 39 46 46 52 57 54 47 42 36 40 43 45 46 50 56 59 61 61 67 68 70 74 81 77 79 88 92 93 86 76 60 58 59 59 59 66 73 73 76
46 44 43 46 47 52 43 38 42 39 35 46 46 49 48 56 56 54 49 48 48 47 50 54 60 66 65 62 62 65 67 72 78 80 83 86 82 86 87 75 70 63 66 63 67 72 75 76 75
45 48 57 58 52 49 53 36 34 43 39 34 39 46 48 54 58 58 54 55 54 54 53 56 59 62 70 65 67 71 69 74 80 82 81 82 83 90 90 76 70 71 69 72 74 79 78 79 80
45 51 54 61 57 49 53 34 37 36 34 29 31 33 37 43 54 54 56 59 54 55 53 59 62 61 68 67 73 80 84 84 77 62 71 80 82 87 87 77 73 80 76 81 82 86 86 89 85
51 48 48 56 49 45 45 38 33 31 29 28 31 38 36 38 43 51 56 60 59 58 54 57 59 59 62 70 75 80 80 79 69 64 64 71 80 89 86 80 83 86 86 86 91 97 94 86 80
43 52 53 49 54 63 41 42 35 40 34 39 37 39 41 39 42 43 47 52 57 57 55 56 56 56 60 67 68 71 71 65 66 64 69 79 88 94 91 87 89 87 92 97 97 95 87 85 85
38 43 49 49 57 58 53 39 49 40 37 38 40 37 34 34 37 43 45 46 51 53 53 53 56 57 58 64 64 63 68 66 71 74 76 81 90 98 94 94 95 98 98 97 97 93 90 91 85
47 50 48 52 50 50 49 45 45 41 41 39 37 39 37 32 33 34 33 34 37 42 47 51 55 61 62 63 65 72 72 73 74 74 77 89 98 99 98 98 94 95 97 96 95 94 91 89 83

GFSSGP_prec_cthk_078.txt.gz
RH
13 16 18 17 26 26 29 29 26 28 27 30 31 35 28 38 50 54 52 71 96 71 51 51 50 49 52 53 55 57 56 57 57 54 50 42 35 25 24 24 22 22 25 25 25 24 22 23 24
16 21 19 25 31 33 30 32 32 30 40 33 28 27 29 41 44 50 49 66 96 86 48 53 50 52 56 57 58 60 60 61 60 54 50 42 34 25 25 26 24 27 29 28 27 26 26 28 28
17 20 25 34 39 33 32 32 30 33 41 42 33 30 30 52 36 39 48 66 93 92 63 60 55 58 60 60 61 65 67 66 62 54 51 40 34 26 27 26 29 32 32 30 29 29 31 31 31
20 22 29 34 29 26 26 30 33 32 40 44 48 59 51 42 40 35 48 61 94 87 75 67 68 71 73 74 70 73 74 72 62 56 49 38 34 31 31 28 31 34 32 32 32 30 34 33 32
21 26 33 37 35 34 31 32 26 26 35 45 69 78 67 59 47 44 55 72 92 87 81 75 80 79 76 76 75 81 81 72 63 52 43 38 34 36 37 34 34 36 34 32 32 32 35 35 37
25 32 38 38 36 39 38 32 40 50 54 67 76 84 80 72 65 55 55 67 82 90 80 77 81 80 77 81 77 82 76 66 64 48 40 36 38 40 40 38 39 38 36 34 35 34 38 38 46
25 32 37 33 28 32 34 40 49 62 68 73 70 72 60 65 67 60 58 76 98 96 96 82 83 89 88 85 85 77 68 67 56 45 38 38 44 46 45 44 39 39 36 35 38 41 44 46 51
25 27 31 33 34 33 35 43 56 61 48 64 82 58 56 69 73 69 72 79 85 95 93 98 98 96 92 88 82 75 72 65 53 44 41 44 48 54 51 50 50 41 37 44 43 43 49 50 54
23 32 40 43 35 35 32 39 41 47 42 60 83 61 58 63 66 75 72 72 91 84 86 83 96 99 88 82 81 76 71 59 50 49 52 54 54 58 58 54 48 43 49 50 47 50 52 55 59
25 35 44 40 34 33 27 32 40 45 50 69 71 90 69 61 60 66 70 79 89 85 82 89 84 93 92 88 85 76 65 57 55 57 59 60 62 67 57 53 48 48 56 47 51 53 56 61 58
30 32 40 39 39 32 26 38 49 53 60 52 50 49 60 64 63 67 69 71 74 74 74 78 83 90 94 88 83 73 73 67 70 66 73 68 68 60 56 50 51 57 54 54 56 57 63 63 50
41 29 32 39 37 32 32 51 50 55 67 53 43 45 56 67 65 72 79 77 79 76 82 89 92 91 90 84 81 83 82 78 70 81 78 73 68 65 61 57 60 58 53 55 53 64 66 51 46
37 36 31 39 36 30 38 35 54 59 70 59 40 39 50 75 73 70 80 79 79 87 87 87 90 93 87 92 86 86 81 78 84 87 75 69 68 66 66 63 58 55 54 53 64 72 57 48 35
33 35 35 45 46 56 45 50 54 64 69 59 43 46 53 70 80 75 70 79 78 82 86 87 90 89 94 91 90 85 82 87 86 82 73 75 76 77 72 71 61 55 51 68 72 58 49 38 35
36 30 51 48 47 54 51 47 46 49 52 64 49 47 55 59 68 79 76 74 80 85 86 85 88 83 85 97 94 89 90 87 87 79 80 85 81 80 78 69 59 53 77 72 60 50 43 37 35
34 43 58 53 46 46 50 41 48 45 57 58 54 52 59 59 66 76 81 82 82 84 85 88 86 88 87 86 87 89 93 91 85 83 90 91 87 77 71 61 68 81 78 62 52 47 40 38 33
44 53 54 50 54 46 54 43 54 60 58 57 48 44 53 65 75 77 80 84 87 86 88 87 86 93 93 92 92 94 91 88 90 86 86 86 79 66 63 75 86 81 62 50 47 44 38 36 34
52 57 54 51 50 42 44 40 54 62 55 60 46 42 43 55 70 82 88 89 93 91 91 89 86 79 74 76 78 81 85 85 84 78 78 77 57 67 87 88 74 57 53 49 46 40 38 36 39
42 43 43 41 46 46 46 33 47 60 50 47 43 40 39 43 55 60 63 64 76 84 88 80 74 72 69 65 56 61 64 62 58 68 81 84 77 79 81 81 61 57 54 49 42 39 39 40 46
37 36 37 42 43 44 36 38 48 49 52 43 46 39 39 41 47 49 60 62 56 57 69 76 79 66 56 55 43 47 54 59 70 79 77 81 78 81 88 76 64 58 53 45 42 40 43 49 52
35 37 48 50 46 48 42 39 45 50 61 52 41 47 42 38 39 42 49 52 52 47 46 55 63 68 66 65 58 57 58 69 66 75 85 73 76 84 90 82 71 62 53 48 45 45 49 54 58
40 43 48 42 46 48 50 41 43 43 52 51 46 45 51 49 46 39 38 40 42 41 43 47 55 61 59 58 63 58 59 62 61 61 69 72 74 83 91 89 79 70 63 54 51 53 57 59 65
40 44 45 38 42 48 51 48 41 42 43 54 54 57 51 50 49 46 41 42 42 39 39 43 51 56 58 55 60 59 63 62 66 66 73 72 79 83 90 87 93 86 76 69 63 66 65 64 71
40 42 42 38 43 47 47 45 48 47 46 40 46 52 54 53 48 50 49 49 51 49 49 48 54 58 60 62 62 64 65 69 67 66 68 75 82 86 88 85 86 86 81 74 70 66 69 72 78
41 44 49 61 58 51 48 42 46 41 41 41 38 42 48 53 49 50 51 49 52 55 52 53 53 55 58 64 67 64 67 73 75 69 74 75 76 76 87 88 85 90 86 78 74 75 78 79 85
40 43 49 64 84 72 60 46 35 44 41 35 29 27 40 47 51 49 53 52 50 49 52 52 53 56 59 58 66 67 69 75 76 77 78 70 64 65 71 78 85 92 91 86 85 83 84 86 89
48 45 39 51 56 64 55 49 42 33 38 31 30 34 37 38 47 52 58 57 53 52 49 50 53 55 57 61 60 66 71 75 76 76 75 65 57 67 76 82 86 91 94 92 92 88 91 94 96
43 56 55 49 60 61 40 44 53 48 43 40 37 39 44 46 44 42 54 59 57 57 54 55 56 57 59 60 59 58 63 68 70 72 70 66 76 81 82 82 89 96 98 97 95 95 93 97 95
35 41 51 46 51 56 56 47 49 43 48 44 43 42 37 36 37 36 43 54 59 60 64 53 57 61 61 59 59 61 64 70 75 74 77 80 84 81 83 90 98 98 98 98 96 97 97 94 94
37 37 39 48 53 61 59 56 45 48 45 41 42 36 36 36 36 34 31 40 54 63 56 51 48 56 59 63 64 61 73 77 75 80 82 80 79 83 82 82 91 95 98 98 97 97 96 96 93

GFSSGP_prec_cthk_081.txt.gz
RH
12 16 18 18 21 25 32 33 29 31 37 44 38 35 42 47 44 51 47 59 66 73 77 92 74 60 60 59 60 60 58 56 55 46 43 37 28 23 23 24 25 24 25 26 23 23 24 26 29
14 18 20 25 28 35 33 32 37 46 50 40 40 35 40 49 47 49 48 47 53 50 64 95 83 76 72 67 65 65 65 65 64 50 45 36 28 27 24 25 27 27 27 27 26 27 28 30 32
15 18 24 28 33 38 37 45 45 42 40 41 39 45 50 55 53 51 44 40 41 41 44 90 95 83 81 72 69 66 69 67 64 54 48 37 31 30 27 28 26 28 29 29 30 30 31 32 36
17 20 27 31 37 36 45 46 45 39 37 37 35 39 50 56 49 59 50 32 35 37 45 83 97 90 87 77 73 72 68 70 63 54 49 38 33 34 31 35 31 29 31 33 34 32 32 33 38
20 25 27 31 34 38 44 41 40 38 36 36 39 42 37 43 52 59 76 60 49 41 49 97 94 90 90 86 85 79 74 69 60 54 43 37 34 36 37 38 36 34 34 36 37 35 33 32 39
21 24 32 37 36 38 40 38 37 38 40 41 47 67 56 53 66 63 64 57 66 85 87 97 98 91 91 92 84 79 75 70 62 52 40 35 36 39 40 39 37 37 37 38 39 36 36 34 38
24 26 30 32 34 41 44 42 36 41 46 46 57 68 61 65 71 75 65 62 69 89 96 98 97 97 92 90 83 76 73 68 64 49 41 38 41 44 42 43 45 40 39 40 38 38 41 44 43
23 27 30 32 42 45 41 41 34 39 46 52 61 74 77 85 86 75 68 70 73 71 92 93 99 96 95 91 85 81 75 69 59 46 41 42 45 45 46 48 48 49 43 44 45 39 52 50 46
23 28 32 39 42 40 41 38 41 51 53 58 65 62 60 96 77 73 66 68 77 73 69 82 99 98 95 95 87 84 76 69 54 46 45 47 50 51 52 53 56 54 54 46 47 55 45 51 53
24 27 32 40 42 40 39 38 40 44 55 70 65 62 59 80 83 66 65 67 70 68 64 89 91 96 98 97 90 84 72 63 55 53 55 53 58 57 60 59 61 57 50 53 60 46 50 55 55
33 31 28 33 39 42 37 34 42 48 57 68 61 68 55 56 62 66 61 67 63 70 77 80 83 86 88 93 87 76 69 65 62 60 59 62 67 70 62 63 57 55 60 65 57 50 56 59 53
37 35 36 32 36 41 32 37 41 44 54 53 52 45 54 50 55 58 60 65 62 63 75 80 90 90 92 87 77 71 72 75 73 64 74 69 71 73 68 60 60 59 65 65 55 52 60 58 49
36 37 34 36 42 42 37 46 40 43 47 58 49 40 46 52 62 68 69 68 68 66 72 79 79 80 89 80 73 71 77 72 74 73 78 76 75 72 65 61 60 65 71 61 52 56 63 56 42
32 34 31 30 42 43 52 54 50 44 53 54 49 46 48 53 58 60 75 71 66 69 67 73 76 78 88 81 81 85 78 80 78 82 82 76 78 72 65 64 64 68 64 55 58 66 62 45 35
28 32 33 41 50 47 47 50 55 54 52 57 56 50 46 53 62 67 69 73 71 67 72 75 78 79 83 76 86 85 85 85 85 84 85 85 77 69 69 70 67 63 59 57 74 66 48 38 36
31 33 41 45 54 45 42 46 49 57 54 54 51 52 48 59 72 74 74 75 78 77 74 79 77 83 74 78 86 88 89 91 87 86 91 88 74 80 76 74 67 61 62 82 70 54 43 37 35
39 47 49 48 53 51 45 46 41 52 50 52 55 53 46 57 78 83 81 79 79 79 80 81 80 80 86 92 93 95 89 89 91 91 88 76 78 76 79 78 71 73 83 74 55 46 43 37 35
38 48 49 49 51 52 51 51 47 49 53 48 54 47 38 45 62 78 84 84 80 81 85 83 84 86 86 88 91 89 93 90 86 81 73 80 79 77 75 78 74 85 72 59 50 47 40 36 35
40 47 52 41 47 53 51 46 46 52 56 56 52 50 37 38 52 65 71 75 76 83 80 76 74 71 74 75 80 84 80 79 82 82 83 81 82 88 89 82 87 77 59 54 50 44 39 36 37
44 47 39 35 46 52 46 42 40 53 56 57 53 49 41 35 42 49 55 62 66 65 65 66 59 54 48 47 59 66 70 70 71 69 72 75 86 86 83 77 80 69 56 54 51 44 42 39 41
38 39 36 38 43 44 44 42 47 47 54 59 51 45 44 39 36 36 38 45 47 43 46 47 48 44 43 37 40 44 45 50 54 58 71 76 82 85 90 86 80 72 63 59 57 53 48 47 48
33 37 43 44 47 46 45 48 41 46 54 55 56 54 51 44 42 42 36 34 33 34 38 42 44 48 46 47 48 48 49 49 54 60 62 69 72 77 76 78 84 83 79 76 69 63 59 59 61
32 39 44 44 46 41 47 56 47 46 50 52 46 46 51 49 41 40 43 40 38 35 37 42 49 52 52 52 52 51 53 53 59 60 61 65 73 69 74 78 82 85 79 79 80 81 75 69 69
30 37 44 45 47 47 45 59 52 49 46 47 42 45 45 41 45 43 40 43 44 44 41 44 48 51 54 53 53 60 58 58 61 67 64 60 66 75 79 82 86 89 86 84 82 83 80 78 78
37 37 53 62 60 55 58 62 48 47 40 41 39 44 42 40 42 44 48 45 43 46 47 44 44 47 50 55 54 56 59 60 66 73 74 73 75 81 84 82 80 77 82 82 83 89 90 88 89
34 37 58 61 72 78 63 63 52 42 44 45 46 43 40 43 44 46 45 47 52 42 43 43 44 46 49 52 57 58 65 65 66 71 75 80 84 78 70 63 64 74 81 83 86 90 97 90 94
37 43 39 60 66 79 71 52 50 45 47 43 38 34 38 40 42 43 46 48 52 55 48 42 44 45 46 50 55 58 58 64 61 61 78 85 84 74 65 70 79 83 80 85 91 98 97 97 96
38 41 55 59 78 84 59 62 56 48 46 43 42 40 37 40 44 48 47 45 46 54 57 60 55 53 45 46 48 57 62 62 68 61 72 83 81 79 74 82 82 78 79 93 98 98 98 97 96
40 43 56 60 62 65 64 55 48 50 49 44 44 42 40 38 33 38 45 43 47 53 59 56 60 59 60 68 55 53 56 63 70 64 76 78 80 85 83 79 79 78 79 85 79 88 95 97 95
41 43 42 69 64 65 64 56 51 47 45 45 43 42 41 37 32 30 30 42 49 46 52 54 55 51 53 56 62 72 56 69 77 82 79 81 81 86 79 77 84 81 83 77 71 74 75 78 74

GFSSGP_prec_cthk_084.txt.gz
RH
13 15 18 17 20 27 33 37 37 44 48 48 45 43 49 50 50 54 58 51 58 64 62 69 76 75 78 69 61 60 65 61 54 48 44 35 29 25 24 24 26 27 27 24 23 24 25 27 29
14 16 21 23 29 33 36 34 43 42 40 39 40 44 46 49 48 48 51 51 56 60 71 63 83 87 84 78 64 64 69 65 56 49 44 36 30 29 28 31 33 29 25 25 27 28 30 31 31
14 16 22 27 33 39 37 36 38 41 40 36 35 35 41 46 52 52 51 50 57 66 72 83 85 74 91 83 73 71 76 69 59 51 46 38 34 32 31 30 29 25 27 28 31 33 34 35 32
15 17 22 28 34 37 36 35 44 52 44 39 40 42 42 46 52 53 59 55 54 58 66 77 76 64 86 87 82 78 79 71 61 54 46 39 36 36 35 32 29 27 29 31 35 37 38 38 32
18 23 25 31 32 33 34 38 48 52 46 43 42 47 52 60 68 54 54 60 58 58 56 67 69 74 74 92 85 82 81 71 63 55 41 39 39 39 37 35 34 33 34 35 39 40 41 40 35
17 21 28 32 31 31 38 45 51 48 42 46 47 45 63 73 71 58 55 59 61 60 68 70 66 87 81 93 86 85 81 76 64 51 39 39 42 42 40 37 39 38 39 37 39 41 43 43 38
21 23 27 29 32 30 38 39 42 43 46 45 48 53 60 64 67 72 76 70 72 68 72 78 80 82 79 98 88 84 87 77 60 45 38 40 45 46 43 39 41 43 40 40 41 42 42 45 41
21 24 28 34 35 34 36 38 40 44 48 46 50 59 58 49 62 72 74 78 75 82 87 83 80 80 98 96 91 92 85 75 59 41 37 45 47 46 47 44 44 45 46 44 46 48 43 43 49
21 27 31 34 32 33 36 37 45 46 46 48 55 57 52 59 59 66 70 79 76 84 75 73 83 83 98 98 95 90 90 73 55 42 43 48 52 50 51 49 49 50 47 56 55 54 54 57 55
23 25 28 31 31 32 34 36 40 43 44 52 51 49 44 52 52 58 68 72 79 78 79 76 87 94 97 99 97 94 80 67 54 49 50 50 51 53 53 53 55 54 57 61 56 53 54 54 53
26 26 29 33 33 34 33 35 37 39 44 47 52 53 38 48 52 59 66 65 73 71 74 79 84 98 98 97 97 90 79 64 56 52 54 55 57 64 62 68 63 61 62 59 58 59 58 57 60
25 27 33 35 37 36 34 34 42 49 46 51 50 54 46 47 51 60 74 70 72 72 71 79 78 87 92 97 95 85 73 69 62 58 61 63 62 64 64 71 66 63 60 63 69 63 57 62 60
27 29 29 36 39 41 40 43 44 49 53 59 57 46 43 42 48 54 62 77 74 75 72 76 78 74 81 85 85 83 67 66 64 66 67 66 71 65 69 70 68 60 60 71 64 58 54 62 54
24 26 26 28 35 42 44 47 48 48 57 60 56 44 36 34 49 58 59 72 73 70 72 75 73 74 75 83 82 73 70 67 70 73 70 67 77 71 69 72 64 59 65 71 65 57 61 59 48
23 25 24 32 40 43 44 41 41 44 52 55 54 41 37 40 53 68 67 66 76 73 64 73 78 79 79 90 82 72 71 80 84 75 72 73 75 72 71 69 62 62 67 69 58 59 64 58 37
24 28 32 39 43 50 45 44 40 42 49 57 54 44 36 39 57 72 70 69 70 77 72 70 73 80 78 82 83 67 73 82 81 78 80 79 80 72 69 64 64 64 66 58 59 73 61 46 36
28 37 40 41 43 51 44 46 45 45 51 55 54 44 38 38 52 75 78 79 75 78 79 79 80 78 85 80 75 76 85 88 81 82 85 85 80 74 70 67 63 66 60 62 80 70 49 40 35
36 40 42 41 40 50 50 44 49 44 46 56 66 46 41 38 50 61 72 74 78 79 84 85 94 84 87 85 87 88 87 89 88 87 85 87 85 82 75 71 66 68 67 80 70 55 45 41 36
38 41 41 38 37 46 50 43 49 47 51 61 64 46 47 36 41 51 56 69 76 80 85 88 86 89 88 85 88 88 91 92 89 86 87 86 88 81 73 71 72 71 81 71 62 51 45 41 38
41 44 42 35 35 40 48 45 48 49 51 57 59 47 48 41 37 39 40 52 67 70 68 67 68 68 75 77 78 81 84 79 78 79 79 77 74 72 73 81 82 86 79 65 53 51 47 42 41
42 40 39 37 36 40 44 41 46 49 49 56 59 53 45 42 35 34 39 36 38 52 59 53 51 51 53 55 60 64 68 72 75 72 74 72 76 76 80 82 78 83 76 70 66 64 60 56 51
44 39 41 39 39 44 43 44 42 45 48 50 52 57 52 49 36 35 37 34 36 38 40 39 42 42 43 48 48 50 52 52 57 59 62 64 68 75 84 81 78 82 86 88 87 83 80 76 70
42 42 41 40 40 41 45 46 41 46 52 51 49 52 52 51 43 35 37 41 41 40 42 42 42 45 43 42 43 44 46 49 49 51 53 53 58 65 75 75 80 87 86 88 85 85 83 79 77
42 44 41 46 43 47 50 50 44 48 45 47 46 49 49 52 50 44 38 43 46 48 45 44 44 49 49 47 46 46 45 47 51 54 57 62 62 64 73 75 80 83 89 90 86 81 82 82 83
47 45 50 55 52 51 52 50 43 50 44 41 43 42 44 52 49 48 47 43 46 42 47 48 48 49 51 52 52 53 54 56 56 62 67 69 68 70 75 79 81 78 74 72 75 81 81 82 85
48 46 55 57 58 56 53 50 42 47 41 38 41 43 44 49 48 47 47 48 44 45 42 42 44 47 50 52 53 53 55 60 60 60 62 66 70 77 77 76 77 65 68 76 85 79 83 81 97
46 50 41 55 57 61 58 57 47 44 42 41 42 42 46 45 42 40 46 48 49 51 49 43 39 43 45 48 52 54 52 57 60 61 60 61 73 80 81 80 79 74 78 82 78 79 79 91 92
46 47 51 59 70 65 54 61 55 48 44 44 42 45 45 45 41 43 47 48 49 48 54 60 59 57 51 53 48 47 51 53 58 60 65 63 66 76 83 89 89 89 86 84 83 78 83 77 78
48 49 50 53 59 62 61 52 50 43 43 46 43 43 42 43 41 43 41 37 44 45 52 61 67 68 64 59 52 55 54 52 56 61 64 69 71 78 85 90 92 91 85 85 83 82 85 72 71
46 45 45 55 59 55 61 52 45 44 43 43 43 41 44 41 40 37 38 35 33 36 43 48 58 64 65 64 54 52 56 68 78 67 74 84 92 92 92 90 94 89 82 85 87 83 84 72 72

GFSSGP_prec_cthk_090.txt.gz
RH
15 15 18 20 22 26 27 27 27 29 34 36 37 41 45 47 46 42 45 52 59 69 71 67 67 66 70 66 67 64 60 70 76 71 69 61 49 38 35 31 30 29 28 27 24 22 21 21 21
16 16 20 22 26 29 27 25 26 28 33 40 41 41 43 43 40 37 39 44 53 65 67 61 77 71 67 68 67 63 66 68 78 68 59 46 44 38 35 33 31 27 27 30 31 28 28 26 27
16 16 20 25 30 29 28 27 27 29 32 37 38 39 40 39 38 43 43 45 48 66 77 74 69 66 63 67 67 68 63 66 71 64 51 45 43 38 37 35 32 30 26 27 32 38 42 36 33
17 16 20 24 27 27 27 26 27 29 33 35 37 39 37 38 43 47 54 60 66 65 73 66 66 65 66 61 65 64 61 63 60 69 50 46 41 38 37 37 35 32 28 28 33 35 36 36 37
19 19 20 25 28 26 27 26 26 33 34 35 40 39 42 49 52 57 56 62 76 75 73 78 80 87 72 62 66 64 63 65 60 63 56 46 43 40 40 41 40 32 32 33 36 37 37 39 39
20 19 23 25 27 26 28 28 32 33 35 37 41 43 49 48 52 53 54 73 80 79 85 86 85 95 79 68 65 65 61 66 67 60 62 50 40 44 43 42 41 40 38 39 40 40 40 40 40
21 20 21 24 28 27 25 28 31 36 38 38 40 44 45 49 49 46 63 79 84 77 72 73 90 89 72 71 71 65 63 58 67 65 71 48 46 45 44 41 44 44 43 43 43 41 40 42 42
23 22 22 25 29 26 26 29 29 32 34 37 38 43 49 51 43 48 58 75 78 86 77 70 67 79 79 81 79 67 65 66 77 80 70 59 50 47 45 46 51 49 47 49 47 46 45 44 45
25 24 24 27 28 27 28 29 30 31 36 38 39 45 50 48 42 45 48 68 75 79 81 77 76 83 87 93 85 77 79 77 85 85 82 55 49 49 46 54 55 54 54 52 49 44 45 46 50
28 27 22 25 27 29 29 27 30 35 41 44 45 48 52 46 37 39 44 52 66 78 85 85 85 87 90 97 98 93 91 87 86 91 84 47 48 49 52 57 58 61 58 54 50 50 46 50 52
30 27 23 23 25 27 29 29 37 41 46 44 47 48 49 45 44 40 41 52 61 73 78 83 88 88 93 90 95 98 95 91 91 91 86 46 49 52 54 57 59 59 56 55 57 55 56 57 56
29 28 25 21 23 26 28 36 41 44 45 48 50 49 46 40 38 41 46 58 65 73 71 83 89 91 91 96 99 98 94 95 95 90 83 51 55 55 57 58 63 59 63 59 66 65 65 60 59
26 27 26 24 22 23 25 38 39 42 46 49 48 47 46 42 43 42 60 71 66 76 76 87 88 85 90 97 98 97 97 95 91 92 85 65 56 57 57 61 66 64 62 65 70 72 70 66 59
27 28 27 23 21 23 28 34 42 42 46 49 50 46 45 42 45 46 65 76 73 82 81 86 89 84 94 98 98 99 98 90 91 89 79 66 56 59 65 64 62 68 67 71 74 73 72 66 63
31 29 27 22 19 23 30 38 46 46 44 49 49 50 43 44 47 46 64 72 67 81 82 84 89 87 97 98 97 97 96 92 88 79 71 68 70 64 63 62 64 72 74 77 78 74 71 69 64
33 31 31 25 31 33 37 38 43 44 45 52 53 51 45 44 45 43 60 71 72 85 82 83 85 85 88 98 98 98 98 90 80 78 80 77 76 70 66 62 70 75 76 77 75 73 73 70 59
38 38 31 31 33 36 38 38 41 40 52 54 53 51 45 44 44 40 60 71 73 86 88 79 84 90 84 90 94 94 91 87 80 79 81 85 83 79 72 73 74 75 77 75 75 75 71 70 60
46 35 33 33 36 39 39 36 37 40 49 53 53 51 47 44 42 37 56 73 76 77 84 84 83 88 94 93 95 94 85 83 86 88 85 80 79 79 76 79 80 77 78 76 76 77 74 70 71
40 33 37 33 38 40 40 34 32 39 47 52 52 53 51 47 40 34 49 72 80 75 79 82 84 89 89 90 94 91 89 79 79 82 81 80 88 86 84 84 81 80 78 74 74 68 72 80 63
41 37 35 35 33 41 41 37 29 37 44 47 50 49 50 47 46 33 37 60 77 78 76 81 88 92 92 93 91 95 91 90 82 84 84 83 88 88 88 84 84 80 77 68 66 72 81 70 59
41 40 38 35 38 44 42 38 31 34 41 47 49 48 46 45 47 39 34 41 56 66 75 82 85 92 93 92 88 92 88 91 86 85 85 89 92 90 87 88 78 70 67 66 72 76 76 69 65
44 39 37 35 48 54 44 49 33 33 37 45 47 48 47 45 46 41 41 37 35 50 57 59 69 77 82 87 88 91 88 86 85 85 90 92 91 91 87 84 69 64 65 68 78 81 81 81 78
42 41 40 47 54 54 49 51 34 36 37 38 43 44 45 43 44 42 35 42 37 38 39 42 50 55 61 67 77 80 83 81 79 77 80 86 84 81 81 75 70 73 75 81 87 86 85 86 88
48 46 48 55 60 61 49 51 39 32 37 38 42 41 39 38 41 45 37 41 44 42 40 42 42 44 47 50 51 56 61 67 71 73 75 75 76 78 76 76 77 78 77 83 86 88 87 88 92
43 53 61 64 67 60 50 61 42 28 30 35 41 41 34 33 36 40 39 38 43 41 43 41 41 43 45 48 47 46 47 51 52 56 61 61 61 60 61 63 66 70 78 78 79 81 85 93 96
45 48 63 64 64 57 62 65 44 28 29 33 40 42 36 30 35 39 40 38 41 46 41 37 39 40 39 43 42 43 46 46 48 53 59 60 61 60 59 59 63 68 72 72 74 79 90 95 85
44 52 48 56 66 70 57 54 45 29 26 31 33 43 38 35 37 37 41 38 40 43 48 44 41 38 39 43 42 41 41 43 45 49 53 58 61 61 61 61 64 70 71 72 73 79 79 81 81
37 43 51 63 69 72 61 58 50 36 33 34 36 42 42 39 39 40 39 38 42 45 47 52 55 48 44 47 50 51 51 49 48 48 53 56 60 60 61 62 61 64 76 87 89 88 87 90 92
43 46 49 53 61 61 62 58 48 38 32 39 43 43 42 39 38 38 36 38 39 43 42 51 54 59 61 61 60 58 57 56 55 56 57 57 55 57 61 68 75 81 85 86 92 96 96 96 93
44 45 49 55 56 63 59 50 44 39 36 42 40 43 43 40 39 39 37 40 42 42 41 37 43 51 55 63 66 69 65 61 59 57 58 60 63 70 77 83 88 92 95 97 94 95 98 94 88

GFSSGP_prec_cthk_093.txt.gz
RH
16 18 19 21 20 22 23 22 22 23 27 30 31 32 32 35 36 35 36 40 47 53 52 62 64 59 59 66 70 69 71 76 72 75 73 69 68 59 49 32 31 32 30 26 23 22 22 22 22
19 19 20 21 23 22 22 22 22 22 25 29 31 34 35 36 35 35 37 40 41 46 54 59 64 59 63 64 67 65 64 71 74 80 78 69 64 53 44 33 34 35 30 24 23 23 25 25 25
19 18 20 22 26 23 23 23 23 23 25 28 31 32 36 35 37 39 41 41 42 56 55 60 64 59 64 66 65 63 65 69 66 77 79 65 56 46 40 36 37 34 29 26 27 27 32 34 27
20 19 20 22 25 25 24 22 23 24 27 30 32 33 33 37 38 45 49 50 49 52 64 64 62 59 69 70 66 63 67 67 65 71 73 54 50 46 42 38 36 35 31 30 32 32 36 36 31
21 20 21 21 25 26 25 25 24 26 29 30 33 31 35 37 44 45 47 46 55 62 73 95 76 68 69 64 65 68 68 65 61 66 66 53 50 46 41 38 36 40 39 38 38 36 36 35 35
22 21 22 20 23 26 25 26 28 27 29 31 32 36 37 41 46 45 44 46 61 72 75 93 92 81 89 80 69 71 67 62 59 64 71 59 50 43 39 38 43 41 41 41 41 40 39 38 37
23 22 22 20 22 26 25 25 28 27 28 30 30 38 38 44 48 39 44 44 62 73 80 80 97 97 87 87 86 74 66 61 62 58 63 67 50 40 38 43 42 40 46 50 47 43 43 42 40
25 25 25 21 21 25 25 25 26 27 27 29 32 38 39 46 47 38 40 41 48 71 79 88 89 84 81 88 97 86 71 63 62 59 60 63 58 42 41 42 41 42 51 52 49 51 47 48 43
25 27 26 23 24 24 25 26 26 27 31 34 35 36 41 46 47 43 39 38 44 60 74 83 84 82 88 83 87 87 82 68 65 61 61 64 64 45 45 44 44 49 55 53 52 51 48 50 46
25 28 25 23 24 25 24 26 26 30 36 36 38 41 43 47 47 38 35 37 45 53 65 77 83 80 85 83 84 87 92 74 65 63 69 67 68 56 48 47 51 56 62 57 57 54 55 49 47
25 30 25 24 25 25 25 24 28 34 38 39 40 43 45 46 45 39 39 41 52 58 60 78 82 82 89 95 98 94 97 84 72 73 74 78 75 60 50 52 56 62 61 61 59 58 54 52 52
24 29 28 25 25 25 25 25 29 36 35 38 40 44 44 44 42 41 43 49 61 67 65 70 79 83 87 92 99 98 97 94 86 87 86 85 80 57 48 53 57 60 61 61 61 58 59 61 55
24 25 27 27 23 24 25 23 28 33 35 36 41 47 43 41 39 43 42 52 73 68 69 73 77 85 89 92 95 95 97 92 96 90 92 83 74 61 50 52 56 60 61 63 64 65 65 64 61
27 26 29 31 23 24 25 22 29 33 35 34 44 50 47 41 38 43 39 58 69 72 76 75 80 91 94 94 94 95 91 93 97 96 93 88 78 57 51 51 57 61 65 68 69 69 70 68 66
29 30 31 31 23 23 22 24 32 36 36 37 45 53 50 44 40 42 37 59 70 69 81 78 81 88 92 94 98 95 95 98 97 97 93 91 71 55 53 53 59 64 68 72 73 72 74 74 69
33 32 34 32 25 27 33 28 37 36 39 39 45 53 53 46 44 41 38 59 70 67 74 75 76 83 97 95 98 98 97 99 98 96 94 91 67 59 54 59 66 67 71 73 76 79 79 77 73
33 30 37 33 26 32 38 32 36 37 40 40 46 49 50 47 46 40 38 59 67 70 80 80 71 84 98 99 98 99 97 97 95 95 94 91 74 63 61 62 68 69 71 74 76 81 80 80 78
35 40 37 33 30 31 38 34 32 34 39 39 43 48 46 48 48 40 38 58 70 73 78 81 77 82 96 98 98 98 96 95 96 95 91 92 85 73 69 69 71 74 75 77 78 81 84 85 79
39 39 37 34 35 30 33 35 32 32 35 40 44 47 47 49 47 41 34 58 76 72 73 78 80 87 92 97 98 97 96 97 92 91 90 90 90 86 80 77 77 78 81 78 79 80 84 83 77
39 40 38 35 35 34 31 35 34 33 32 38 41 46 46 48 46 45 29 47 69 74 72 73 80 92 91 95 98 97 97 92 86 91 91 92 94 88 86 82 84 84 84 82 81 78 80 80 79
41 42 42 40 38 35 33 34 37 33 32 36 42 42 45 45 46 45 33 33 49 68 74 76 79 85 91 93 92 96 91 86 87 87 86 92 89 91 90 94 90 87 85 83 78 77 74 77 83
39 40 41 43 43 37 32 35 36 37 29 32 38 42 44 46 47 45 38 32 33 47 61 70 76 87 93 95 94 91 90 91 90 89 87 87 88 86 90 91 90 87 86 83 78 70 72 82 80
41 43 43 44 44 41 36 44 37 37 30 31 32 38 41 43 47 44 38 36 34 36 39 51 56 61 76 83 87 87 89 93 91 89 90 86 84 85 89 92 92 87 78 70 69 73 80 84 87
44 47 49 49 50 49 42 49 37 39 31 28 33 37 41 39 46 42 42 39 38 38 38 41 45 48 54 61 75 80 85 87 85 86 86 82 83 84 88 91 88 78 75 72 80 82 88 90 92
43 46 50 57 57 47 46 51 40 41 36 28 32 36 40 37 40 37 37 35 36 38 38 38 41 45 49 52 54 59 66 69 71 75 74 72 74 78 82 82 78 77 78 78 80 82 86 87 89
46 47 47 53 56 48 59 53 41 41 35 29 34 37 40 40 34 35 37 35 32 35 36 37 38 40 44 45 50 54 54 56 57 58 60 59 59 66 66 71 71 72 72 73 79 79 77 77 78
42 51 47 50 57 60 53 51 43 36 42 29 28 34 43 44 37 39 42 37 37 35 39 38 38 38 38 38 42 45 47 50 50 53 55 58 61 63 58 59 60 64 65 67 71 72 70 76 77
30 38 54 59 57 52 48 52 44 38 43 39 29 33 36 44 42 44 47 42 40 39 42 44 45 43 40 39 47 49 47 45 46 48 53 55 58 59 60 60 60 63 65 67 71 71 75 78 79
36 33 42 51 55 50 47 46 45 37 42 38 33 35 39 44 46 43 48 43 41 40 41 45 48 53 55 52 51 54 58 59 57 54 54 53 56 59 62 63 65 67 70 74 78 79 81 86 94
46 45 42 47 47 57 51 41 41 39 43 40 37 39 44 43 46 42 44 42 41 41 43 42 39 48 58 62 60 58 60 62 61 57 56 57 61 64 63 64 66 69 74 76 82 87 91 94 95

GFSSGP_prec_cthk_096.txt.gz
RH
16 19 20 22 22 20 20 20 18 20 23 24 25 25 26 28 29 32 29 29 34 47 55 59 62 66 68 59 58 63 75 81 80 75 77 76 67 58 54 41 24 31 30 27 22 20 20 19 20
19 20 22 22 23 21 22 20 19 20 22 24 23 25 28 30 30 32 33 33 37 43 52 57 63 64 70 69 65 64 71 74 75 73 75 79 73 69 51 45 31 36 30 25 22 22 22 22 22
20 19 22 23 23 20 19 21 18 20 21 23 24 25 28 30 31 33 34 37 43 46 54 56 55 68 67 65 68 71 68 69 68 74 73 79 74 67 53 43 36 38 31 23 23 23 24 26 26
21 21 19 21 22 21 19 22 19 19 22 24 26 27 27 28 32 37 38 45 47 43 47 59 62 66 70 63 73 76 72 67 74 76 73 81 72 57 45 43 42 36 30 24 25 26 26 28 32
21 21 21 20 22 21 20 20 19 20 21 25 28 28 28 28 36 40 42 43 46 43 53 78 94 86 89 66 69 78 75 70 72 73 70 77 67 55 46 44 37 35 30 29 31 30 29 29 28
22 22 22 20 22 23 20 21 21 22 23 24 27 27 27 31 37 46 45 42 43 43 54 73 84 95 98 76 71 76 79 76 70 69 67 73 66 59 49 42 36 36 34 36 39 37 35 34 30
21 22 21 19 20 23 21 21 25 25 24 25 27 27 31 34 40 46 48 45 41 42 51 68 79 83 96 97 87 76 74 70 69 66 64 68 68 54 49 40 38 38 41 45 46 45 43 40 35
22 23 23 20 20 23 23 21 23 25 24 27 27 29 35 38 40 46 46 44 40 42 51 58 76 87 93 91 95 92 96 82 70 61 61 65 74 58 48 39 40 41 44 50 53 51 47 47 42
21 23 24 23 21 20 24 22 24 25 26 29 30 29 36 40 43 46 52 51 45 47 52 58 66 79 93 90 82 90 98 96 71 62 65 62 70 66 49 45 43 44 49 52 53 53 50 46 41
22 22 22 24 23 22 24 24 25 24 28 30 34 36 38 42 46 47 48 47 54 55 54 66 68 78 80 81 79 75 89 92 70 66 65 67 68 72 65 47 47 48 53 53 57 57 54 49 46
23 22 22 25 24 24 22 23 26 25 29 32 35 35 39 42 44 46 43 43 44 52 70 70 70 82 78 80 76 79 87 96 87 69 65 65 74 70 68 51 48 51 56 58 60 61 57 55 56
25 24 24 25 26 26 22 23 23 25 29 33 34 33 38 40 40 41 40 43 42 60 70 71 74 85 84 83 91 94 98 96 90 83 69 70 79 75 69 60 51 54 59 63 64 65 63 62 61
28 26 26 26 28 26 23 22 22 22 28 31 33 34 40 41 39 43 43 38 39 63 71 69 75 84 87 89 93 96 92 97 96 94 82 78 75 78 73 72 55 57 64 65 70 69 65 60 58
28 29 26 27 28 27 26 23 23 23 28 32 34 34 38 39 37 41 45 42 39 61 69 66 72 74 86 89 90 92 97 93 98 98 95 83 79 77 76 73 56 58 66 69 69 67 68 65 64
30 30 27 28 30 26 25 24 22 23 33 35 37 38 39 40 37 39 43 37 40 60 66 68 72 80 82 85 88 92 94 97 94 98 96 93 87 86 81 66 60 59 63 64 67 69 70 70 68
33 33 31 30 31 27 28 26 31 31 34 33 36 37 40 42 40 40 39 35 41 60 67 73 76 74 78 81 90 94 95 93 96 99 97 96 92 86 83 64 63 60 62 63 66 72 71 73 73
35 33 31 35 34 28 28 28 35 34 31 33 35 37 41 43 39 41 40 31 41 62 68 73 74 71 70 91 91 95 96 93 94 97 97 96 93 85 77 64 62 60 62 65 67 73 75 78 79
37 36 39 36 35 34 28 29 30 32 29 31 33 37 39 42 42 39 39 27 43 68 70 74 79 78 80 94 96 97 99 98 95 98 98 97 96 90 70 60 63 63 65 69 72 76 78 82 83
41 39 38 35 40 36 32 25 28 31 31 30 31 35 39 41 43 38 39 25 46 68 69 73 74 73 81 95 97 99 99 98 98 98 99 99 95 86 67 68 64 67 68 73 74 78 80 83 85
44 42 38 38 41 38 33 28 26 31 32 30 30 32 37 41 42 37 39 26 40 66 66 70 72 75 82 90 97 98 99 99 98 99 98 98 95 82 72 69 69 71 74 77 78 80 81 79 84
42 41 42 41 44 40 35 30 24 26 32 30 29 29 35 38 39 38 39 29 33 57 66 69 74 78 83 88 96 96 96 98 98 98 98 96 93 86 78 78 76 77 80 81 83 82 82 80 82
38 40 43 44 43 42 39 32 24 30 31 32 29 28 33 36 39 38 38 33 28 41 55 63 71 77 81 90 94 96 97 97 97 95 97 94 94 94 90 86 84 85 84 84 84 84 83 81 81
39 41 41 45 44 43 42 39 27 29 36 30 27 28 32 36 37 36 39 33 30 33 39 46 55 65 77 84 90 90 91 93 92 94 91 89 91 92 94 92 89 90 92 88 86 85 80 77 73
31 43 51 51 49 51 45 38 29 29 39 31 28 28 32 36 37 35 39 31 34 36 36 38 42 45 58 67 81 84 86 85 86 92 93 91 91 94 94 93 89 91 91 88 80 76 73 64 71
49 48 54 61 58 51 41 41 31 31 39 37 30 30 33 38 40 36 35 32 29 34 37 38 38 40 47 52 60 75 82 83 85 87 91 90 89 92 89 89 87 86 83 73 70 69 67 72 82
53 53 50 50 51 48 47 45 35 34 36 37 29 32 34 39 41 37 32 33 31 33 35 38 38 38 40 45 50 55 63 65 68 71 74 75 77 76 75 74 75 74 76 74 78 81 78 77 81
31 48 45 51 47 54 49 50 43 35 36 39 32 29 33 38 40 39 33 38 37 36 37 36 41 41 39 37 43 47 49 52 56 59 60 62 65 65 65 64 63 65 69 75 74 73 71 73 77
36 35 48 56 58 54 43 44 46 39 35 38 38 29 31 35 39 42 39 41 41 39 42 43 41 42 46 43 43 43 43 46 50 51 53 55 57 59 59 60 61 64 65 66 67 68 70 74 76
28 39 44 46 52 52 50 45 47 43 35 39 38 36 31 35 37 42 43 44 44 43 44 44 47 48 48 50 50 50 53 55 54 53 52 52 54 56 59 60 62 64 65 67 73 75 76 78 80
47 44 32 32 40 50 49 47 50 44 41 42 38 39 38 39 44 43 46 46 47 45 42 42 43 46 50 52 53 56 59 61 64 67 68 63 60 62 65 69 70 71 72 74 76 76 78 82 83

GFSSGP_prec_cthk_099.txt.gz
RH
13 16 21 23 25 24 24 25 19 17 19 23 20 20 22 23 29 37 41 34 30 39 47 49 58 63 63 62 68 66 67 72 78 82 76 73 71 62 51 37 32 28 22 28 24 23 20 18 17
17 20 23 26 23 27 20 24 20 21 18 17 17 21 24 33 34 35 38 32 31 37 44 47 49 62 67 74 73 69 70 77 78 85 82 80 73 67 49 40 35 26 28 26 21 21 21 22 20
16 21 26 27 24 24 22 23 20 20 20 17 19 26 27 28 40 35 35 34 36 40 46 55 52 56 63 78 79 73 69 81 83 77 82 81 79 76 61 44 35 33 31 21 21 22 22 23 25
19 22 21 20 23 27 22 21 20 19 20 23 23 22 32 36 31 35 38 40 39 42 43 45 43 50 63 70 82 73 70 76 80 81 81 77 84 80 70 58 44 42 28 23 23 24 25 27 29
19 23 22 21 21 23 22 20 18 19 21 22 25 27 27 36 34 35 38 41 40 40 42 36 40 53 64 71 90 78 74 79 81 78 82 77 90 84 69 59 47 39 36 28 26 26 28 28 28
21 22 21 20 22 22 23 22 20 19 22 24 25 26 28 34 37 37 38 40 39 37 41 33 40 51 59 73 95 94 76 76 78 77 81 78 81 74 65 54 47 40 32 29 29 29 28 27 27
22 23 22 20 20 20 25 24 22 23 23 26 31 31 31 43 47 42 40 39 39 34 31 33 39 53 63 80 89 98 86 74 77 78 78 78 71 68 63 54 43 36 33 35 35 34 32 31 30
20 22 22 21 21 20 22 24 23 24 24 27 23 26 33 45 42 40 43 41 40 36 32 38 43 56 68 84 84 89 95 80 85 80 78 70 67 71 67 52 42 38 36 41 41 42 41 38 37
21 21 23 23 24 21 21 23 22 24 24 25 30 36 33 36 37 44 50 47 40 36 36 38 50 66 77 93 91 94 88 97 86 84 75 66 68 73 69 52 42 41 43 46 47 47 45 44 43
20 21 22 25 22 20 22 24 23 25 25 26 34 38 44 44 43 46 50 50 41 39 37 41 63 68 84 91 87 92 98 98 95 81 74 60 71 77 73 52 48 48 49 49 48 49 48 46 43
22 20 22 24 24 21 22 24 24 24 24 27 33 36 39 45 45 44 42 41 39 41 38 52 63 65 75 82 86 98 88 93 98 90 68 63 66 76 77 61 54 53 53 52 52 52 51 52 49
24 23 23 25 24 23 22 23 23 23 22 23 25 30 36 40 46 49 45 42 39 35 42 56 62 63 77 77 82 82 89 92 99 92 65 66 65 77 86 68 61 53 53 54 54 56 59 59 58
29 25 26 26 27 26 24 23 23 22 20 22 25 28 32 38 44 47 46 40 37 29 41 54 65 63 75 80 82 81 82 84 98 91 74 80 66 78 86 77 68 57 58 55 60 65 67 67 63
31 29 28 28 26 27 25 23 26 23 21 23 25 28 32 38 44 49 47 43 41 29 41 53 59 71 80 80 83 81 83 83 90 95 89 86 70 79 81 83 73 64 64 60 63 69 69 68 66
35 31 28 27 27 27 28 24 26 24 22 21 28 31 34 38 43 46 47 44 43 32 43 55 65 59 65 74 80 81 87 88 91 97 93 88 77 85 76 79 73 77 73 66 67 66 70 71 67
42 36 32 29 30 28 31 25 28 30 27 30 30 33 37 39 43 45 43 43 42 36 44 57 63 62 64 67 71 78 81 88 93 96 97 94 95 93 74 79 80 85 82 74 70 68 71 70 66
44 40 34 32 34 33 31 27 29 39 35 30 28 31 37 42 40 42 45 43 39 36 50 66 65 68 66 66 68 77 86 90 94 96 96 95 97 92 81 78 83 83 85 72 69 69 72 69 70
46 41 37 36 37 40 35 28 29 33 36 36 30 29 34 41 41 41 44 43 34 37 58 63 67 71 71 71 72 81 88 91 91 96 98 96 95 95 91 82 86 88 84 74 71 70 75 72 73
52 47 44 42 42 43 37 33 30 30 30 34 36 35 34 40 42 42 44 41 34 37 60 62 69 72 70 71 80 87 89 92 92 91 95 98 97 98 92 88 94 91 78 69 70 73 77 77 80
55 54 50 45 42 43 40 37 31 29 27 27 36 36 35 37 44 41 43 38 34 36 54 63 64 69 70 74 83 88 94 98 97 93 95 97 98 97 95 93 87 83 77 74 76 79 79 82 79
44 52 54 50 45 44 42 38 33 29 28 26 28 31 27 32 43 40 42 37 33 35 42 57 65 70 76 79 83 97 97 98 99 99 97 99 99 97 95 91 84 82 80 79 80 77 80 81 80
44 41 48 50 49 46 44 39 37 30 25 27 31 34 32 30 35 39 41 36 31 34 38 46 59 69 77 80 87 95 98 98 98 98 98 99 99 96 93 94 90 81 83 84 81 80 82 86 83
40 45 47 45 45 47 44 42 37 33 28 27 32 31 29 30 34 35 38 37 31 31 37 39 47 55 65 79 85 90 92 94 96 96 98 98 95 93 94 92 87 84 90 87 81 81 84 84 84
47 46 43 50 49 50 45 44 42 34 31 37 37 35 31 32 34 35 37 39 30 29 33 37 39 45 54 63 78 86 90 92 94 98 97 98 98 96 93 92 88 88 85 84 83 84 85 82 80
56 56 56 56 60 55 48 46 42 35 30 38 37 38 35 28 33 37 38 38 33 29 31 35 36 38 45 54 62 78 90 90 94 94 96 97 96 95 93 93 92 89 91 90 86 84 84 80 74
55 61 64 57 54 58 51 47 41 36 32 35 37 37 37 33 34 38 40 37 34 29 31 34 36 36 39 50 54 57 69 83 89 92 91 93 94 93 93 95 93 88 87 82 77 75 77 78 78
42 52 52 61 58 64 63 52 46 44 37 37 37 38 34 33 35 39 40 37 36 32 32 34 36 38 40 42 46 49 54 60 60 64 70 74 79 77 77 80 79 78 76 72 73 71 72 75 76
45 45 55 55 67 59 47 47 49 51 39 38 41 42 39 35 34 40 40 40 40 37 34 35 36 37 40 44 44 44 44 48 52 53 56 59 65 66 66 68 68 68 67 66 64 64 70 73 76
40 45 51 50 49 54 60 51 50 44 42 44 45 46 48 43 37 40 42 40 43 44 37 40 39 39 42 43 46 51 50 50 51 51 52 53 56 60 61 62 61 61 62 63 63 63 66 71 75
46 39 44 53 54 50 54 52 52 50 47 43 53 48 50 41 39 39 45 41 44 46 42 43 43 42 42 44 45 47 53 58 60 62 63 66 67 63 61 62 61 60 60 63 66 68 70 74 76

GFSSGP_prec_cthk_102.txt.gz
RH
11 12 17 25 27 25 28 26 25 23 22 22 20 19 17 19 22 33 43 40 35 38 32 29 34 44 54 57 65 66 71 63 67 64 63 60 60 54 50 38 30 26 23 23 18 19 25 25 23
12 18 21 28 28 25 27 25 26 25 21 20 19 18 23 27 32 34 38 32 24 27 33 30 34 45 56 66 70 66 65 65 70 75 76 72 68 62 50 43 29 28 28 34 30 22 19 19 20
14 18 23 30 28 26 25 25 26 22 19 20 20 20 26 26 31 37 32 24 25 27 32 37 39 43 51 67 75 74 73 67 69 75 76 87 78 73 58 45 28 30 34 36 25 24 24 25 26
16 19 21 23 21 21 27 25 24 20 19 23 25 24 23 34 32 34 26 23 26 31 30 31 33 33 38 55 66 78 79 76 70 80 82 81 91 82 65 56 37 31 28 29 24 24 24 25 28
18 18 22 24 23 25 23 21 22 21 20 21 23 25 28 24 33 31 28 26 25 31 32 29 30 30 33 43 65 73 84 79 68 72 88 82 91 86 69 52 39 30 29 27 25 21 22 25 30
20 20 21 21 21 23 23 22 21 23 22 23 25 26 28 35 37 38 36 33 26 30 33 30 27 27 29 35 44 66 77 91 81 79 80 75 90 91 80 61 49 39 31 28 28 26 28 29 32
19 22 22 22 22 21 22 23 22 25 23 25 25 27 27 38 42 47 40 31 29 32 33 31 27 28 31 38 46 60 84 97 95 93 77 86 91 73 77 69 65 51 41 41 40 37 35 32 31
20 22 20 19 20 22 22 22 22 23 24 25 26 25 26 41 37 37 30 29 32 31 29 27 28 28 34 48 65 69 64 60 96 97 79 76 91 78 66 63 54 49 41 35 33 33 31 31 31
21 21 20 18 21 25 25 21 21 22 25 25 25 26 31 39 41 43 40 34 32 30 26 29 29 32 48 59 77 91 86 80 91 98 92 87 89 72 71 62 46 40 37 35 37 36 35 35 35
23 22 21 19 21 25 21 19 21 23 24 26 27 29 35 44 43 45 41 41 43 36 32 33 33 44 56 67 86 93 93 88 93 97 84 95 82 70 72 59 46 42 39 42 42 41 40 42 42
25 22 23 21 22 25 22 20 21 21 22 25 28 30 34 37 41 39 37 40 39 38 37 36 40 51 59 68 84 91 90 92 87 98 88 94 74 68 69 62 49 44 46 46 44 44 46 43 43
28 26 24 23 24 24 24 22 21 22 21 24 22 22 25 30 33 35 38 40 41 40 38 32 42 54 61 72 87 98 92 96 96 94 96 78 70 64 72 67 53 47 51 49 48 46 47 46 49
35 31 29 29 26 26 27 24 22 21 22 22 21 21 23 28 31 34 38 40 41 37 36 28 43 55 68 80 88 92 96 93 96 96 95 71 63 66 72 69 64 54 51 51 50 49 54 55 55
42 39 35 31 29 28 29 26 24 20 23 21 23 22 23 27 32 35 36 38 39 37 34 28 41 55 65 79 88 92 91 88 87 91 94 74 63 69 72 81 72 64 55 52 52 54 61 62 61
42 42 38 32 30 28 29 29 24 24 24 24 24 23 26 31 36 38 41 40 40 37 35 32 45 60 62 72 85 92 89 86 90 96 92 78 73 74 75 82 81 77 64 57 55 60 65 67 63
47 48 45 38 34 30 34 30 26 27 28 26 25 27 33 36 38 42 41 43 41 37 34 34 51 60 63 64 71 85 84 82 83 83 88 87 90 83 79 78 81 84 73 64 60 69 65 64 63
42 48 49 45 38 39 38 37 29 30 32 30 32 34 32 39 40 42 42 41 42 36 33 40 52 59 62 62 61 66 76 78 77 83 86 89 95 94 88 79 78 83 76 73 76 77 68 64 62
39 46 47 47 43 44 43 41 33 32 33 32 33 34 36 38 43 43 44 40 42 34 31 44 53 57 64 64 63 64 70 75 83 85 85 92 97 96 91 83 87 87 84 90 88 79 71 68 64
37 41 48 51 47 52 48 42 39 36 34 30 31 34 37 38 42 43 44 40 40 33 32 42 51 57 68 69 68 67 70 76 88 93 92 93 96 97 95 88 87 94 89 91 85 79 77 71 68
32 43 45 48 55 59 57 51 39 37 37 32 27 27 33 42 43 42 43 40 38 33 33 39 54 55 59 63 65 71 75 77 89 94 91 92 98 97 96 91 87 87 89 97 86 81 78 74 76
32 37 49 55 59 60 57 50 39 37 36 32 28 28 31 37 42 40 42 40 37 33 34 37 45 57 60 63 68 74 79 88 95 95 95 92 97 97 96 94 89 87 87 90 87 83 81 79 82
34 37 46 49 55 61 55 51 40 39 36 35 31 27 26 31 35 37 40 40 36 33 34 39 42 48 58 64 68 74 82 92 96 95 96 96 97 98 98 94 92 88 90 91 88 86 86 87 84
39 42 45 51 56 56 48 52 37 38 38 35 30 30 33 34 35 36 37 37 35 33 32 37 42 43 46 56 70 78 82 85 93 98 99 97 100 98 98 95 93 91 94 93 91 90 87 84 88
41 46 48 52 53 57 49 50 43 42 35 34 37 32 35 35 34 36 37 36 35 32 31 35 38 40 42 50 58 76 83 86 88 97 98 99 99 99 98 97 92 94 95 95 92 92 86 87 86
36 45 57 61 64 53 48 50 43 37 35 36 37 44 39 38 38 34 37 37 36 31 30 33 37 37 37 45 54 63 80 86 87 87 92 97 98 98 97 94 92 93 96 96 93 86 89 86 81
32 45 56 75 66 65 67 73 49 44 41 35 43 47 39 37 40 35 36 40 37 32 30 32 35 36 38 39 46 57 65 81 89 87 87 91 93 92 94 94 94 94 96 94 89 96 90 80 76
26 47 44 64 65 70 71 61 56 52 46 42 42 44 38 45 41 36 39 41 37 33 32 33 35 38 39 40 42 47 56 62 70 83 83 85 89 93 93 92 92 92 92 89 93 90 85 78 75
26 34 52 64 75 77 60 60 69 60 55 50 48 44 40 42 43 39 43 43 38 36 34 32 35 38 41 43 44 46 45 50 55 61 61 64 71 78 81 82 81 82 83 84 77 75 74 74 72
33 32 41 57 65 69 69 55 57 59 55 50 53 54 52 43 46 45 43 44 43 39 40 35 37 39 41 44 45 45 50 50 51 51 53 54 57 60 65 67 72 73 72 71 69 70 70 66 66
66 54 43 57 59 63 63 51 55 65 60 56 55 57 57 52 50 48 45 45 46 41 43 40 40 41 43 44 45 47 49 52 57 57 57 57 62 68 67 62 63 62 62 64 65 67 67 70 73

GFSSGP_prec_cthk_105.txt.gz
RH
10 12 16 22 26 26 30 29 29 30 28 25 25 18 19 19 18 27 36 31 31 26 22 22 25 34 40 47 54 58 55 61 67 64 49 53 54 54 46 27 26 28 30 25 24 19 21 19 21
10 14 18 22 27 32 31 29 30 30 26 24 23 18 19 22 26 36 33 29 24 21 18 19 26 33 44 54 63 57 69 67 61 60 58 56 62 60 53 35 28 32 31 26 24 17 18 18 18
11 16 20 23 28 30 28 26 26 25 23 23 19 18 20 25 28 29 31 32 25 19 20 22 25 31 37 49 61 64 80 60 69 63 62 61 77 70 51 41 31 31 30 26 18 16 15 20 24
13 18 19 22 23 22 23 26 27 25 24 24 22 24 23 25 29 32 28 26 25 26 23 28 24 26 27 33 48 62 80 66 78 67 65 66 76 73 64 47 35 30 28 24 20 28 30 29 27
16 18 19 21 21 21 22 26 24 22 21 24 23 24 24 28 30 29 29 29 31 30 29 32 30 27 28 26 32 43 59 70 72 91 73 76 85 85 85 64 37 31 28 23 26 35 37 37 41
19 17 20 22 20 19 23 23 21 20 19 21 23 25 26 28 30 29 30 32 34 32 30 32 32 29 26 24 28 33 43 63 82 86 90 76 72 86 88 71 50 34 25 20 23 31 34 28 33
20 21 21 21 21 20 21 23 22 19 18 20 24 26 29 30 31 31 34 33 30 30 31 30 27 28 27 26 29 35 40 50 81 88 87 89 87 91 79 69 50 39 33 26 27 30 34 30 34
21 20 20 21 21 20 23 25 27 22 21 18 21 25 25 24 29 32 34 33 34 30 31 27 24 25 25 28 35 43 49 57 69 90 85 97 86 81 87 67 43 36 34 34 36 31 36 38 41
21 22 21 20 20 20 24 29 28 23 21 18 19 21 23 27 32 34 33 31 34 32 35 31 27 26 30 35 45 55 62 70 78 94 83 98 92 81 86 70 59 49 42 43 50 50 43 42 43
22 21 21 21 21 21 23 25 27 26 24 21 21 21 23 27 32 36 33 31 28 31 33 30 31 26 30 47 54 64 82 90 92 84 90 97 86 79 80 70 58 59 58 61 46 39 35 38 38
24 21 21 21 22 23 23 25 26 25 24 23 23 22 24 27 30 34 30 29 29 32 37 33 33 30 35 54 59 73 91 90 96 92 82 96 95 82 75 69 57 48 42 46 41 36 37 38 43
26 24 22 21 22 23 24 24 25 25 24 24 25 24 23 25 29 31 29 30 31 35 38 34 35 30 38 55 65 87 94 96 94 87 87 93 97 82 81 61 49 43 43 45 41 40 42 45 44
27 26 24 23 23 25 29 27 26 26 26 26 25 24 22 22 24 28 27 29 31 36 39 36 35 29 41 55 69 87 95 95 96 92 93 97 95 85 79 62 56 44 46 46 43 44 47 48 45
28 28 27 26 26 27 32 30 30 27 26 28 25 24 22 20 22 25 26 29 33 41 40 38 36 33 49 64 72 87 92 97 97 95 96 95 90 86 75 65 60 51 48 47 46 47 49 50 49
29 29 27 25 28 29 38 33 31 28 28 30 28 26 24 22 22 24 29 33 34 38 40 40 37 42 55 70 74 86 93 92 98 98 95 95 90 77 71 68 62 58 52 52 51 51 54 52 54
26 27 28 25 30 35 43 37 36 35 35 31 30 28 26 25 25 30 31 36 38 36 38 40 39 52 58 68 77 83 91 93 92 99 98 93 86 72 75 69 73 63 61 59 58 57 58 60 58
23 23 27 23 33 39 47 45 40 39 39 36 32 30 30 32 31 33 37 38 38 37 37 37 38 54 61 64 68 76 80 84 86 90 95 94 89 84 87 75 79 76 70 69 65 65 61 63 62
23 27 24 27 33 42 43 46 45 45 42 40 36 37 34 32 32 34 38 38 40 37 34 33 39 54 59 64 66 66 68 76 79 81 88 90 91 85 84 86 77 82 75 74 73 69 70 67 65
15 20 22 22 30 37 45 45 49 51 45 45 41 36 33 33 36 34 37 40 40 38 33 28 36 55 59 66 69 70 71 71 74 77 80 87 87 90 91 89 85 78 80 77 77 81 78 76 75
15 18 19 18 26 35 40 38 47 53 49 48 42 37 32 31 36 39 38 39 39 38 30 27 35 49 58 59 61 65 68 71 80 81 80 83 87 89 93 92 86 85 89 82 84 86 88 81 77
21 24 25 25 25 32 43 40 50 53 52 47 43 37 34 30 36 38 39 38 39 38 28 27 34 42 55 61 62 64 68 74 80 88 90 91 91 92 95 94 89 87 92 91 93 94 91 79 77
27 32 31 27 31 35 42 43 50 58 47 44 40 39 35 31 36 36 38 36 36 35 28 28 33 38 47 57 64 69 69 75 78 89 97 94 95 95 96 97 92 90 94 98 95 95 93 85 86
23 31 37 37 32 34 38 47 42 52 43 41 39 37 33 31 33 34 35 33 35 34 26 26 32 37 42 50 56 63 70 75 82 91 97 100 96 97 96 97 94 93 92 94 93 92 91 92 92
23 28 31 39 39 46 36 47 44 45 42 40 38 38 36 31 34 34 36 34 36 33 26 26 32 35 39 46 57 61 74 83 82 91 95 99 98 98 98 98 96 95 97 94 93 95 94 94 94
27 33 50 54 52 42 35 45 43 40 42 40 37 40 39 35 35 38 39 35 36 32 24 26 31 33 36 42 51 59 68 82 82 88 94 98 98 99 99 98 97 95 93 91 91 93 96 95 92
34 33 52 61 55 43 42 56 49 50 57 56 45 46 48 44 42 43 41 38 36 32 25 25 31 33 36 38 46 53 64 79 87 87 89 94 96 98 99 99 99 98 95 93 94 96 95 92 93
38 40 29 55 48 54 49 49 46 62 63 55 47 49 51 50 47 42 44 37 34 35 26 27 32 35 35 36 44 50 56 66 80 88 90 95 95 98 98 98 98 95 95 95 97 95 92 91 93
42 38 44 53 73 73 54 51 58 65 74 66 58 55 56 52 49 42 40 36 37 35 28 29 32 36 36 37 41 48 53 53 61 71 76 81 85 88 94 96 94 94 95 96 94 93 90 89 84
64 44 37 45 67 74 71 57 68 76 86 78 65 59 58 58 52 44 42 37 38 38 32 30 33 37 38 40 42 44 49 55 54 55 60 64 72 77 80 85 88 86 85 86 89 88 82 78 80
53 76 60 51 47 51 59 50 61 68 75 80 74 65 60 61 63 55 50 46 41 41 37 36 35 37 39 42 45 46 46 51 56 59 59 59 60 60 66 68 69 70 70 72 73 70 69 74 72

GFSSGP_prec_cthk_108.txt.gz
RH
9 10 13 18 23 26 27 26 24 22 23 25 26 26 23 18 17 20 24 24 26 28 23 18 17 24 32 38 44 44 47 50 53 55 54 52 47 40 35 33 30 30 26 34 34 29 30 30 27
9 11 15 18 25 30 29 23 22 21 22 25 24 23 22 23 20 24 25 24 23 20 19 17 18 23 32 41 47 49 55 57 58 64 55 53 53 46 40 33 29 24 26 29 30 27 31 28 23
10 14 16 19 27 31 29 22 22 21 20 20 21 21 21 22 23 24 26 26 23 19 21 22 22 23 29 39 48 56 58 58 65 73 66 58 63 59 48 37 32 28 27 27 27 28 28 25 18
12 16 18 20 23 24 25 22 20 22 20 20 20 20 19 20 23 26 27 25 23 24 25 26 24 26 27 31 41 54 59 62 57 70 82 67 64 60 63 48 38 34 31 29 28 29 24 20 16
12 16 18 19 19 22 21 20 22 22 21 21 21 20 20 22 24 27 26 24 23 24 27 27 27 29 28 27 29 37 54 62 67 68 79 68 89 68 60 59 48 38 36 30 28 26 24 21 24
15 16 18 20 18 20 20 21 21 22 22 21 20 20 21 23 25 26 26 26 29 29 27 26 28 27 28 31 30 32 41 55 65 70 78 81 96 71 72 58 56 47 34 27 26 25 30 34 44
16 19 20 18 19 19 23 20 21 23 24 23 22 21 25 25 25 26 27 30 30 27 29 27 27 26 24 26 30 32 39 47 64 74 82 82 86 91 76 63 57 46 30 28 27 30 37 50 55
18 20 21 19 20 20 21 20 21 25 24 22 22 24 28 24 24 26 28 30 29 29 30 28 27 26 24 22 25 34 42 56 64 70 78 88 88 91 79 73 62 37 31 28 29 26 38 50 52
18 21 22 20 19 18 20 20 20 21 24 24 24 24 22 22 25 28 29 32 29 29 29 29 30 29 28 26 27 35 48 53 68 73 77 87 87 87 90 79 61 40 34 30 31 34 41 49 42
21 21 20 19 18 18 21 21 21 21 23 25 24 24 24 24 27 30 30 31 29 28 29 31 34 32 32 32 27 39 57 65 71 84 88 91 89 87 93 81 60 45 36 42 39 43 43 51 50
20 18 19 18 19 20 20 21 22 21 22 23 25 25 25 27 28 29 29 30 29 26 28 30 33 33 33 33 30 50 61 68 82 89 94 98 97 91 91 82 64 44 32 35 41 49 53 63 50
24 22 22 21 22 23 21 20 21 22 22 23 23 26 26 28 28 28 30 29 27 24 26 28 33 35 36 31 37 53 68 86 91 92 91 96 97 92 98 82 74 53 47 49 51 59 63 46 44
26 24 24 25 25 24 22 22 22 22 25 25 24 24 27 28 28 28 27 28 28 27 27 31 34 36 38 35 47 64 78 94 97 96 97 92 91 90 92 80 65 61 54 58 56 45 38 45 50
24 24 23 24 26 26 24 23 25 24 29 29 28 26 29 29 28 28 28 28 31 34 32 32 34 36 36 41 53 69 82 98 98 96 98 97 89 93 85 74 64 42 40 44 44 41 45 50 57
23 23 23 24 26 27 26 20 24 29 30 30 34 30 31 31 30 28 27 28 32 36 36 33 33 36 36 46 60 71 90 98 98 97 97 94 89 97 85 80 65 49 39 41 45 45 50 53 61
21 22 22 21 25 27 28 20 25 31 33 33 37 33 30 29 32 30 28 28 35 37 35 33 33 32 38 49 67 76 83 95 96 97 96 92 92 92 85 86 63 54 47 45 46 47 52 54 63
20 21 22 19 20 20 22 19 22 30 33 40 40 37 33 30 31 32 30 34 38 36 36 35 33 29 40 50 65 76 82 83 93 98 94 93 92 94 89 83 64 53 53 49 48 49 55 57 62
19 19 17 17 15 20 24 23 23 27 33 41 43 42 38 34 35 37 35 37 39 39 39 38 33 25 40 53 60 69 75 81 84 93 98 97 95 93 82 79 65 57 60 57 52 53 55 58 59
14 14 13 12 12 16 18 19 18 21 28 34 42 47 43 39 42 41 37 40 41 44 42 38 29 27 36 55 62 67 68 69 75 80 87 91 95 91 83 75 64 68 65 65 63 64 65 70 67
13 13 12 11 13 17 17 17 14 18 23 33 42 45 45 41 39 39 40 41 44 45 43 38 27 28 34 50 60 64 69 73 69 72 79 86 92 91 83 81 73 70 73 72 70 69 70 74 76
17 17 16 18 17 21 25 20 18 18 25 30 43 46 44 42 43 41 40 39 44 49 43 35 27 26 31 44 58 63 68 78 81 81 82 82 83 88 90 89 86 82 77 80 72 75 72 77 80
24 23 23 25 30 31 26 29 19 16 20 32 44 45 43 40 43 41 42 40 45 48 43 34 27 24 30 40 49 57 65 72 80 84 87 89 90 87 86 88 91 92 86 82 80 83 79 78 81
22 24 25 28 30 34 32 42 16 20 21 33 47 49 44 42 45 45 39 39 44 48 41 30 27 25 30 35 44 53 59 71 78 84 93 99 99 97 93 92 93 97 89 85 89 87 87 88 92
16 19 24 27 32 41 32 40 22 23 24 33 51 48 45 45 44 44 43 41 47 47 40 32 26 26 29 33 40 48 57 67 76 83 91 99 99 99 98 95 96 97 92 89 93 94 93 96 92
18 26 40 44 44 37 27 36 25 24 26 40 54 50 45 44 41 42 42 45 45 43 39 29 26 26 31 34 38 46 56 67 79 86 92 96 99 98 99 98 98 97 97 94 96 98 98 98 96
30 30 39 55 51 37 32 43 33 32 39 53 57 54 45 45 40 40 39 45 47 45 41 29 25 26 31 34 37 45 55 68 79 86 92 99 98 99 99 99 98 98 98 97 97 99 98 97 95
34 41 36 50 51 56 47 35 31 26 48 58 61 61 59 50 46 44 43 47 50 50 41 31 25 26 31 33 37 44 48 64 75 84 89 98 99 98 98 99 99 99 99 95 96 98 98 97 96
54 41 46 56 66 59 51 47 45 51 63 66 73 76 69 63 64 60 55 55 54 51 37 32 27 27 29 35 38 43 47 52 69 78 86 91 98 97 99 98 98 98 98 98 98 97 96 96 95
62 62 69 54 63 61 66 55 57 71 71 78 88 89 78 65 63 71 67 57 51 44 40 30 28 30 31 37 40 44 48 50 52 58 67 79 90 96 99 98 99 98 99 97 96 97 96 96 95
50 77 84 94 74 70 64 48 50 67 73 75 91 89 83 79 72 73 73 71 51 44 42 32 30 31 32 34 40 44 47 50 52 51 54 59 72 81 85 91 96 96 93 91 91 91 91 90 88

GFSSGP_prec_cthk_111.txt.gz
RH
8 9 12 15 21 24 26 23 21 20 20 19 21 22 22 21 21 21 21 22 21 19 19 19 18 22 26 29 33 35 38 42 46 45 47 54 54 57 57 52 47 47 43 40 35 41 40 36 33
9 10 14 17 23 27 25 23 22 21 20 19 19 19 19 20 21 21 20 21 21 21 20 20 19 22 26 32 37 42 43 47 51 53 55 60 62 60 58 53 45 39 35 33 31 37 37 35 34
9 10 14 18 24 26 25 20 19 19 21 21 20 20 20 19 19 20 20 21 22 22 22 22 21 21 26 32 40 47 47 53 56 58 58 65 63 57 58 51 44 36 32 29 31 31 37 36 34
10 13 16 19 21 22 23 20 20 19 19 20 22 22 21 19 17 19 20 22 22 22 21 23 24 23 26 32 41 49 55 60 61 64 70 67 65 68 66 54 45 42 37 33 30 29 33 33 30
13 16 18 19 18 18 20 19 19 19 18 18 21 24 22 20 20 20 20 21 22 23 24 26 24 24 26 28 32 37 50 58 59 78 66 65 73 78 75 58 52 45 42 40 35 32 32 26 23
13 15 19 20 17 17 18 19 19 18 18 18 20 23 22 21 23 22 21 22 23 24 25 26 26 24 25 24 26 31 34 41 52 80 83 70 70 80 89 63 54 58 44 42 38 36 27 24 24
15 17 18 17 18 17 18 19 19 18 19 20 22 22 21 21 23 23 22 21 23 25 27 27 27 25 25 26 26 26 30 34 42 57 67 70 87 81 84 65 77 61 57 44 33 32 27 29 29
15 18 20 18 20 19 15 18 19 19 19 21 21 25 24 21 23 23 24 22 24 27 28 29 26 24 26 26 26 28 27 33 46 53 62 70 81 90 88 92 80 61 55 38 33 30 34 34 37
18 22 23 20 20 19 17 20 20 20 20 19 22 22 22 23 25 26 26 25 28 28 28 29 27 26 28 28 27 28 28 37 48 54 62 71 79 89 94 90 76 72 50 40 35 35 39 41 45
21 23 21 20 19 18 18 18 20 20 20 19 20 20 22 25 28 28 27 26 28 28 28 29 29 29 32 33 30 30 29 32 50 61 70 73 77 82 86 88 81 81 48 39 34 40 39 45 46
20 21 20 19 19 19 19 18 20 22 20 20 20 20 23 27 30 32 31 29 27 30 28 29 29 31 34 37 34 34 30 34 48 72 82 87 84 88 89 88 83 85 50 38 39 42 38 41 45
23 21 20 20 21 22 22 21 20 20 19 21 20 21 23 26 29 30 32 30 30 30 29 30 30 32 36 39 37 35 33 39 54 69 89 96 93 95 92 90 87 80 46 42 41 43 45 46 47
26 24 23 24 25 24 23 21 20 20 21 23 23 23 24 26 32 33 32 31 34 31 31 35 35 34 38 39 39 36 37 47 59 80 92 93 97 97 94 89 73 66 46 44 48 49 51 59 61
24 24 24 24 24 25 25 21 23 20 23 22 23 24 25 28 30 33 32 30 32 32 34 38 38 36 39 39 38 39 44 56 71 89 95 96 96 96 96 94 79 68 46 39 43 51 59 62 61
21 21 23 23 23 24 25 19 21 22 21 20 22 24 26 32 34 34 31 30 32 31 35 39 41 41 40 39 38 44 49 65 83 94 96 95 98 97 95 92 84 71 51 47 52 66 62 58 46
20 21 22 21 22 22 25 17 20 22 21 21 21 22 26 30 35 35 33 31 33 33 36 43 45 45 41 36 38 47 63 76 85 97 98 99 96 94 97 91 79 74 60 54 61 65 58 51 46
20 19 20 20 20 21 21 15 16 17 17 17 18 20 26 28 34 37 34 32 33 36 39 47 48 45 38 31 40 53 67 77 84 96 99 95 99 95 92 93 71 64 47 46 51 51 52 50 53
20 20 18 18 16 15 18 15 13 14 16 16 17 19 22 31 35 39 36 34 35 38 43 51 49 46 36 30 40 55 63 71 74 92 97 96 98 98 95 85 71 68 46 40 42 45 50 52 55
17 16 16 14 13 12 11 12 11 12 14 13 12 14 19 32 37 40 39 34 36 43 48 50 49 44 32 30 37 55 60 68 69 85 97 95 98 95 92 82 79 73 50 50 47 46 53 58 61
14 14 13 11 10 16 15 13 12 15 15 13 13 14 19 32 41 44 42 37 36 45 50 51 49 43 30 30 36 51 61 67 69 73 83 95 94 94 92 87 84 72 52 49 53 52 54 59 63
19 17 16 15 16 19 20 18 16 17 16 13 11 12 17 25 44 48 45 41 41 45 47 50 47 42 32 32 36 45 61 65 71 73 79 91 94 93 92 88 79 74 57 56 58 58 57 58 62
26 21 21 22 26 28 23 27 16 17 15 14 12 15 18 31 46 49 45 43 40 45 48 52 47 40 30 32 36 41 50 62 71 77 78 83 90 92 94 94 85 82 66 63 62 64 64 65 70
23 24 26 27 27 27 24 37 18 18 16 13 13 17 27 40 52 48 43 41 44 48 50 52 47 36 30 31 36 40 47 56 66 77 82 88 88 93 94 92 91 86 75 73 78 75 75 71 73
20 22 23 24 28 36 23 34 18 20 17 14 15 26 42 52 55 50 46 43 45 49 57 52 47 33 31 33 35 38 42 52 60 75 83 88 89 95 95 97 96 95 89 81 83 84 85 81 82
20 24 32 33 42 34 23 30 20 20 17 21 30 30 43 60 60 52 45 44 43 46 56 53 45 30 30 33 34 36 41 49 59 71 81 87 93 95 96 96 97 95 94 91 88 88 89 90 92
30 33 43 35 35 28 27 39 28 24 24 26 28 37 46 62 66 61 49 46 45 47 53 54 43 28 31 32 34 36 43 51 62 77 83 88 95 97 99 96 96 97 94 96 96 95 93 95 96
38 41 37 44 44 53 38 33 24 24 31 35 40 50 60 69 71 60 59 55 50 47 51 55 45 32 29 33 33 36 43 51 63 77 84 90 96 98 98 98 97 97 98 97 99 97 97 97 98
50 50 47 56 61 55 42 42 40 33 47 55 55 59 69 72 67 63 68 65 59 57 60 57 45 33 29 33 34 38 43 51 61 74 84 89 96 98 96 98 96 98 98 97 98 98 97 98 99
45 66 68 62 69 66 52 40 46 61 60 64 60 62 70 83 75 69 68 72 65 63 69 62 45 35 30 32 34 38 43 47 53 65 72 83 92 97 97 98 97 99 97 99 99 99 96 97 99
47 60 65 88 93 82 86 64 51 53 57 61 64 64 68 86 81 74 70 75 71 72 75 66 42 36 32 34 36 39 43 45 47 51 58 70 82 93 97 98 98 97 99 98 98 98 97 98 97

GFSSGP_prec_cthk_114.txt.gz
RH
9 9 11 14 18 22 24 22 21 22 21 21 22 23 22 20 21 21 20 22 21 20 19 18 17 18 20 23 24 26 28 35 40 48 53 55 58 59 62 59 60 54 46 46 46 46 48 49 44
9 9 13 16 20 23 20 21 21 20 19 19 19 21 21 20 20 19 20 21 20 19 21 20 19 19 21 24 26 29 32 37 43 50 53 57 59 65 68 67 65 63 53 49 43 42 49 48 39
9 11 13 17 24 22 20 19 19 19 18 19 19 19 20 21 21 20 20 21 20 21 21 20 20 20 22 25 27 32 36 41 47 52 57 61 76 69 71 66 62 59 50 44 44 41 41 42 37
10 12 14 18 20 19 20 18 20 19 18 18 19 18 19 21 20 19 20 22 22 22 22 23 23 21 24 27 30 35 38 43 45 53 66 76 69 71 69 66 64 53 43 41 49 38 35 40 35
11 14 17 19 18 15 15 19 20 19 18 18 18 18 19 20 21 21 22 20 23 23 25 25 25 23 23 26 28 31 37 40 45 50 75 77 94 77 68 74 74 59 47 43 53 47 35 35 31
12 14 18 19 16 14 14 16 18 19 19 19 19 19 19 20 20 21 23 23 22 22 24 27 28 27 24 28 28 26 31 37 40 43 43 52 82 84 90 84 84 65 50 60 48 42 46 35 31
14 16 18 16 16 15 14 15 19 19 19 19 18 19 20 20 20 22 23 26 25 25 24 27 29 30 27 27 28 27 27 31 34 36 37 47 50 62 73 77 87 69 59 65 46 39 38 37 27
16 18 20 17 16 16 14 14 17 19 19 19 19 21 22 22 22 22 24 28 29 28 27 28 28 32 30 28 31 31 30 31 32 32 34 42 53 61 70 77 90 74 77 69 48 35 34 31 28
21 22 24 17 17 16 16 16 16 19 19 19 20 19 20 20 21 22 24 26 27 28 31 28 29 31 31 31 30 34 35 34 35 36 39 42 51 57 66 79 88 81 81 71 52 35 31 33 37
24 26 23 18 16 16 16 17 17 18 17 20 20 19 20 20 20 22 23 25 29 29 29 30 30 31 32 33 32 33 37 38 41 43 43 44 52 61 66 77 91 86 87 66 53 32 32 38 40
26 24 21 19 18 18 19 18 18 18 19 21 20 20 20 20 21 22 23 25 27 27 30 31 29 32 35 33 35 36 38 39 47 51 53 51 63 74 77 80 80 81 81 67 51 41 39 36 44
26 25 23 20 19 21 21 20 20 20 19 19 21 22 22 22 22 23 25 25 28 29 32 33 31 32 38 38 38 40 40 42 49 50 56 63 77 88 90 85 89 82 82 64 56 43 41 46 53
27 26 25 23 23 22 22 22 21 21 22 22 21 22 23 24 23 25 27 28 30 32 35 34 32 35 37 41 42 42 42 44 51 52 60 72 92 94 94 93 91 90 84 63 57 45 45 46 46
26 26 25 25 25 24 25 23 24 20 22 23 24 23 24 24 26 25 27 28 30 32 35 37 36 37 38 44 47 43 42 45 50 56 68 79 92 96 96 95 94 93 86 74 52 44 47 46 54
24 24 23 23 23 24 24 22 21 21 21 21 22 24 25 24 24 24 27 29 30 32 35 38 39 39 42 47 52 44 39 47 51 65 80 85 94 98 98 98 93 89 87 70 47 47 49 53 61
24 23 24 22 22 22 24 21 20 21 19 20 19 20 21 22 22 23 27 29 32 33 35 36 38 41 43 51 53 42 36 49 61 73 81 88 90 98 98 98 95 92 87 59 50 50 50 59 65
25 25 22 20 21 23 23 17 16 17 15 14 15 15 15 15 16 20 25 29 30 34 35 35 37 41 42 53 52 39 35 54 62 72 79 83 94 98 98 98 98 94 82 54 51 52 52 63 58
25 22 22 21 20 20 19 15 14 11 11 12 11 12 12 11 11 15 22 28 30 35 37 37 38 42 44 54 50 36 39 55 63 71 75 84 99 98 98 98 96 88 89 57 49 52 62 63 59
22 22 23 20 17 15 13 10 10 10 10 11 11 10 9 9 10 12 19 27 32 37 42 39 40 43 46 52 47 34 39 53 64 71 73 84 97 97 99 97 96 87 86 59 55 65 69 69 62
29 28 25 18 14 14 14 13 13 12 12 12 12 11 11 10 11 11 19 28 33 39 42 40 44 43 48 53 44 36 39 48 64 67 72 81 97 96 95 95 97 87 82 64 58 64 67 63 55
21 19 17 16 16 17 20 20 13 13 12 14 14 13 12 14 14 13 21 32 36 41 43 43 42 44 50 55 44 36 39 46 60 67 70 74 97 96 97 98 98 90 71 57 42 45 49 52 59
35 25 19 21 27 31 22 28 16 15 17 16 14 13 14 18 21 20 20 30 38 43 47 47 47 46 53 55 42 36 37 42 54 64 72 75 84 97 98 97 91 81 77 62 52 54 53 51 58
29 21 26 28 32 32 26 28 21 16 16 15 14 13 21 24 24 27 29 32 39 43 47 46 48 50 55 55 42 36 37 41 51 61 70 78 82 92 96 93 91 87 86 72 53 52 54 57 58
31 29 26 29 30 38 26 28 18 18 18 18 18 22 27 27 27 31 37 38 44 47 49 49 50 53 58 55 42 35 36 41 48 58 64 78 85 87 93 95 91 88 84 77 59 54 57 61 63
35 38 40 35 44 35 25 32 20 18 19 26 29 27 25 30 31 37 42 48 54 54 51 52 54 52 57 53 40 35 37 41 49 54 63 74 85 88 89 90 93 92 88 86 79 64 64 65 71
34 32 37 34 35 30 34 35 26 21 24 28 32 33 34 32 37 41 49 52 63 61 53 53 55 55 54 52 38 35 38 42 47 55 65 77 83 87 91 93 91 93 91 91 91 82 75 77 79
40 42 40 43 42 48 36 29 27 28 34 36 35 33 33 32 36 42 50 55 64 66 58 57 56 56 55 50 37 37 39 42 47 57 68 80 87 90 92 96 98 94 93 93 92 92 86 88 91
53 52 50 54 56 50 41 42 39 44 44 40 40 38 37 38 33 38 49 59 68 64 62 62 58 62 63 46 37 38 40 44 50 59 68 80 87 92 97 99 98 99 97 97 98 98 91 90 95
59 59 62 62 67 66 65 45 51 46 47 48 45 42 40 39 39 45 51 66 69 66 67 63 60 66 67 48 39 40 43 47 52 57 62 69 80 89 97 99 98 98 96 98 99 98 97 96 94
68 68 66 65 74 75 78 64 47 45 45 45 50 49 44 45 48 61 63 77 75 71 71 67 65 73 64 47 41 44 48 50 52 55 55 58 70 83 88 98 99 99 98 99 97 98 98 99 97

GFSSGP_prec_cthk_117.txt.gz
RH
11 9 9 11 14 18 18 19 19 20 20 21 20 20 21 22 24 20 20 20 19 19 18 17 18 16 17 18 21 24 28 31 37 41 48 54 56 58 59 63 61 57 57 48 46 50 54 53 51
10 9 11 13 15 15 15 19 19 18 19 20 20 20 21 21 20 19 19 18 19 18 18 19 18 18 18 20 21 26 31 35 42 46 56 56 56 56 59 66 64 64 62 56 49 54 49 52 50
9 10 12 14 17 12 12 17 17 18 18 19 20 20 20 20 20 19 19 19 19 18 17 17 19 19 21 23 25 26 33 36 40 47 54 56 55 63 66 77 68 64 63 62 49 49 49 51 50
10 11 12 13 14 14 15 16 18 19 18 19 20 19 19 20 20 19 20 21 22 20 20 19 19 20 21 23 27 26 32 35 38 45 47 58 72 75 86 91 88 77 71 58 49 50 52 44 45
11 12 13 15 15 14 13 17 17 18 18 19 19 19 20 20 20 19 21 22 24 23 21 21 21 21 21 24 27 27 26 34 37 39 41 53 47 94 71 95 85 75 74 68 53 58 47 39 41
14 14 13 11 12 13 12 13 14 17 19 19 19 18 19 20 21 20 19 22 23 23 23 23 22 22 23 24 26 30 27 30 36 44 44 45 48 53 62 74 82 79 75 68 59 60 50 37 39
16 16 13 12 12 13 12 11 13 15 18 19 19 19 20 21 21 21 21 21 24 25 26 27 26 24 23 22 27 31 34 32 36 35 39 41 44 48 53 63 80 83 80 62 67 65 41 40 43
19 18 17 15 12 11 12 13 13 15 18 18 19 22 20 20 20 21 22 23 24 26 27 28 29 29 26 24 24 30 34 38 37 36 36 40 44 44 53 60 68 75 78 64 73 51 38 44 40
23 20 18 15 17 14 15 16 15 15 16 18 19 20 20 20 20 20 23 23 23 25 27 29 31 32 31 29 27 27 32 37 42 42 40 41 45 48 48 55 63 72 77 79 72 60 40 41 36
24 22 19 18 19 19 17 17 16 15 16 17 18 20 20 21 21 21 21 22 22 24 26 27 31 34 35 35 33 29 30 36 42 44 44 47 51 52 52 61 66 74 79 84 76 68 48 35 33
25 22 22 21 22 22 20 18 18 18 16 19 19 20 21 21 22 21 21 22 23 24 26 28 31 35 38 38 38 34 31 37 43 48 50 52 59 55 58 67 77 76 80 81 87 66 46 39 39
27 26 25 24 24 23 20 20 20 20 19 19 19 20 21 21 21 21 21 23 26 26 27 30 34 36 38 40 43 41 37 41 44 50 57 64 65 64 69 75 82 80 81 82 84 60 46 41 43
29 27 27 26 26 25 24 22 21 20 22 23 22 22 20 20 19 20 22 23 24 25 26 30 36 38 40 42 42 46 46 46 48 52 60 68 68 73 77 88 89 92 85 84 75 55 46 48 47
30 31 30 29 27 26 25 23 25 21 24 25 25 24 22 21 20 20 21 21 20 22 23 27 35 39 41 44 44 46 49 51 50 50 61 69 69 78 86 92 96 93 92 87 76 56 51 51 54
28 28 27 27 28 27 26 24 22 21 24 23 23 23 22 21 21 21 21 19 20 21 21 25 35 36 40 44 46 48 51 53 51 48 60 69 77 86 93 93 96 96 94 89 78 66 52 53 56
28 27 28 25 24 25 25 23 22 22 21 20 19 17 17 16 17 18 18 17 18 19 22 24 34 33 38 43 47 48 51 54 49 45 55 69 81 83 86 93 99 97 94 92 77 71 51 54 54
29 28 26 25 26 26 26 24 21 19 18 17 16 15 15 16 15 15 14 13 13 14 19 24 33 35 37 43 49 49 51 52 44 39 54 68 74 78 85 95 99 99 95 92 84 65 44 50 55
27 27 25 24 23 24 24 25 22 19 15 13 13 12 11 11 9 9 10 11 10 11 17 26 35 37 38 44 48 51 52 52 39 41 54 66 75 80 89 97 98 99 97 94 86 61 48 50 55
27 27 28 29 26 22 19 16 15 12 12 12 12 11 11 11 10 10 10 10 10 12 17 28 35 40 43 46 48 50 52 49 38 42 55 67 73 79 96 99 97 99 99 95 89 63 51 53 62
28 29 27 23 20 20 17 17 15 12 12 11 12 12 12 13 12 13 12 11 11 13 21 32 38 44 46 49 49 50 54 42 37 44 56 68 74 85 97 99 97 98 96 98 89 62 58 57 59
33 31 28 30 24 23 24 21 15 13 13 14 14 12 12 14 18 16 12 13 14 18 24 32 41 49 50 52 54 54 53 41 37 43 55 66 73 86 97 99 97 98 97 95 85 60 56 50 64
33 26 23 20 29 34 29 29 25 21 20 14 13 14 18 21 20 21 18 14 19 22 28 34 43 50 51 54 54 56 50 40 38 43 54 61 71 82 96 98 98 98 97 92 85 59 56 53 66
37 34 27 31 39 39 31 30 22 20 16 16 16 19 22 22 25 23 21 21 22 23 29 38 47 51 53 53 52 54 48 40 38 45 53 60 68 80 88 97 96 98 98 89 86 62 65 70 69
38 44 40 37 35 40 33 28 23 22 21 19 22 22 23 23 23 22 25 27 28 31 32 41 47 55 58 57 54 52 45 38 38 45 51 60 69 82 90 96 99 98 94 88 87 69 55 56 57
41 44 45 48 48 32 26 29 26 25 29 32 29 28 27 25 25 25 25 28 32 36 43 45 50 56 58 60 59 55 44 36 38 44 50 60 70 79 87 90 96 98 98 91 87 71 55 51 50
47 42 39 35 38 36 41 34 35 40 40 40 39 36 29 27 27 27 26 30 34 41 46 54 57 59 59 61 63 61 45 36 40 44 50 62 72 85 87 91 91 95 95 95 94 85 61 55 56
53 53 41 38 41 43 38 38 44 47 41 39 35 35 34 31 29 33 33 32 33 37 49 58 62 61 59 64 66 63 49 38 41 46 53 64 74 86 91 93 95 91 88 89 88 91 80 63 55
65 60 61 61 60 54 44 42 44 43 38 36 34 38 38 33 31 32 38 40 37 39 53 61 67 66 60 65 66 63 46 40 44 50 56 68 77 88 91 92 95 93 90 87 88 88 92 85 67
73 73 74 66 69 53 49 46 51 46 44 34 28 31 35 35 35 34 38 41 41 45 56 68 71 68 62 66 65 62 42 40 45 51 57 63 70 79 86 90 95 97 97 98 97 96 95 95 89
78 84 84 73 75 74 66 53 54 51 44 36 31 27 30 33 39 40 42 40 45 50 64 77 76 71 67 70 67 60 40 40 47 54 57 59 63 67 80 83 90 99 99 98 98 97 97 98 94

GFSSGP_prec_cthk_120.txt.gz
RH
11 9 10 12 12 12 13 15 14 16 17 18 18 20 20 19 19 19 16 19 18 18 16 16 15 13 13 15 18 22 23 25 28 34 39 45 48 52 52 56 60 68 62 50 49 53 59 64 62
11 9 12 13 12 12 12 15 15 16 17 18 18 19 18 20 17 18 20 17 16 16 16 16 16 16 15 16 21 24 27 28 31 39 45 52 54 55 54 57 65 68 70 71 53 55 61 57 59
10 10 14 13 11 10 10 13 15 16 16 18 18 18 19 19 18 19 19 17 17 18 16 16 16 16 14 16 21 25 29 33 34 40 46 52 56 60 64 70 67 72 83 78 64 56 56 54 56
13 13 11 11 11 11 11 14 15 15 17 18 18 18 18 19 19 18 17 17 18 20 19 17 17 17 17 16 18 22 26 32 37 38 46 52 55 69 72 95 92 95 76 79 74 63 52 54 48
15 15 12 11 10 11 12 15 16 15 17 18 18 19 19 19 19 16 16 17 20 21 20 19 19 19 19 18 18 20 22 27 35 37 46 49 46 52 37 66 70 87 97 80 72 63 59 56 42
19 17 14 11 10 12 11 12 14 15 17 18 18 18 19 19 19 19 17 18 20 21 22 22 23 23 23 22 21 22 23 26 30 36 51 61 42 43 50 46 50 65 92 72 68 64 61 53 43
21 19 15 13 12 11 12 11 12 14 16 18 18 19 20 21 18 18 18 19 19 20 22 23 24 26 26 26 26 25 28 29 30 36 42 50 46 45 48 45 48 65 73 76 74 71 64 57 44
22 20 18 15 14 12 12 13 12 13 15 15 17 21 22 19 18 18 19 19 20 21 22 23 25 26 27 28 29 30 29 32 32 33 38 40 47 48 51 49 51 62 63 73 73 67 65 57 45
25 22 20 18 16 16 15 15 15 15 15 16 17 19 20 20 19 19 20 20 21 21 22 23 25 26 28 30 32 35 33 33 35 37 39 41 44 48 53 52 55 60 64 76 74 67 59 53 45
25 22 21 20 18 19 19 18 18 17 16 16 18 18 19 20 21 21 21 23 24 22 22 24 25 26 29 31 35 39 39 36 37 38 41 46 49 56 61 61 60 65 69 78 81 76 56 54 48
25 22 23 23 23 23 21 20 20 18 17 18 17 20 19 19 21 21 22 23 25 25 27 26 27 27 29 32 36 41 45 44 42 44 46 47 54 61 64 66 63 71 81 85 94 91 72 58 51
27 25 25 24 25 25 24 24 21 21 21 21 20 20 20 20 21 22 22 23 24 24 26 27 26 27 29 32 36 41 47 50 49 52 50 54 58 60 69 72 69 73 86 89 91 85 86 64 52
30 28 27 28 27 26 26 25 23 23 24 23 22 22 21 21 21 21 22 22 23 23 25 23 24 25 28 32 37 42 46 49 54 52 53 55 60 68 74 73 79 86 91 94 86 92 94 69 49
31 32 30 30 29 27 26 25 25 25 24 24 24 24 25 23 22 21 22 22 22 22 23 23 21 23 25 32 37 42 47 49 52 52 53 53 59 75 76 81 95 90 97 93 89 93 84 63 50
34 32 30 30 30 29 27 27 24 24 24 24 24 24 25 24 23 23 23 23 23 22 22 23 21 21 22 30 35 42 47 51 52 52 56 53 56 81 84 86 92 93 97 99 96 91 78 64 52
35 33 32 29 29 27 28 23 26 25 23 23 21 21 22 21 20 20 20 20 21 20 20 21 22 19 21 30 38 40 47 50 52 52 56 53 51 68 84 87 85 93 95 98 97 86 78 66 61
31 32 31 31 31 29 27 26 27 27 22 20 19 17 17 18 17 17 17 16 17 15 15 16 16 17 21 29 40 45 46 50 52 56 59 48 46 59 73 79 83 96 97 99 97 90 78 64 68
32 31 31 30 30 30 28 27 26 24 22 20 18 15 15 15 15 16 15 16 13 12 11 10 10 11 22 33 41 46 45 49 52 53 58 45 42 55 72 77 82 93 98 99 97 92 79 71 64
32 30 29 28 32 29 23 22 24 23 19 16 14 14 14 15 18 13 15 13 13 13 12 9 9 12 24 35 43 47 46 49 52 53 55 37 40 55 70 78 82 92 98 98 98 91 88 74 65
34 32 28 28 33 30 24 22 20 18 16 14 14 15 20 16 16 18 16 13 13 15 13 12 14 17 31 37 47 50 52 52 54 54 48 33 41 52 70 78 87 96 98 97 98 93 91 75 56
42 38 34 29 30 31 26 23 20 21 18 15 14 15 14 15 19 18 17 17 18 19 20 19 19 24 35 41 49 54 55 55 57 50 38 34 45 55 73 82 94 99 99 96 98 96 90 73 56
48 46 36 30 35 33 28 29 28 29 21 19 17 16 19 22 24 21 20 22 21 23 22 22 24 25 35 43 53 57 57 54 54 46 32 37 45 55 71 83 95 98 99 97 98 98 90 84 57
47 46 44 43 37 35 33 38 32 32 29 22 22 25 28 27 24 22 21 22 25 23 21 25 27 27 39 49 57 60 62 61 59 44 34 36 41 53 67 84 96 97 98 98 99 99 95 89 55
46 47 54 49 46 45 36 35 27 30 28 28 32 33 30 27 26 26 27 25 23 22 26 25 28 35 43 52 62 64 66 64 60 49 38 36 40 48 64 82 94 99 98 99 98 97 96 86 65
53 54 59 64 62 47 33 32 27 30 38 40 39 33 35 33 33 31 26 25 22 24 27 30 32 38 45 55 62 66 67 65 58 48 38 38 40 47 66 82 90 95 98 99 99 98 94 79 65
63 60 57 61 52 44 41 37 40 47 42 41 38 37 36 36 30 27 26 29 28 24 28 30 38 42 44 56 64 68 68 63 60 45 41 38 42 51 69 83 89 95 99 97 98 98 94 79 59
69 73 57 56 51 46 43 57 62 54 46 43 42 39 45 43 36 30 27 29 29 27 26 33 41 46 48 55 68 72 70 67 64 41 41 42 45 62 77 84 90 92 96 98 98 96 92 81 69
63 64 63 63 62 49 37 46 48 54 44 37 35 35 35 36 32 30 30 31 29 27 26 31 44 51 52 58 69 72 70 68 63 39 40 44 50 70 80 93 95 95 94 95 98 95 93 89 73
92 78 76 70 58 54 47 43 51 57 50 44 38 32 28 29 33 36 33 31 29 29 30 30 37 49 58 65 70 73 72 71 61 38 39 45 54 67 85 90 93 96 95 96 93 95 95 94 83
82 96 97 90 72 60 56 54 60 60 55 46 40 33 31 25 32 37 36 35 33 34 36 33 38 46 59 67 72 76 76 75 60 39 38 46 54 60 69 82 88 93 91 97 98 92 91 92 93

GFSSGP_prec_cthk_126.txt.gz
RH
8 9 9 13 16 16 12 11 18 20 21 20 19 23 27 29 27 33 31 32 26 15 11 11 9 10 10 10 12 14 15 18 19 22 25 29 38 44 47 48 48 52 54 63 62 56 56 63 66
10 14 14 15 17 17 13 16 14 21 20 16 14 17 21 23 22 25 25 22 20 13 11 12 12 11 11 11 13 15 18 20 20 23 25 31 41 47 50 48 53 63 78 83 74 56 61 61 58
13 16 14 17 15 13 13 14 19 21 19 17 12 11 16 17 18 18 20 17 17 15 12 13 13 12 12 12 13 16 18 21 24 25 29 36 44 49 53 48 54 72 91 92 95 83 71 69 59
15 18 14 16 16 14 13 15 17 24 19 17 12 16 15 22 20 21 22 17 18 17 13 13 14 14 13 13 13 14 17 21 23 28 32 36 42 49 52 50 53 50 57 92 90 96 86 74 61
21 19 18 16 13 12 12 15 18 20 19 17 13 16 18 21 22 22 23 20 19 18 14 14 15 16 15 15 15 15 16 18 22 25 28 35 41 48 43 45 49 43 43 50 66 89 90 71 60
25 21 20 18 16 15 15 15 16 18 17 17 15 16 19 22 21 23 25 23 23 19 16 14 15 17 17 16 17 18 18 19 20 23 28 37 41 46 46 41 41 44 36 39 58 81 83 72 63
24 22 20 19 18 18 20 18 18 16 16 16 15 15 16 23 24 26 25 26 24 22 16 16 16 17 18 18 19 20 20 21 22 22 26 34 42 45 48 42 41 43 40 43 47 72 79 76 66
25 24 24 21 21 19 20 20 21 15 14 14 16 17 16 24 26 26 26 26 27 24 20 16 16 17 18 18 20 21 22 23 24 24 25 29 33 40 44 43 43 42 43 49 48 68 78 82 84
28 27 24 23 22 20 21 21 21 18 15 14 16 17 20 22 24 25 26 26 28 28 23 18 17 17 17 19 20 22 23 25 26 26 26 30 34 37 46 51 50 51 53 54 58 73 76 79 85
28 27 24 24 24 24 25 27 24 20 19 16 16 17 14 18 19 23 25 26 26 25 24 20 18 19 19 18 20 21 23 25 28 29 29 31 37 42 48 56 66 66 64 63 65 70 79 87 85
30 25 26 26 28 27 28 27 31 23 21 20 19 20 18 15 16 18 21 24 27 26 23 20 20 20 20 19 20 21 23 25 28 32 35 36 40 47 54 61 60 61 70 72 71 76 84 89 77
32 32 32 30 29 29 29 29 27 24 22 24 24 21 20 20 19 20 20 22 25 33 29 24 22 22 22 21 21 21 22 24 26 31 37 42 45 48 51 49 50 65 81 72 65 77 83 88 89
36 35 33 33 34 33 31 30 28 23 25 24 23 22 22 22 22 25 22 24 24 25 31 32 27 24 24 25 21 21 23 24 26 30 35 42 49 49 51 52 51 69 83 82 80 81 84 88 87
38 38 36 35 34 35 35 33 32 25 26 25 25 26 24 23 24 23 25 24 25 25 27 33 32 27 26 24 24 22 23 26 29 32 35 42 48 50 49 55 56 68 83 88 86 84 88 91 92
42 41 40 37 39 39 42 36 33 32 31 28 26 26 26 25 25 26 26 26 26 24 25 28 30 28 28 26 27 25 24 29 28 33 37 42 50 53 50 54 58 60 83 91 92 95 95 92 96
40 43 41 35 40 38 45 34 38 39 38 32 29 27 28 27 28 29 28 28 27 27 27 32 30 26 26 24 25 24 22 26 32 32 39 42 50 54 53 56 58 54 64 84 92 94 93 95 96
37 44 43 38 40 39 43 38 38 37 38 36 35 35 33 32 34 29 28 27 27 29 32 32 30 28 27 24 23 22 23 22 25 35 39 46 52 53 54 58 59 54 52 68 85 95 93 96 98
35 41 38 37 37 40 42 40 37 40 40 41 38 40 38 35 33 26 25 24 26 27 24 23 25 25 25 26 26 23 22 23 22 28 40 45 53 53 54 56 59 56 50 58 77 87 91 92 98
33 39 36 32 36 37 44 39 41 41 42 44 44 46 39 34 29 24 24 24 25 26 23 23 20 19 17 19 22 22 23 15 20 23 37 46 55 54 55 54 57 55 46 53 76 81 93 88 97
32 36 32 34 39 41 42 41 36 40 37 43 40 44 41 36 31 24 24 28 29 27 28 26 22 20 17 15 13 16 18 23 19 26 38 50 57 57 55 55 53 49 45 51 68 76 91 91 93
35 31 32 37 37 40 45 40 37 34 38 41 40 39 42 38 31 30 33 35 35 33 31 27 25 21 22 20 21 23 25 29 28 34 43 50 59 60 60 56 53 43 39 50 59 73 84 87 90
27 33 43 41 40 42 42 41 36 34 35 42 46 43 38 33 33 39 42 40 42 38 30 27 27 28 29 25 27 28 25 28 30 37 46 56 61 59 61 57 52 39 42 46 57 73 80 94 93
25 39 45 50 52 51 43 49 31 36 36 35 35 38 33 37 39 46 45 39 32 35 26 23 24 31 34 29 30 34 32 34 39 43 48 54 63 63 62 59 50 38 40 44 56 68 81 95 96
37 38 45 50 56 57 34 52 31 40 34 39 41 38 38 47 54 49 45 37 42 37 28 25 25 24 25 28 32 35 36 40 42 45 49 55 64 65 65 61 45 39 44 50 60 70 87 96 97
54 52 52 77 67 50 52 57 34 37 40 44 46 44 51 58 63 53 48 41 39 32 26 22 25 29 27 28 34 37 38 42 45 46 51 62 63 66 67 56 48 43 47 54 65 79 91 99 96
55 61 66 58 59 49 55 59 31 42 42 45 48 55 60 59 62 53 49 38 35 37 31 24 21 29 36 32 34 41 39 45 48 56 58 65 65 68 63 57 51 46 48 56 69 86 93 99 99
79 72 69 75 63 58 63 52 46 46 46 48 61 62 70 63 49 46 45 45 38 32 32 29 28 27 37 32 33 40 43 49 55 59 61 64 64 68 62 57 47 45 49 59 73 84 95 98 98
71 69 81 86 84 70 50 54 61 55 60 53 71 70 71 57 48 41 42 46 41 38 40 35 35 33 31 35 37 38 46 49 57 60 64 66 66 70 64 58 44 45 56 67 81 88 98 99 98
68 76 72 78 91 71 64 54 49 62 79 67 61 61 57 50 44 41 41 45 43 42 42 40 37 37 33 32 35 37 44 50 56 61 65 67 68 71 66 59 45 49 60 73 85 91 94 97 98
54 94 96 89 93 84 73 65 69 60 70 76 56 51 50 47 45 41 36 38 44 48 48 44 39 36 35 37 37 38 38 51 57 58 64 68 73 72 68 60 45 51 60 74 90 95 94 95 96